GFSCGP_con_mucape_000.txt.gz
CAPE
0 0 0 0 0 0 0 0 0 0 0 0 0 0 0 0 0 0 0 0 0 0 0 0 0 0 0 0 0 0 0 0 0 0 2 11 9 62 54 20 41 38 66 79
0 0 0 0 0 0 0 0 0 0 0 0 0 0 0 0 0 0 0 0 0 0 0 0 0 0 0 0 0 0 0 0 0 7 0 16 42 39 40 7 72 69 34 62
0 0 0 0 0 0 0 0 0 0 0 0 0 0 0 0 0 0 0 0 0 0 0 0 0 0 0 0 0 0 0 0 0 0 0 18 37 51 11 5 35 114 64 18
0 0 0 0 0 0 0 0 0 0 0 0 0 0 0 0 0 0 0 0 0 0 1 0 0 0 0 0 0 0 0 0 0 4 6 27 30 27 8 16 32 63 69 87
0 0 0 0 0 0 0 0 0 0 0 0 0 0 0 0 0 0 0 0 0 0 2 0 0 0 0 0 0 0 0 0 0 0 0 11 20 45 45 20 31 61 50 87
0 0 0 0 0 0 0 0 0 0 0 0 0 0 0 0 0 0 0 0 0 0 0 0 0 0 0 0 0 0 0 0 0 0 0 0 3 8 29 61 48 24 48 39
0 0 0 0 0 0 0 0 0 0 0 0 0 0 0 0 0 0 0 0 0 0 0 0 0 0 0 0 0 0 0 0 0 0 0 0 0 0 18 52 47 46 67 53
0 0 0 0 0 0 0 0 0 0 0 0 0 0 0 0 0 0 11 0 1 0 0 0 0 0 0 0 0 0 0 0 0 0 0 0 0 0 0 42 82 67 62 73
0 0 0 0 0 0 0 0 0 0 0 0 0 0 0 3 5 3 3 1 2 0 0 0 0 0 0 0 0 0 0 0 0 0 0 0 0 0 0 0 1 55 51 54
0 0 0 0 0 0 0 0 0 0 0 0 0 0 0 0 0 12 5 6 0 0 0 0 0 0 0 0 0 0 0 0 0 0 0 0 0 0 0 0 0 20 32 36
0 0 0 0 0 0 0 0 0 0 0 0 0 0 0 4 144 241 67 32 0 0 0 0 0 0 0 0 0 0 0 0 0 0 0 0 0 0 0 0 0 0 26 33
0 0 0 0 0 0 0 0 0 0 0 0 0 0 59 141 172 243 292 63 0 0 0 0 0 0 0 0 0 0 0 0 0 0 0 0 0 0 0 0 0 0 0 6
0 0 0 0 0 0 0 0 0 0 0 0 0 0 17 55 87 198 284 61 0 0 0 0 0 0 0 0 0 0 0 0 0 0 0 0 0 0 0 0 0 0 0 0
0 0 0 0 0 0 0 0 0 0 0 0 0 0 8 7 20 98 107 49 0 0 0 0 0 0 0 0 0 0 0 0 0 0 0 0 0 0 0 0 0 0 0 0
0 0 0 0 0 0 0 0 0 0 0 0 0 2 0 4 10 44 125 75 6 0 0 0 0 0 0 0 0 0 0 0 0 0 0 0 0 0 0 0 0 0 0 0
0 0 0 0 0 0 0 0 0 0 0 0 0 0 0 1 4 63 48 78 204 24 1 60 2 0 0 0 0 0 0 0 0 0 0 0 0 0 0 0 0 0 0 0
0 0 0 0 0 0 0 0 0 0 0 0 0 0 0 0 0 5 15 43 73 101 57 45 49 0 0 0 0 0 0 0 0 0 0 0 0 0 0 0 0 0 0 0
0 0 0 0 0 0 0 0 0 0 0 0 0 0 0 0 0 0 4 50 20 34 31 47 41 0 0 0 0 0 0 0 0 0 0 0 0 0 0 0 0 0 0 0
0 0 0 12 0 0 0 0 0 0 0 0 0 0 0 0 0 0 22 25 10 51 60 37 61 92 0 0 0 0 0 0 0 0 0 0 0 0 0 0 0 0 0 0
2 26 11 11 0 0 0 0 0 0 0 0 0 0 0 0 0 13 4 21 30 31 73 71 74 133 71 0 0 0 0 0 0 0 0 0 0 0 0 0 0 0 0 0
36 43 32 11 0 0 0 0 6 2 0 28 5 1 0 0 0 27 0 30 28 30 46 87 139 142 92 18 0 0 0 0 0 0 0 0 0 0 0 0 0 0 0 0
0 24 27 12 0 0 0 0 0 0 13 0 0 0 0 0 0 0 12 20 37 46 74 74 117 172 155 60 4 0 0 0 0 0 0 0 0 0 0 0 0 0 0 0
60 100 1 0 0 0 0 0 0 0 2 1 0 1 0 0 0 0 0 21 42 44 82 86 87 77 106 95 36 4 0 0 0 0 0 0 0 0 0 0 0 0 0 0
40 32 99 15 0 0 0 0 0 0 38 0 0 0 0 0 0 0 0 1 12 38 28 15 71 97 53 67 81 26 0 0 0 0 0 0 0 0 0 0 0 0 0 0
32 22 0 2 1 0 0 4 11 1 0 0 0 0 0 0 9 29 31 20 46 51 33 66 60 73 113 115 98 26 1 0 0 0 0 0 0 0 0 0 0 0 0 0
60 123 75 0 0 0 24 18 2 0 0 0 0 0 0 27 23 12 19 37 85 33 44 38 69 73 119 171 169 111 38 2 0 0 0 0 0 0 0 0 0 0 0 0

GFSCGP_con_mucape_003.txt.gz
CAPE
0 0 0 0 0 0 0 0 0 0 0 0 0 0 0 0 0 0 0 0 0 0 0 0 0 0 0 0 0 0 0 0 0 33 40 94 140 82 138 178 31 64 175 206
0 0 0 0 0 0 0 0 0 0 0 0 0 0 0 0 0 0 0 0 0 0 0 0 0 0 0 0 0 0 0 0 0 2 25 15 38 60 61 85 150 142 68 149
0 0 0 0 0 0 0 0 0 0 0 0 0 0 0 0 0 0 0 0 0 0 0 0 0 0 0 0 0 0 0 0 0 0 17 58 143 73 35 68 14 40 66 70
0 0 0 0 0 0 0 0 0 0 0 0 0 0 0 0 0 0 0 0 0 0 0 0 0 0 0 0 0 0 0 0 0 1 100 139 207 111 71 95 151 198 82 41
0 0 0 0 0 0 0 0 0 0 0 0 0 0 0 0 0 0 0 0 0 0 0 0 0 0 0 0 0 0 0 0 0 34 64 67 85 113 127 136 166 364 237 315
0 0 0 0 0 0 0 0 0 0 0 0 0 0 0 0 0 0 0 0 2 0 0 0 0 0 0 0 0 0 104 0 0 34 20 32 22 45 136 117 106 138 127 328
0 0 0 0 0 0 0 0 0 0 0 0 0 0 0 0 0 0 1 31 17 0 0 0 0 0 0 0 0 0 6 0 0 6 50 28 0 22 62 56 68 89 144 152
0 0 0 0 0 0 0 0 0 0 0 0 0 0 0 0 0 0 2 27 9 1 0 0 0 0 0 0 0 0 0 0 0 0 33 0 0 0 12 181 43 151 126 79
0 0 0 0 0 0 0 0 0 0 0 0 0 0 0 2 28 29 48 13 0 5 0 0 0 0 0 0 0 0 0 0 0 0 0 0 0 0 0 9 42 172 87 123
0 0 0 0 0 0 0 0 0 0 0 0 0 0 1 2 6 74 80 11 4 0 0 0 0 0 0 0 0 0 9 0 0 0 0 0 0 0 0 6 33 44 46 61
0 0 0 0 0 0 0 0 0 0 0 0 0 0 58 135 278 514 129 40 1 0 0 0 0 0 0 0 0 0 14 0 0 0 0 0 0 0 0 0 28 19 5 9
0 0 0 0 0 0 0 0 0 0 0 0 0 0 3 149 395 456 273 119 0 0 0 0 0 0 0 0 0 0 11 0 0 0 0 0 0 0 0 0 0 11 20 7
0 0 0 0 0 0 0 0 0 0 0 0 0 7 2 163 343 184 217 84 2 0 0 0 0 0 0 0 0 0 0 0 0 0 0 0 0 0 0 0 0 0 12 4
0 0 0 0 0 0 0 0 0 0 0 0 0 0 50 226 291 78 51 21 1 0 0 0 0 0 0 0 0 0 0 0 0 0 0 0 0 0 0 0 0 0 0 0
0 0 0 0 0 0 0 0 0 0 0 0 0 0 41 184 310 402 71 36 5 0 0 0 0 0 0 0 0 0 0 0 0 0 0 0 0 0 0 0 0 0 0 0
0 0 0 0 0 0 0 0 0 0 0 0 0 4 121 75 339 198 0 10 6 0 0 0 0 0 0 0 0 0 0 0 0 0 0 0 0 0 0 0 0 0 0 0
0 0 0 0 0 0 0 0 0 0 0 0 0 5 39 212 426 453 23 11 16 73 59 1 7 0 0 0 0 0 0 0 0 0 0 0 0 0 0 0 0 0 0 0
0 2 0 0 0 0 0 0 0 0 0 0 0 0 65 139 427 469 187 7 8 9 41 44 0 0 0 0 0 0 0 0 0 0 0 0 0 0 0 0 0 0 0 0
0 1 217 240 0 0 0 0 0 0 0 0 0 1 22 7 136 177 130 61 6 0 1 11 9 0 0 0 0 0 0 0 0 0 0 0 0 0 0 0 0 0 0 0
0 0 0 60 47 0 0 7 0 0 0 32 23 99 63 1 89 183 267 85 20 2 0 20 30 66 29 0 0 0 0 0 0 0 0 0 0 0 0 0 0 0 0 0
2 8 0 0 40 0 0 0 0 28 34 388 114 174 80 76 424 494 258 166 198 76 8 16 63 65 101 19 0 0 0 0 0 0 0 0 0 0 0 0 0 0 0 0
0 2 0 0 0 0 0 0 26 645 237 266 179 175 188 489 331 151 96 113 91 53 4 16 58 97 126 141 54 0 0 0 0 0 0 0 0 0 0 0 0 0 0 0
5 1 0 0 0 0 8 222 509 464 486 78 339 163 116 194 149 50 73 4 24 107 9 6 54 90 122 148 89 33 0 0 0 0 0 0 0 0 0 0 0 0 0 0
0 52 46 1 0 0 15 55 103 12 0 34 78 79 36 132 35 37 9 3 42 74 8 6 33 66 47 171 155 83 1 0 0 0 0 0 0 0 0 0 0 0 0 0
0 24 72 10 0 0 0 100 81 38 29 67 31 48 74 59 83 79 123 183 108 72 5 0 26 24 38 78 99 71 32 3 0 0 0 0 0 0 0 0 0 0 0 0
33 10 52 16 8 92 129 131 68 74 55 112 166 155 165 166 212 287 308 241 197 117 17 23 46 46 59 64 23 17 8 2 0 0 1 0 0 0 0 0 0 0 0 0

GFSCGP_con_mucape_006.txt.gz
CAPE
0 0 0 0 0 0 0 0 0 0 0 0 0 0 0 0 0 0 0 0 0 0 0 0 0 0 0 0 0 0 0 0 0 105 288 331 379 120 342 160 90 50 272 380
0 0 0 0 0 0 0 0 0 0 0 0 0 0 0 0 0 0 0 0 0 0 0 0 0 0 0 0 0 0 0 0 0 118 439 412 297 124 4 27 52 83 50 317
0 0 0 0 0 0 0 0 0 0 0 0 0 0 0 0 0 0 0 0 0 0 0 0 0 0 0 0 0 0 0 0 32 540 872 710 552 89 483 159 154 124 89 165
0 0 0 0 0 0 0 0 0 0 0 0 0 0 0 0 0 0 1 0 0 0 0 0 0 0 0 0 0 0 0 38 135 397 199 504 649 297 279 542 480 147 241 111
0 0 0 0 0 0 0 0 0 0 0 0 0 0 0 0 0 0 0 34 6 0 0 0 0 0 0 0 0 0 2 30 442 381 136 144 469 971 666 452 405 332 544 340
0 0 0 0 0 0 0 0 0 0 0 0 0 0 0 0 0 0 0 75 39 8 0 0 0 0 0 0 0 0 0 0 180 369 228 167 88 143 268 255 224 172 519 615
0 0 0 0 0 0 0 0 0 4 7 0 0 0 0 0 0 0 3 10 37 15 0 0 0 0 0 0 0 0 0 0 0 37 111 53 162 224 172 192 139 195 224 583
0 0 0 0 0 0 0 0 0 2 6 12 0 0 0 0 0 52 113 215 64 11 0 0 0 0 0 0 0 0 0 0 0 0 1 16 40 38 88 488 242 219 288 86
0 0 0 0 0 0 0 0 0 0 0 3 2 1 0 1 13 80 164 115 25 2 0 0 0 0 0 0 0 0 0 0 0 0 0 0 0 2 99 676 643 308 170 224
0 0 0 0 0 0 0 0 0 0 1 14 8 0 10 30 33 443 326 190 22 2 0 0 0 0 0 0 0 20 1 0 0 0 0 0 0 0 27 219 271 157 110 21
0 0 0 0 0 0 0 0 0 0 3 6 31 45 8 10 111 297 591 314 40 0 0 0 0 0 0 0 0 5 18 0 0 0 0 0 0 0 1 28 71 90 24 60
0 0 0 0 0 0 0 0 0 0 0 0 5 24 11 37 200 562 746 350 46 0 0 0 0 0 0 0 0 0 10 0 0 0 0 0 0 0 0 9 48 96 163 89
0 0 0 0 0 0 0 0 0 0 4 9 13 14 17 82 325 728 800 339 19 0 0 0 0 0 0 0 0 0 1 0 0 0 0 0 0 0 0 0 5 12 46 89
0 0 0 0 0 0 0 0 0 0 9 0 3 5 30 38 181 528 667 377 57 0 0 0 0 0 0 0 0 0 0 0 0 0 0 0 0 0 0 0 0 1 0 6
1 0 0 0 0 0 0 0 0 0 0 1 0 1 0 22 79 215 676 407 61 0 0 0 0 0 0 0 0 0 0 0 0 0 0 0 0 0 0 0 0 0 0 0
19 0 0 0 0 0 0 0 0 0 0 0 0 0 4 17 29 331 632 400 164 2 0 0 0 0 0 0 0 0 0 0 0 0 0 0 0 0 0 0 0 0 0 0
0 0 0 0 0 0 0 0 0 0 0 0 0 0 0 1 101 336 580 385 289 122 8 0 0 0 0 0 0 0 0 0 0 0 0 0 0 0 0 0 0 0 0 0
0 0 0 0 1 0 0 0 0 0 0 0 0 0 0 1 75 202 430 503 465 252 94 25 1 0 0 0 0 0 0 0 0 0 0 0 0 0 0 0 0 0 9 10
15 134 0 69 53 0 0 0 0 0 0 0 0 0 0 6 41 119 293 463 557 559 325 102 39 45 0 0 0 0 0 0 0 0 0 0 0 0 0 0 0 0 0 7
0 124 63 60 104 0 0 0 0 0 0 0 0 0 0 18 192 123 489 483 479 580 490 324 117 58 19 0 0 0 0 0 0 0 0 0 0 0 0 0 0 0 0 0
0 10 110 93 222 5 22 5 6 4 0 13 23 27 19 87 302 87 248 591 453 625 512 496 271 141 417 21 0 0 0 0 0 0 0 0 0 0 0 0 0 0 0 0
6 3 3 124 46 12 40 96 1 17 744 277 383 359 352 508 493 420 523 582 544 676 452 374 325 249 210 70 9 0 0 0 0 0 0 0 0 0 0 0 0 0 0 0
54 18 13 10 10 267 236 58 326 134 169 316 538 577 578 626 592 495 478 546 577 561 523 234 342 285 237 145 96 0 0 0 0 0 0 0 0 0 0 0 0 0 0 0
0 0 16 13 12 29 41 105 340 523 372 400 567 608 647 668 610 538 455 492 483 459 660 361 299 288 290 205 183 147 0 0 0 0 0 0 0 0 0 0 0 0 0 0
3 0 0 0 2 11 0 1 57 392 499 402 372 409 395 410 399 451 444 445 430 401 448 523 305 356 313 191 176 96 8 0 17 22 2 3 0 0 0 0 0 0 15 0
50 23 0 0 3 5 14 5 5 316 388 415 366 384 384 376 402 387 401 488 568 524 505 552 393 403 334 220 175 128 47 2 231 273 56 9 0 0 0 0 0 0 0 0

GFSCGP_con_mucape_009.txt.gz
CAPE
0 0 0 0 0 0 2 21 36 47 54 22 36 6 40 62 3 0 0 0 0 0 0 0 19 5 0 0 16 74 8 91 74 215 498 699 1199 116 152 153 71 124 230 336
0 0 0 0 0 0 1 11 6 6 26 39 31 0 10 0 0 0 0 0 12 18 0 1 44 12 0 0 0 37 18 90 260 627 728 607 557 532 144 396 188 132 165 294
0 0 0 0 0 6 4 0 1 4 32 46 13 0 4 5 0 0 0 0 17 61 33 20 58 37 0 0 0 0 50 306 652 795 764 842 819 599 824 655 355 306 191 285
0 0 0 0 0 0 10 0 0 1 18 28 14 7 7 0 0 0 0 2 22 77 66 36 73 55 0 0 1 0 157 461 657 609 430 691 927 1076 862 829 840 605 251 326
0 0 0 0 0 0 0 0 4 6 4 6 5 1 8 4 15 0 0 3 59 107 75 72 51 53 0 0 0 47 194 454 714 523 522 902 892 826 1032 950 479 700 565 336
0 0 0 0 0 0 0 1 0 6 9 4 5 14 29 24 9 0 0 19 139 118 72 55 54 14 0 0 0 40 123 110 556 526 329 617 604 541 748 159 405 280 681 470
0 0 0 0 0 0 0 0 1 11 69 6 12 3 6 0 0 0 0 71 197 131 76 66 47 0 0 0 0 50 28 0 9 289 157 356 464 536 635 594 178 191 656 160
0 0 0 0 0 0 0 0 0 14 77 142 21 0 25 0 0 0 1 213 361 176 88 65 40 0 0 0 0 0 0 0 0 2 109 124 242 632 470 99 248 228 203 587
0 0 0 0 0 0 0 0 0 6 0 35 85 44 8 0 0 14 106 325 394 205 79 50 20 0 0 0 0 1 2 0 0 0 51 31 87 424 1009 795 681 287 538 602
0 0 0 0 0 0 0 0 0 1 6 65 98 47 49 0 28 268 394 446 341 129 47 29 10 3 0 0 0 5 0 0 0 0 0 0 3 157 254 140 240 430 213 534
0 5 4 0 0 0 0 0 0 4 10 52 146 133 25 5 26 163 495 510 234 98 14 8 13 1 0 0 0 16 3 0 0 0 0 0 1 14 50 157 288 107 549 151
1 0 111 0 0 0 0 0 0 1 1 12 135 207 3 0 4 148 435 496 163 59 5 10 15 1 0 0 0 1 8 0 0 0 0 0 0 2 16 132 273 319 244 186
3 1 114 103 0 0 0 0 0 5 16 50 77 77 16 5 9 90 340 452 139 52 20 20 16 0 0 0 0 0 2 0 0 0 0 0 0 1 0 9 15 275 365 323
157 112 40 14 9 0 0 0 0 0 26 5 33 99 20 17 26 190 281 475 216 71 37 64 28 0 0 0 0 0 0 0 0 0 0 0 0 0 4 0 0 6 58 203
191 229 0 0 1 0 0 0 0 0 0 3 29 15 32 49 59 106 340 467 345 95 58 82 79 0 0 0 0 0 0 0 0 0 0 0 0 0 5 4 5 0 0 0
238 134 0 0 0 2 0 0 0 0 0 0 7 55 15 31 25 114 390 406 400 186 61 95 84 0 0 0 0 0 0 0 0 0 0 0 0 0 0 2 5 0 0 0
55 52 49 0 0 0 34 0 0 0 0 0 0 34 13 19 21 59 209 304 375 296 99 120 132 15 0 0 0 0 0 0 0 0 0 0 0 0 0 0 0 0 2 0
309 328 35 44 3 83 0 0 0 0 0 0 0 2 2 3 26 17 42 348 369 390 154 123 200 94 0 0 0 0 0 0 0 0 0 0 0 0 0 0 0 24 12 17
232 541 40 110 137 13 0 0 0 0 0 0 0 0 0 5 7 16 1 351 377 456 352 152 231 193 0 0 0 0 0 0 0 0 0 0 0 0 0 0 0 77 150 195
43 547 454 84 202 49 0 0 0 0 0 0 0 0 0 1 0 24 42 121 326 443 508 309 265 271 52 0 0 0 0 0 0 0 0 0 0 0 0 0 44 112 76 44
119 289 267 67 275 29 1 21 0 0 0 73 0 0 0 0 2 58 43 140 379 432 585 526 331 616 714 342 254 0 0 0 0 0 0 0 0 0 0 176 213 90 2 18
8 189 226 184 83 65 28 82 0 23 1 17 0 2 0 37 0 16 164 432 445 396 538 520 379 463 759 119 131 18 176 0 0 0 0 0 0 0 0 104 61 0 98 23
175 92 153 190 100 226 91 77 266 83 119 89 212 77 30 84 65 33 184 338 385 433 557 605 655 569 745 574 213 279 340 0 0 0 0 0 0 0 0 16 14 0 26 0
65 156 263 348 431 276 231 192 152 44 125 123 130 230 292 289 214 254 418 410 479 503 636 589 692 645 738 759 443 201 55 0 0 6 8 31 8 0 0 1 0 0 0 0
1 4 97 131 102 111 78 128 178 177 192 425 476 284 236 318 369 316 396 417 510 629 674 578 612 747 733 720 455 215 140 41 172 354 139 193 4 5 41 20 0 0 8 0
0 1 21 115 46 27 37 42 31 133 283 274 224 179 256 253 233 264 278 479 559 556 560 712 642 636 747 753 645 434 226 220 499 591 195 20 0 4 0 0 0 0 0 0

GFSCGP_con_mucape_012.txt.gz
CAPE
0 0 0 0 0 0 0 0 10 53 42 20 25 129 44 46 4 109 168 195 279 186 83 118 134 267 226 262 425 868 345 549 785 989 911 1035 1413 1064 871 728 213 84 170 248
0 0 0 0 0 0 0 0 0 14 28 22 21 36 27 19 69 34 16 108 219 314 73 97 218 363 309 385 487 671 612 536 1131 1216 1276 1042 1073 865 652 682 339 168 131 346
0 0 0 0 0 0 0 0 2 24 27 33 29 41 31 34 48 43 90 4 57 335 134 153 210 368 266 318 381 690 430 708 1112 1295 1258 1115 1054 752 577 584 202 205 233 285
0 0 0 0 0 0 0 0 7 33 27 21 23 31 83 11 35 25 0 37 72 331 241 181 251 397 389 131 335 592 818 961 1106 1290 1159 953 952 969 727 236 571 191 269 304
0 0 0 0 0 0 0 3 29 38 24 29 0 0 0 37 85 49 0 0 170 307 259 186 269 348 203 103 402 753 1088 1110 1228 1226 1379 1124 985 983 898 457 390 162 60 389
0 0 0 0 0 0 0 11 26 17 11 14 0 0 9 16 9 0 0 12 191 261 280 243 312 311 111 5 304 784 1054 883 924 1346 978 809 788 757 774 241 304 506 523 431
0 0 0 0 0 11 0 115 20 35 4 3 0 0 18 89 0 0 0 71 338 314 245 265 254 136 39 0 308 487 770 733 481 1164 898 1003 871 853 704 340 174 462 337 500
0 0 0 0 0 1 12 63 21 6 0 0 54 1 11 0 0 0 0 98 418 315 303 270 226 121 3 0 195 400 525 507 517 602 854 890 843 1046 230 209 437 367 420 564
0 0 0 0 0 0 8 2 0 0 2 5 9 100 40 0 0 0 0 273 679 454 341 292 214 103 20 29 202 510 494 455 423 385 855 709 921 754 848 752 859 442 564 592
0 0 0 0 0 0 48 0 0 0 3 47 3 86 84 0 0 19 323 482 720 481 279 240 131 154 8 62 248 526 388 276 242 277 618 337 809 589 783 1019 1016 424 411 289
0 69 3 0 0 0 0 1 2 26 3 43 103 97 310 73 78 553 465 647 588 327 134 179 76 117 0 5 24 401 303 90 200 75 176 112 651 569 477 619 418 284 189 405
0 1 48 0 0 0 9 0 49 26 110 22 155 69 156 127 26 49 518 540 263 181 117 48 41 50 0 0 49 205 411 0 13 1 49 2 525 591 695 507 696 343 46 230
0 9 165 132 162 35 19 1 16 289 314 292 19 90 144 23 0 41 400 396 227 183 93 56 16 0 0 0 11 28 178 0 0 0 0 5 519 560 475 217 677 680 82 165
103 24 9 146 106 82 74 6 0 0 184 11 44 121 217 13 0 3 263 431 212 201 172 70 69 0 0 0 0 4 94 2 0 0 0 0 350 422 393 284 472 407 543 137
338 14 34 9 53 69 0 0 0 2 21 17 77 44 101 126 26 46 364 510 250 150 122 192 151 2 0 0 0 0 39 0 0 0 0 10 192 283 373 256 174 284 436 256
577 43 5 0 0 54 19 0 0 0 0 0 3 64 117 154 91 96 422 394 225 192 133 157 174 18 0 0 0 0 54 0 0 0 0 0 0 6 378 425 173 69 24 64
447 105 77 2 12 30 116 54 0 0 0 2 15 88 96 63 53 108 570 527 406 330 230 203 234 95 0 0 3 35 72 0 0 0 0 0 0 0 51 78 93 128 340 405
58 290 148 8 147 115 5 27 0 0 0 0 1 36 67 85 75 0 270 446 401 440 337 264 310 296 16 0 0 12 29 0 0 0 0 0 0 0 0 2 135 319 440 473
16 383 172 79 99 23 0 0 35 41 45 18 0 0 0 6 15 105 36 176 520 636 520 369 404 476 66 0 0 0 0 0 0 0 0 0 0 0 0 10 245 504 690 543
43 304 46 179 86 53 24 0 0 3 8 72 35 69 67 16 11 22 208 14 570 580 634 459 501 433 131 76 26 48 10 0 0 0 0 0 0 0 0 195 410 602 844 546
127 292 136 166 417 110 0 0 10 15 0 69 91 174 257 146 100 900 583 247 776 672 699 580 532 415 191 130 76 95 13 15 0 0 0 0 0 0 49 484 413 595 585 277
180 187 352 229 314 108 0 22 64 553 942 497 253 217 265 384 462 397 401 443 675 583 587 596 506 585 360 132 105 104 96 75 0 0 0 0 0 0 30 360 325 357 384 691
57 324 213 171 251 894 612 730 990 791 726 144 391 221 217 217 120 73 422 714 665 601 580 575 611 850 538 186 96 101 237 151 1 0 0 13 0 0 26 168 211 137 257 109
58 69 98 514 526 242 248 397 522 278 402 297 277 271 180 180 139 107 153 702 754 583 731 633 577 807 753 375 190 199 206 102 15 47 108 51 0 0 9 27 85 2 1 0
2 0 6 2 331 499 284 275 301 296 337 241 106 176 241 251 240 298 247 557 414 525 779 726 766 845 935 668 420 314 282 35 51 155 118 98 1 0 35 13 27 1 0 0
0 2 7 40 30 268 321 198 119 253 454 289 430 241 395 418 439 370 508 568 558 631 822 854 1118 1198 1072 958 704 442 338 116 205 273 143 66 5 0 4 0 2 0 0 0

GFSCGP_con_mucape_015.txt.gz
CAPE
0 0 0 0 0 0 0 0 0 0 0 0 0 0 0 2 1 0 31 26 5 7 0 0 4 0 0 0 15 88 117 3 49 202 151 364 183 29 53 62 42 13 0 11
0 0 0 0 0 0 0 0 0 0 0 3 0 0 10 21 7 29 0 2 0 2 0 1 17 0 3 0 0 204 42 100 241 439 268 449 221 216 90 58 59 47 29 18
0 0 0 0 0 0 0 0 0 0 0 0 0 0 0 0 7 0 0 1 0 0 0 5 14 0 0 0 0 38 66 231 474 289 331 109 42 69 57 36 56 40 94 62
0 0 0 0 0 0 0 0 0 0 0 0 0 0 0 0 0 0 0 0 0 0 5 8 34 6 2 0 0 66 133 316 443 228 354 277 72 50 44 7 48 73 103 85
0 0 0 0 0 0 0 0 0 0 0 2 0 0 0 0 0 0 0 0 0 0 13 24 51 9 3 0 1 15 146 364 363 342 302 101 117 101 14 0 6 16 10 143
0 0 0 0 0 0 0 0 0 0 5 0 0 0 0 0 0 0 0 0 4 1 10 36 43 11 0 0 0 128 146 342 381 294 211 100 63 58 1 0 8 41 94 163
0 0 0 0 0 0 0 0 0 0 0 0 0 0 0 0 0 0 0 19 2 0 8 60 54 13 10 0 2 27 66 51 99 129 121 37 32 12 0 0 5 67 105 128
0 0 0 0 0 0 0 0 0 0 0 0 0 0 0 0 0 0 0 20 41 46 57 62 28 2 4 0 10 30 17 3 24 126 99 33 9 64 3 23 116 50 98 144
0 0 0 0 0 0 0 0 0 0 0 0 0 0 4 0 0 0 7 48 51 40 65 50 1 0 0 0 0 0 17 0 6 50 0 97 69 104 132 105 122 102 135 160
0 0 0 0 0 0 0 0 8 0 0 0 0 0 0 2 0 1 74 81 110 122 74 18 0 0 0 0 0 2 1 0 0 5 0 0 116 140 235 206 77 117 53 83
0 0 0 0 0 0 0 0 9 5 0 0 0 0 0 0 4 12 156 157 171 135 42 5 0 0 0 0 0 0 0 0 0 0 0 0 1 68 107 85 56 92 106 123
0 0 0 0 0 0 0 0 1 0 0 0 0 0 0 25 57 68 217 183 191 85 10 0 0 0 0 0 0 0 0 0 0 0 0 0 5 73 99 99 24 42 102 162
0 0 0 0 0 0 0 0 0 0 0 0 0 1 0 0 38 203 216 220 71 44 9 0 0 0 0 0 0 0 0 0 0 0 0 0 0 0 23 116 4 28 74 129
0 0 0 0 0 0 0 0 0 0 0 0 3 3 17 8 30 161 150 138 109 88 0 0 0 0 0 0 0 0 0 0 0 0 0 0 0 0 0 92 52 24 25 43
0 0 0 0 0 0 0 0 0 0 0 0 0 16 0 0 0 119 103 132 120 71 0 0 0 0 0 0 0 0 0 0 0 0 0 0 0 0 0 4 58 63 44 40
0 0 0 0 0 0 0 0 0 0 0 0 0 0 0 0 0 0 78 83 106 82 11 0 0 0 0 0 0 0 0 0 0 0 0 0 0 1 7 0 0 22 23 13
0 0 0 0 0 44 17 2 0 0 0 0 0 0 0 3 0 0 48 67 93 133 65 0 0 0 0 0 0 0 0 0 0 0 0 0 0 0 0 0 0 0 0 0
0 0 0 0 0 4 0 0 0 0 0 0 0 0 0 0 3 8 68 85 134 150 69 1 0 0 0 0 0 0 0 0 0 0 0 0 0 0 0 0 0 0 0 0
0 0 0 0 0 0 0 0 0 0 0 0 0 0 0 0 0 9 134 115 145 89 44 5 0 0 0 0 0 0 0 0 0 0 0 0 0 0 0 0 0 0 0 0
0 0 0 8 0 0 0 0 0 0 0 0 0 0 0 0 0 0 102 93 74 51 34 27 30 3 0 0 0 0 0 0 0 0 0 0 0 0 0 0 0 0 0 0
0 3 1 1 3 0 0 0 1 0 0 0 0 0 0 0 0 0 0 61 96 64 37 80 46 8 2 0 0 0 0 0 0 0 0 0 0 0 0 0 0 11 19 0
9 35 36 22 36 0 0 0 0 0 39 0 0 0 0 0 0 0 146 91 137 144 79 108 40 11 8 0 0 0 0 0 0 0 0 0 0 0 0 14 48 33 106 8
29 1 27 22 6 0 9 53 270 64 0 16 0 0 0 81 12 0 5 127 105 185 103 80 65 42 27 16 13 0 0 0 0 0 0 0 0 0 2 0 54 41 51 122
16 0 0 1 6 13 79 72 99 218 100 12 33 14 0 5 0 0 16 186 181 212 197 111 114 106 92 58 41 0 0 0 0 0 0 0 0 0 1 2 20 21 10 1
5 5 22 27 43 16 67 58 109 145 220 101 36 56 0 0 0 0 286 169 185 205 171 147 158 166 161 118 52 29 0 0 0 0 0 0 0 0 0 0 1 0 0 0
0 39 8 7 0 7 18 95 45 45 58 106 53 9 1 0 0 0 65 214 208 316 237 222 238 192 145 75 42 45 7 0 0 0 0 0 0 0 0 0 0 0 0 0

GFSCGP_con_mucape_018.txt.gz
CAPE
0 0 0 0 0 0 0 0 0 0 0 0 0 0 0 0 0 0 2 0 2 4 15 69 55 81 13 6 16 5 38 34 27 148 146 230 188 40 30 34 60 36 14 0
0 0 0 0 0 0 0 0 0 0 0 0 0 0 0 0 3 5 9 3 1 15 24 19 37 22 2 1 4 90 62 56 207 433 146 339 203 53 59 48 59 36 39 25
0 0 0 0 0 0 0 0 0 0 0 0 0 0 0 0 1 2 0 0 4 0 6 33 26 5 1 0 11 93 43 170 397 218 154 96 9 0 2 5 12 31 78 40
0 0 0 0 0 0 0 0 0 0 0 0 0 0 0 0 0 0 0 0 0 0 9 12 15 0 0 0 17 11 69 281 370 160 153 59 22 34 25 0 0 14 57 52
0 0 0 0 0 0 0 0 0 0 0 0 0 0 0 0 0 0 0 0 0 0 0 0 0 0 1 0 0 16 177 382 265 250 128 0 0 3 0 0 0 9 19 138
0 0 0 0 0 0 0 0 0 0 0 0 0 0 0 0 0 0 0 0 0 0 0 0 5 2 14 0 6 58 122 321 291 160 31 0 0 0 0 0 2 43 97 120
0 0 0 0 0 0 0 0 0 0 0 0 0 0 0 0 0 0 0 0 0 0 0 3 11 9 2 0 0 55 90 190 207 61 0 0 0 0 0 6 39 25 93 131
0 0 0 0 0 0 0 0 0 0 0 0 0 0 0 0 0 0 0 0 4 3 20 40 32 2 0 0 2 48 32 11 36 8 0 0 0 0 14 38 76 43 97 129
0 0 0 0 0 0 0 0 0 0 0 0 0 0 0 0 0 0 0 0 6 30 18 20 34 0 0 0 1 28 16 0 18 0 0 0 24 24 57 78 65 68 133 167
0 0 0 0 0 0 0 0 0 0 0 0 0 0 0 0 0 0 0 0 4 2 1 21 6 0 0 0 0 8 4 0 0 0 0 18 3 87 81 61 47 38 96 164
0 0 0 0 0 0 0 0 0 0 0 0 0 0 0 0 0 0 0 0 0 4 8 23 2 0 0 0 0 2 0 0 0 0 0 3 0 29 24 13 37 38 99 142
0 0 0 0 0 0 0 0 0 0 0 0 0 0 0 0 0 0 3 7 13 4 24 21 0 0 0 0 0 0 0 0 0 0 0 0 0 13 24 4 2 73 94 153
0 0 0 0 0 0 0 0 0 0 0 0 0 0 0 0 0 2 14 33 17 39 17 6 0 0 0 0 0 0 0 0 0 0 0 0 0 1 33 6 4 56 80 133
0 0 0 0 0 0 0 0 0 0 0 0 0 0 0 0 0 21 43 46 40 44 48 3 0 0 0 0 0 0 0 0 0 0 0 0 0 0 7 31 9 11 43 76
0 0 0 0 0 0 0 0 0 0 0 0 0 0 0 0 13 55 63 82 50 52 52 1 0 0 0 0 0 0 0 0 0 0 0 0 0 0 0 31 10 12 1 50
0 0 0 0 0 0 0 0 0 0 0 0 0 0 0 0 19 76 87 108 46 58 74 8 0 0 0 0 0 0 0 0 0 0 0 0 0 0 0 0 18 7 7 66
0 0 0 0 0 0 0 0 0 0 0 0 0 0 0 0 0 65 98 86 46 77 83 0 0 0 0 0 0 0 0 0 0 0 0 0 0 0 0 0 0 0 0 0
0 0 0 0 0 0 0 0 0 0 0 0 0 0 0 0 0 4 52 73 75 71 90 0 0 0 0 0 0 0 0 0 0 0 0 0 0 0 0 0 0 0 0 0
0 0 0 0 0 0 0 0 0 0 0 0 0 0 0 0 0 0 13 58 64 56 94 5 0 0 0 0 0 0 0 0 0 0 0 0 0 0 0 0 0 0 0 0
5 0 0 0 0 0 0 0 0 0 0 0 0 0 0 0 0 0 0 23 65 77 91 12 5 0 0 0 0 0 0 0 0 0 0 0 0 0 0 0 0 0 0 0
6 0 0 5 0 0 0 0 3 0 0 0 0 0 0 0 0 0 0 19 85 122 87 15 14 1 0 0 0 0 0 0 0 0 0 0 0 0 0 0 0 0 0 0
16 1 0 40 9 0 0 8 26 2 0 0 0 0 0 0 0 0 1 28 101 134 70 16 19 10 0 1 0 0 0 0 0 0 0 0 0 0 0 0 0 0 0 0
27 4 5 17 29 14 0 0 0 19 1 0 0 0 0 0 0 0 0 49 106 121 51 22 44 9 0 5 0 0 0 0 0 0 0 0 0 0 0 0 0 0 0 0
35 14 41 16 46 24 1 0 0 8 9 0 0 0 0 0 0 0 0 0 73 109 56 42 41 21 1 1 0 0 0 0 0 0 0 0 0 0 0 0 0 0 0 0
0 0 14 12 20 31 5 0 2 61 81 11 0 0 0 0 0 0 0 0 10 60 48 104 59 30 19 0 3 0 0 0 0 0 0 0 0 0 0 0 0 0 1 9
0 2 16 28 0 9 3 0 1 46 130 48 51 2 0 0 0 0 14 1 15 52 54 130 86 93 101 78 31 17 0 0 0 0 0 0 0 0 0 0 0 0 0 0

GFSCGP_con_mucape_021.txt.gz
CAPE
0 0 0 0 0 0 0 0 0 0 0 0 0 0 0 0 0 0 0 0 0 3 14 17 33 50 21 28 11 21 6 35 12 97 154 170 201 135 55 7 17 38 27 4
0 0 0 0 0 0 0 0 0 0 0 0 0 0 0 0 0 0 0 0 0 5 12 23 31 16 31 18 5 0 2 4 107 367 156 229 124 18 5 18 15 28 42 24
0 0 0 0 0 0 0 0 0 0 0 0 0 0 0 0 0 0 0 1 0 1 3 12 23 34 12 0 0 10 2 91 347 170 142 90 5 0 0 0 0 1 38 58
0 0 0 0 0 0 0 0 0 0 0 0 0 0 0 0 0 0 0 0 0 3 0 0 19 5 0 0 5 5 38 280 248 144 121 3 0 0 0 0 0 0 27 46
0 0 0 0 0 0 0 0 0 0 0 0 0 0 0 0 0 0 0 0 0 0 0 0 0 0 0 0 6 10 96 313 217 209 106 0 0 0 0 0 0 0 9 68
0 0 0 0 0 0 0 0 0 0 0 0 0 0 0 0 0 0 0 0 0 0 0 0 0 0 0 0 0 9 201 283 220 182 35 0 0 0 0 2 9 4 55 70
0 0 0 0 0 0 0 0 0 0 0 0 0 0 0 0 0 0 0 0 0 0 0 0 0 0 0 0 0 26 86 260 232 80 2 0 0 0 0 40 55 21 65 81
0 0 0 0 0 0 0 0 0 0 0 0 0 0 0 0 0 0 0 0 0 0 0 0 0 0 0 0 0 9 44 117 121 28 0 0 0 0 33 58 61 42 73 88
0 0 0 0 0 0 0 0 0 0 0 0 0 0 0 0 0 0 0 0 0 0 0 0 0 0 0 0 0 6 14 5 29 10 0 0 0 14 70 66 39 66 107 119
0 0 0 0 0 0 0 0 0 0 0 0 0 0 0 0 0 0 0 0 0 0 0 0 0 0 0 0 0 0 8 0 14 0 0 0 0 47 39 13 26 21 84 99
0 0 0 0 0 0 0 0 0 0 0 0 0 0 0 0 0 0 0 0 0 0 0 0 0 0 0 0 0 0 10 0 3 0 0 0 0 0 5 0 17 23 93 118
0 0 0 0 0 0 0 0 0 0 0 0 0 0 0 0 0 0 0 0 0 3 0 0 0 0 0 0 0 0 10 0 0 0 0 0 0 0 0 0 19 29 82 91
0 0 0 0 0 0 0 0 0 0 0 0 0 0 0 0 0 0 0 0 0 0 0 0 0 0 0 0 0 0 0 0 0 0 0 0 0 0 0 0 15 30 46 70
0 0 0 0 0 0 0 0 0 0 0 0 0 0 0 0 0 0 0 0 0 0 0 0 0 0 0 0 0 0 0 0 0 0 0 0 0 0 12 1 0 17 34 39
0 0 0 0 0 0 0 0 0 0 0 0 0 0 0 0 0 0 0 0 0 0 0 0 0 0 0 0 0 0 0 0 0 0 0 0 0 0 15 5 0 0 21 52
0 0 0 0 0 0 0 0 0 0 0 0 0 0 0 0 0 0 0 4 0 0 0 0 0 0 0 0 0 0 0 0 0 0 0 0 0 0 0 0 0 0 14 46
0 0 0 0 0 0 0 0 0 0 0 0 0 0 0 0 0 0 1 12 0 0 0 0 0 0 0 0 0 0 0 0 0 0 0 0 0 0 0 0 0 0 2 22
0 0 0 0 0 0 0 0 0 0 0 0 0 0 0 0 0 0 10 23 20 1 0 0 0 0 0 0 0 0 0 0 0 0 0 0 0 0 0 0 0 0 0 0
0 0 0 0 0 0 0 0 0 0 0 0 0 0 0 0 0 0 16 29 44 9 11 2 0 0 0 0 0 0 0 0 0 0 0 0 0 0 0 0 0 0 0 1
0 0 0 0 0 0 0 0 0 0 0 0 0 0 0 0 0 0 15 41 34 19 22 30 0 0 0 0 0 0 0 0 0 0 0 0 0 0 0 0 0 0 0 0
0 0 0 0 0 0 0 0 0 0 0 0 0 0 0 0 0 0 0 2 24 12 20 30 0 0 0 0 0 0 0 0 0 0 0 0 0 0 0 0 0 0 0 0
0 0 0 15 0 0 0 0 0 0 0 0 0 0 0 0 0 0 0 0 0 9 21 38 3 0 0 0 0 0 0 0 0 0 0 0 0 0 0 0 0 0 0 0
0 1 1 9 10 0 0 0 0 0 0 0 0 0 0 0 0 0 0 0 0 8 24 52 22 0 0 0 0 0 0 0 0 0 0 0 0 0 0 0 0 0 0 0
0 0 3 1 30 0 0 0 0 0 0 0 0 0 0 0 0 0 0 0 0 6 32 60 29 1 0 0 0 0 0 0 0 0 0 0 0 0 0 0 0 0 0 0
0 0 5 0 31 16 0 0 0 3 0 0 0 0 0 0 0 0 0 0 0 5 20 72 18 1 0 0 0 0 0 0 0 0 0 0 0 0 0 0 0 0 0 0
0 0 1 65 21 13 0 0 0 0 0 0 0 0 0 0 0 0 0 0 0 0 28 64 13 2 4 1 0 0 0 0 0 0 0 0 0 0 0 0 0 0 0 0

GFSCGP_con_mucape_024.txt.gz
CAPE
0 0 0 0 0 0 0 0 0 0 0 0 0 0 0 0 0 0 0 0 0 0 0 0 0 0 23 26 11 0 0 0 2 0 29 47 135 101 36 34 34 32 10 2
0 0 0 0 0 0 0 0 0 0 1 0 0 0 0 0 0 0 0 0 0 0 0 0 0 4 20 27 4 0 0 0 0 53 87 105 87 9 0 0 37 28 1 15
0 0 0 0 0 0 0 0 0 0 0 0 0 0 0 0 0 0 0 0 0 0 0 0 0 2 10 5 0 0 0 0 64 109 59 33 0 0 0 0 0 0 2 25
0 0 0 0 0 0 0 0 0 2 1 0 0 0 0 0 0 0 0 0 0 0 0 0 0 0 0 0 0 0 0 25 97 56 55 0 0 0 0 0 0 0 0 16
0 0 0 0 0 0 0 0 0 0 0 0 0 0 0 0 0 0 0 0 0 0 0 0 0 0 0 0 0 0 0 109 78 124 61 0 0 0 0 0 0 0 6 17
0 0 0 0 0 0 0 0 0 0 0 0 0 0 0 0 0 0 0 0 0 0 0 0 0 0 0 0 0 0 6 136 100 101 8 0 0 0 0 0 7 1 33 49
0 0 0 0 0 0 0 0 0 0 0 0 0 0 0 0 0 0 0 0 0 0 0 0 0 0 0 0 0 0 18 121 106 31 0 0 0 0 0 10 38 20 45 56
0 0 0 0 0 0 0 0 0 0 0 0 0 0 0 0 0 0 0 0 0 0 0 0 0 0 0 0 0 0 10 115 130 0 0 0 0 0 10 16 21 45 67 50
0 0 0 0 0 0 0 0 0 0 0 0 0 0 0 0 0 0 0 0 0 0 0 0 0 0 0 0 0 0 0 33 54 0 0 0 0 8 18 8 20 58 91 57
0 0 0 0 0 0 0 0 0 0 0 0 0 0 0 0 0 0 0 0 0 0 0 0 0 0 0 0 0 0 0 0 0 0 0 0 0 10 6 8 9 44 71 67
0 0 0 0 0 0 0 0 0 0 0 0 0 0 0 0 0 0 0 0 0 0 0 0 0 0 0 0 0 0 0 0 0 0 0 0 0 0 0 0 4 34 57 39
0 0 0 0 0 0 0 0 0 0 0 0 0 0 0 0 0 0 0 0 0 0 0 0 0 0 0 0 0 0 0 0 0 0 0 0 0 0 0 0 12 26 33 57
0 0 0 0 0 0 0 0 0 0 0 0 0 0 0 0 0 0 0 0 0 0 0 0 0 0 0 0 0 0 0 0 0 0 0 0 0 0 0 0 12 16 15 45
0 0 0 0 0 0 0 0 0 0 0 0 0 0 0 0 0 0 0 0 0 0 0 0 0 0 0 0 0 0 0 0 0 0 0 0 0 0 0 0 14 17 0 8
0 0 0 0 0 0 0 0 0 0 0 0 0 0 0 0 0 0 0 0 0 0 0 0 0 0 0 0 0 0 0 0 0 0 0 0 0 0 0 0 8 22 21 21
0 0 0 0 0 0 0 0 0 0 0 0 0 0 0 0 0 0 0 0 0 0 0 0 0 0 0 0 0 0 0 0 0 0 0 0 0 0 0 0 0 14 32 26
0 0 0 0 0 0 0 0 0 0 0 0 0 0 0 0 0 0 0 0 2 1 0 0 0 0 0 0 0 0 0 0 0 0 0 0 0 0 0 0 0 0 9 37
0 0 0 0 0 0 0 0 0 0 0 0 0 0 0 0 0 0 0 0 0 2 0 0 0 0 0 0 0 0 0 0 0 0 0 0 0 0 0 0 0 0 0 7
0 0 0 0 0 0 0 0 0 0 0 0 0 0 0 0 0 0 0 0 0 7 0 0 0 0 0 0 0 0 0 0 0 0 0 0 0 0 0 0 0 0 0 0
0 0 0 0 0 0 0 0 0 0 0 0 0 0 0 0 0 0 0 0 0 0 2 3 0 0 0 0 0 0 0 0 0 0 0 0 0 0 0 0 0 0 0 0
0 0 0 0 0 0 0 0 0 0 0 0 0 0 0 0 0 0 0 0 1 0 4 6 0 0 0 0 0 0 0 0 0 0 0 0 0 0 0 0 0 0 0 0
0 0 0 0 0 0 0 0 0 0 0 0 0 0 0 0 0 0 0 0 0 0 0 0 1 0 0 0 0 0 0 0 0 0 0 0 0 0 0 0 0 0 0 0
0 0 0 0 0 0 0 0 0 0 0 0 0 0 0 0 0 0 0 0 0 0 0 0 5 0 0 0 0 0 0 0 0 0 0 0 0 0 0 0 0 0 0 0
0 0 0 0 0 0 0 0 0 0 0 0 0 0 0 0 0 0 0 0 0 0 0 0 3 0 0 0 0 0 0 0 0 0 0 0 0 0 0 0 0 0 0 0
0 0 0 0 0 1 0 0 0 0 0 0 0 0 0 0 0 0 0 0 0 0 0 0 3 0 0 0 0 0 0 0 0 0 0 0 0 0 0 0 0 0 0 0
0 0 0 1 0 6 0 0 0 0 0 0 0 0 0 0 0 0 0 0 0 0 0 0 0 26 3 0 0 0 0 0 0 0 0 0 0 0 0 0 0 0 0 0

GFSCGP_con_mucape_027.txt.gz
CAPE
0 0 0 0 0 0 0 0 0 0 0 0 0 0 0 0 0 0 0 0 0 0 0 0 0 0 0 2 11 100 171 265 208 155 232 253 453 546 497 450 380 337 418 446
0 0 0 0 0 0 0 0 0 0 0 0 0 0 0 0 0 0 0 0 0 0 0 0 0 0 0 1 8 59 199 192 172 323 300 453 573 475 364 329 360 316 430 503
0 0 0 0 0 0 0 0 0 0 0 0 0 0 0 0 0 0 0 0 0 0 0 0 0 0 0 0 1 108 164 160 155 352 376 385 198 172 299 268 193 200 105 400
0 0 0 0 0 0 0 0 0 0 0 0 0 0 0 0 0 0 0 0 0 0 0 0 0 0 0 0 6 73 132 141 338 378 437 477 171 69 135 120 81 173 85 226
0 0 0 0 0 0 0 0 0 0 0 0 0 0 0 0 0 0 0 0 0 0 0 0 0 0 0 0 3 45 92 364 332 367 343 184 120 53 25 0 107 254 333 243
0 0 0 0 0 0 0 0 0 0 0 0 0 0 0 0 0 0 0 0 0 0 0 0 0 0 0 0 1 52 227 369 316 348 209 56 18 29 89 205 405 275 293 330
0 0 0 0 0 0 0 0 0 0 0 0 0 0 0 0 0 0 0 0 0 0 0 0 0 0 0 0 22 89 285 339 298 325 161 23 23 27 148 285 298 325 343 525
0 0 0 0 0 0 0 0 0 0 0 0 0 0 0 0 0 0 0 0 0 0 0 0 0 0 0 8 33 69 274 384 303 287 181 108 83 112 154 286 327 349 404 530
0 0 0 0 0 0 0 0 0 0 0 0 0 0 0 0 0 0 0 0 0 0 0 0 0 0 0 10 67 194 230 343 370 268 188 172 145 271 421 299 342 448 565 527
0 0 0 0 0 0 0 0 0 0 0 0 0 0 0 0 0 0 0 0 0 0 0 0 0 0 0 4 98 140 217 258 309 212 136 159 192 216 94 239 157 457 581 617
0 0 0 0 0 0 0 0 0 0 0 0 0 0 0 0 0 0 8 0 0 0 0 0 0 0 0 1 4 73 105 69 156 141 54 145 220 98 42 243 165 429 629 561
0 0 0 0 0 0 0 0 0 0 0 0 0 0 0 0 0 0 0 0 0 0 0 0 0 0 0 0 0 50 64 23 82 68 7 179 171 42 94 253 248 455 553 413
0 0 0 0 0 0 0 0 0 0 0 0 0 0 0 0 0 0 0 0 0 0 0 0 0 0 0 0 0 14 29 21 20 0 15 180 169 60 115 316 361 421 513 372
0 0 0 0 0 0 0 0 0 0 0 0 0 0 0 0 0 0 0 0 0 0 0 0 0 0 0 0 0 0 13 4 0 0 11 125 121 82 44 255 339 362 413 370
0 0 0 0 0 0 0 0 0 0 0 0 0 0 0 0 0 0 0 0 0 0 0 0 0 0 0 0 0 0 3 0 0 0 11 15 9 58 64 194 280 318 309 279
0 0 0 0 0 0 0 0 0 0 0 0 0 0 0 0 0 0 0 0 0 0 0 0 0 0 0 0 0 0 0 0 0 0 0 0 21 51 95 148 335 423 283 64
0 0 0 0 0 0 0 0 0 0 0 0 0 0 0 0 0 0 0 0 0 0 0 0 0 0 0 0 0 0 0 0 0 0 0 0 4 21 45 38 124 283 216 266
0 0 0 0 0 0 0 0 0 0 0 0 0 0 0 0 0 0 3 4 6 1 5 0 0 0 0 0 0 0 0 0 0 0 0 0 0 37 16 10 0 4 47 93
0 0 0 0 0 0 0 0 0 0 0 0 0 0 0 0 0 0 0 2 30 109 49 18 0 0 0 0 0 0 0 0 0 0 0 0 0 35 0 0 0 0 32 176
0 0 0 0 0 0 0 0 0 0 0 0 0 0 0 0 0 0 0 2 7 22 14 1 0 0 0 0 0 0 0 0 0 0 0 0 0 2 0 0 0 0 13 37
0 0 0 0 0 0 0 0 0 0 0 0 0 0 0 0 0 0 0 25 29 10 18 0 0 0 0 0 0 0 0 0 0 0 0 0 1 0 13 0 0 0 0 5
0 0 0 0 0 0 0 0 0 0 0 0 0 0 0 0 0 0 0 0 4 0 6 0 0 0 0 0 0 0 0 0 0 0 0 0 11 0 0 0 0 0 40 64
0 0 0 0 0 0 0 0 0 0 0 0 0 0 0 0 0 0 0 0 5 6 7 0 2 0 0 0 0 0 0 0 0 0 0 0 0 0 0 0 0 0 4 24
0 0 0 0 0 0 0 0 0 0 0 0 0 0 0 0 0 0 0 0 0 0 3 0 0 0 0 0 0 0 0 0 0 0 0 0 0 0 0 0 0 0 0 0
0 0 0 0 0 3 2 0 0 0 1 0 0 0 0 0 0 0 0 0 0 0 0 0 0 0 0 0 0 0 0 0 0 0 0 0 0 0 0 0 0 0 0 0
0 0 0 0 0 0 0 0 0 0 1 0 0 1 0 0 0 0 0 0 0 0 0 0 0 5 2 0 0 0 0 0 0 0 0 0 0 0 0 0 0 0 0 0

GFSCGP_con_mucape_030.txt.gz
CAPE
0 0 0 0 0 0 0 0 0 0 0 0 0 0 0 0 0 0 0 0 0 0 0 0 0 0 0 13 89 196 338 635 600 559 446 422 313 478 728 791 888 842 935 712
0 0 0 0 0 0 0 0 0 0 1 0 0 0 4 2 0 0 0 0 0 0 0 0 0 0 12 63 167 311 459 697 584 481 426 300 469 599 620 663 776 828 841 605
0 0 0 0 0 0 0 0 0 0 0 1 0 0 0 0 0 0 0 0 0 0 0 9 0 24 45 113 265 348 574 674 558 521 571 850 765 601 545 664 709 781 713 651
0 0 0 0 0 0 0 0 0 0 0 0 0 0 0 0 0 0 0 0 0 0 0 17 22 54 117 180 253 446 561 665 606 591 578 558 320 265 340 356 443 556 592 553
0 0 0 0 0 0 0 0 0 0 0 0 0 0 0 0 0 0 0 0 0 0 0 22 51 108 101 164 301 460 573 447 627 689 620 618 369 361 366 296 610 898 761 492
0 0 0 0 0 0 0 0 0 0 0 0 0 0 0 0 10 0 0 0 0 28 20 54 67 73 140 182 303 426 411 636 701 834 768 529 593 454 486 542 834 878 813 839
0 0 0 0 0 0 0 0 0 0 0 0 0 0 0 0 0 0 0 0 25 43 100 119 95 121 157 197 268 298 454 604 738 760 626 538 632 650 718 677 612 728 871 926
0 0 0 0 0 0 0 0 0 0 0 0 0 0 0 0 0 0 0 0 13 56 168 185 136 186 167 182 233 224 419 450 573 572 570 596 709 582 615 600 641 548 959 735
43 9 0 0 0 0 0 0 0 0 0 0 0 0 0 0 0 0 0 0 4 101 220 197 191 202 169 231 284 353 342 303 411 485 549 697 691 664 533 695 748 902 826 632
35 0 8 0 0 0 0 0 0 0 0 0 0 0 0 0 0 0 0 0 0 190 191 190 217 194 195 266 361 337 164 285 420 496 415 554 591 497 403 632 579 735 807 525
9 0 48 6 0 0 0 0 0 0 0 0 0 0 0 0 0 0 6 17 212 212 189 200 179 176 207 268 306 156 189 330 445 405 354 463 551 400 373 542 446 755 824 663
35 54 31 0 0 0 0 0 0 0 0 0 0 0 0 0 13 0 10 240 225 180 180 155 133 148 216 274 153 100 153 147 282 225 143 353 504 310 451 503 519 591 681 598
0 42 91 0 11 0 0 0 0 0 0 0 0 0 0 0 5 11 122 116 169 186 163 142 115 113 191 220 56 20 71 46 70 13 48 342 460 353 502 544 636 615 702 518
24 6 56 33 0 0 0 0 0 0 0 0 0 0 0 0 7 13 133 157 197 219 203 184 120 116 171 132 6 0 16 33 26 0 9 209 369 362 502 558 521 631 614 529
50 0 33 0 0 0 0 0 0 0 0 0 0 0 0 0 0 3 78 205 238 272 238 204 133 152 182 89 0 0 2 23 2 0 6 141 358 407 431 565 523 447 500 469
0 37 15 0 0 0 0 0 0 0 0 0 0 0 0 0 0 0 51 194 324 351 269 212 144 179 201 68 0 0 0 9 0 0 3 40 272 333 532 647 571 524 340 388
0 0 14 0 0 0 0 0 0 0 0 0 0 0 0 0 0 0 6 179 354 435 337 244 183 241 275 79 0 3 0 7 5 0 0 75 249 256 472 518 555 538 433 76
1 0 7 35 0 0 54 4 0 0 0 0 0 0 0 0 0 0 0 106 269 485 418 320 275 300 354 95 1 5 0 2 1 0 0 131 149 98 418 459 644 764 353 111
0 0 41 0 0 14 55 18 1 0 0 0 0 0 0 0 0 0 0 0 168 495 570 443 372 356 402 110 6 3 1 0 0 0 0 11 94 64 200 47 278 795 910 563
0 0 1 30 0 0 91 2 0 0 2 0 0 0 0 0 0 0 72 213 28 379 640 585 458 412 448 133 29 13 3 0 0 0 0 0 3 65 50 19 275 779 808 545
0 0 0 0 30 61 5 0 0 0 0 0 0 0 0 0 0 0 0 0 158 297 550 654 542 520 536 159 54 23 0 0 0 0 0 0 90 44 79 58 635 815 639 487
0 0 0 0 0 0 0 3 13 5 0 0 0 0 0 0 0 0 0 0 22 365 470 616 577 601 545 202 65 2 0 0 0 0 0 0 149 1 67 38 695 742 653 589
190 40 50 17 38 6 0 0 0 0 0 0 0 0 0 0 0 0 79 56 46 291 432 529 555 614 543 241 53 6 1 0 0 0 0 0 6 63 28 33 453 758 824 461
28 39 0 67 43 0 0 0 0 0 0 0 0 0 0 0 0 30 163 327 319 53 417 549 556 588 557 311 75 5 2 0 0 0 0 0 2 110 167 3 10 258 448 260
0 0 0 41 21 26 8 0 0 0 0 0 0 0 0 0 30 153 267 214 228 97 363 584 567 605 539 368 163 75 0 0 0 12 35 13 0 11 264 156 0 0 79 19
0 0 0 0 0 0 1 3 0 0 0 0 0 0 0 0 6 187 476 486 246 113 215 478 634 636 494 333 209 163 37 0 0 43 58 30 0 6 9 180 77 0 0 0

GFSCGP_con_mucape_033.txt.gz
CAPE
0 0 0 0 0 0 0 0 0 0 1 16 0 18 68 4 0 0 2 3 0 0 0 0 0 129 59 241 573 673 683 1892 1638 1016 714 685 590 709 515 689 780 1003 979 1123
0 0 0 0 0 0 0 0 0 0 1 26 34 12 31 7 0 0 1 2 0 0 0 0 182 201 158 411 522 586 662 1341 1344 955 1178 645 632 439 720 695 911 962 908 1352
0 0 0 0 0 0 0 0 0 0 0 5 20 21 0 0 2 0 0 0 2 0 0 0 293 352 394 461 599 638 850 1036 1426 1427 1023 749 825 799 656 577 794 976 890 899
0 0 0 0 0 0 0 0 0 0 0 4 12 6 0 0 0 0 0 17 10 0 0 0 535 515 539 562 618 797 975 970 795 931 1120 1243 577 387 532 567 333 812 639 720
0 0 0 0 0 0 0 0 0 0 0 0 0 0 0 0 0 0 10 18 2 0 0 60 463 565 568 556 647 896 949 808 898 794 827 765 563 219 332 306 632 981 1038 985
0 0 0 0 0 0 0 0 0 5 0 0 0 1 0 0 0 0 6 31 5 0 1 197 463 580 534 563 731 813 859 820 827 664 750 838 537 492 485 618 816 1149 1457 1308
0 0 0 0 0 0 0 0 0 1 0 0 0 4 0 0 0 0 0 2 1 0 237 472 579 504 575 630 668 715 709 875 790 777 622 576 649 671 677 803 1139 1052 1311 1229
0 0 0 0 0 0 0 0 0 0 0 0 0 0 0 0 0 0 0 0 0 207 394 534 539 590 524 609 598 546 792 751 719 593 521 527 559 548 847 814 1176 1112 1032 1031
14 0 0 0 0 0 0 1 0 0 0 0 2 44 10 0 0 0 0 0 0 320 562 607 596 565 572 579 575 713 676 637 537 447 486 465 505 692 761 804 1085 1032 906 776
114 0 0 3 0 0 0 0 0 0 0 1 31 52 73 0 0 0 0 0 0 365 581 592 606 584 546 563 602 675 572 521 384 376 390 508 1133 622 446 914 875 957 805 408
68 134 98 1 26 0 0 4 0 0 0 3 39 74 28 0 0 1 0 0 0 494 574 598 581 562 555 575 579 561 323 315 356 352 310 580 919 488 512 692 637 789 735 378
176 111 143 77 64 3 0 1 0 0 0 8 39 59 0 0 0 21 70 45 78 586 571 599 538 536 576 577 544 252 287 272 290 244 208 315 852 266 609 462 740 720 690 390
140 183 61 174 104 37 15 6 2 5 43 42 49 93 0 1 35 22 176 257 607 543 558 493 493 522 536 554 297 165 141 150 196 99 52 290 445 663 675 597 602 662 613 286
35 67 31 116 150 32 25 12 16 26 48 59 1 0 0 14 94 175 317 507 521 573 484 476 502 501 500 411 113 55 44 61 97 8 66 266 837 539 680 533 579 801 632 457
23 58 5 26 22 56 49 21 17 34 30 49 29 0 0 96 154 152 373 447 487 429 440 490 466 494 510 282 37 44 42 58 18 9 53 315 750 624 676 403 512 654 584 266
11 81 1 0 13 15 35 26 28 20 29 31 8 0 0 0 2 41 221 410 443 466 451 464 435 485 496 206 7 38 51 40 4 29 72 301 633 309 713 604 601 620 604 458
35 92 144 0 0 8 19 37 28 26 40 13 0 0 0 0 0 0 193 405 439 513 451 509 476 522 519 172 7 46 49 32 16 31 173 289 530 367 698 519 454 304 565 555
27 16 121 0 0 119 45 36 14 20 13 5 0 0 0 0 0 23 164 361 406 523 514 596 534 607 560 146 11 38 35 13 18 34 151 375 293 327 560 654 685 628 261 262
0 0 61 4 72 181 68 128 48 42 22 12 18 0 0 0 0 7 234 296 398 605 670 674 594 689 626 148 17 29 37 1 13 26 106 333 223 505 604 542 855 980 573 691
0 0 59 0 183 30 78 100 76 110 120 22 0 7 21 47 0 146 108 247 601 511 779 781 685 726 685 172 27 52 36 0 5 13 6 221 234 202 318 344 964 1109 844 748
1 24 23 77 170 209 35 77 58 57 21 3 0 0 0 0 10 26 23 94 170 669 784 908 797 823 803 191 39 41 44 0 0 1 0 92 174 253 388 297 1167 982 690 685
9 4 39 44 108 249 9 140 156 40 20 9 4 0 0 0 1 0 11 59 76 448 659 953 924 902 883 190 44 43 55 0 0 3 0 36 193 131 334 372 1092 1131 908 617
102 126 291 267 127 0 0 0 24 3 13 23 22 11 5 11 37 87 141 295 306 319 684 894 992 999 965 275 26 38 60 2 0 0 2 24 288 87 172 326 884 862 881 252
13 16 128 188 1 25 0 0 0 0 0 11 20 10 6 5 66 258 352 468 596 394 793 927 1046 1070 1031 439 44 16 21 2 0 1 35 32 326 99 105 64 482 581 399 21
0 23 53 21 0 10 19 0 0 0 0 0 7 3 4 2 41 248 488 643 593 614 588 900 1044 1134 1096 619 143 3 3 0 15 36 50 62 162 268 157 56 78 187 334 29
35 0 19 0 0 0 0 0 0 0 0 0 0 0 3 1 0 178 529 784 840 627 499 845 1003 1118 1127 751 257 0 0 0 170 226 43 38 37 117 388 109 0 0 4 0

GFSCGP_con_mucape_036.txt.gz
CAPE
0 0 0 0 0 0 0 0 0 0 0 1 12 1 0 4 48 5 3 3 0 0 17 84 188 635 852 842 1543 2511 2370 2629 2314 2308 1863 1487 1145 1350 1150 1319 1488 1495 1539 1357
0 0 0 0 0 0 0 0 0 0 0 0 21 9 1 26 4 8 25 3 0 0 107 182 435 1106 1156 1434 1835 1850 1801 2691 2209 2045 1630 1248 1174 953 1054 1183 1693 1554 1438 1540
0 0 0 0 0 0 0 0 0 0 0 0 0 1 1 0 6 23 5 0 10 16 0 0 461 1133 1066 1230 1406 1423 1848 2192 1960 1762 1662 2413 1868 1920 1608 1330 1269 1519 1123 1164
0 0 0 0 0 0 0 0 0 0 0 0 0 4 0 0 0 5 5 9 13 0 6 86 540 1152 1164 995 1089 1363 1806 1788 1758 2262 1802 1910 1466 1139 1292 1542 1237 1478 1298 1148
0 0 0 0 0 0 0 0 0 0 0 2 0 1 0 0 0 0 0 0 0 0 83 176 985 1154 955 1065 1135 1388 1645 1529 1901 1858 1668 1922 1806 1675 1499 1220 1332 1437 1397 866
0 0 0 0 0 0 0 0 0 0 0 14 0 0 0 0 0 0 0 0 0 55 69 172 1050 1005 981 991 1162 1463 1439 1672 1569 1650 2256 1957 1863 1554 1517 1363 1328 1277 1525 1442
0 0 0 0 0 0 0 3 0 0 0 0 0 0 0 0 0 0 0 0 0 86 106 815 1018 907 943 1056 1280 1344 1329 1426 1415 1544 1567 1368 1509 1083 1098 1259 1370 1256 1314 1184
0 0 0 0 0 0 0 0 0 0 0 0 0 0 0 0 0 0 1 0 20 56 807 947 965 938 891 1116 1162 1095 1215 1275 1266 1265 1268 1422 1479 1194 1396 1516 1260 1140 1169 1164
0 0 0 0 0 0 0 0 0 1 0 0 0 0 0 0 0 0 0 7 48 642 935 954 901 926 930 1077 1121 1078 1207 1175 1161 1175 1377 1295 1366 1294 1327 1496 1429 917 1401 1123
0 0 0 2 0 0 0 0 0 5 0 0 0 0 2 34 53 22 15 11 95 839 855 825 885 958 1023 1048 1157 1296 1236 1153 1031 981 1008 938 1356 496 815 984 1214 1053 1034 583
27 32 0 12 0 0 0 0 0 0 0 0 0 0 83 219 27 0 0 0 96 810 826 877 782 1010 990 933 975 1221 1073 870 778 911 1113 942 1190 686 1017 1126 1081 1147 1030 695
67 108 37 19 44 2 19 4 5 0 0 2 0 0 49 1 0 0 9 0 392 766 772 777 826 867 864 907 962 1045 830 501 572 660 735 854 619 889 982 1115 1021 1169 1049 654
33 112 60 42 49 52 36 9 12 17 107 10 0 0 19 5 0 6 144 8 527 801 749 736 745 781 830 900 804 417 508 468 393 355 633 705 1046 893 1039 867 987 972 812 623
15 13 0 69 57 52 72 61 13 24 35 0 10 27 4 12 54 201 408 567 757 765 734 787 786 803 850 837 409 275 261 321 348 224 453 1054 1096 1074 913 976 1040 1029 660 556
0 53 36 0 0 75 26 22 35 26 25 10 15 27 4 92 299 514 891 950 762 697 748 870 817 891 884 686 281 122 154 217 229 156 772 1139 1242 886 941 649 704 727 701 585
2 57 101 0 0 23 44 1 16 18 29 24 42 96 219 234 181 489 574 691 703 742 708 782 880 897 870 458 106 141 182 160 111 304 806 876 774 504 909 648 791 817 665 455
11 80 86 0 0 0 18 0 16 25 20 51 85 126 60 7 1 362 636 696 696 680 709 762 772 888 857 356 149 185 227 123 125 251 708 653 641 634 746 602 612 693 675 537
37 25 76 0 0 4 21 129 57 37 10 112 14 10 25 2 35 243 392 568 683 752 760 815 797 1068 964 297 136 214 152 58 114 235 484 453 473 602 675 752 775 703 807 392
47 0 66 0 10 30 62 280 174 25 95 163 17 0 0 3 400 366 290 526 819 1005 996 920 950 1189 962 289 183 152 122 28 88 210 445 627 543 590 732 748 1056 582 600 428
0 0 48 0 30 44 7 161 242 208 286 66 153 187 56 76 45 186 45 202 415 972 1067 952 1025 1183 1002 416 237 231 119 16 115 132 385 366 658 786 558 995 807 1043 739 480
0 1 19 0 0 0 32 19 154 113 64 66 119 100 104 22 26 85 47 127 308 631 1098 1193 1173 1213 1172 504 341 225 128 25 129 69 306 387 594 1068 1052 1102 998 1082 714 380
72 40 20 0 0 0 0 58 184 49 168 135 78 20 16 1 7 11 47 260 378 419 1088 1151 1253 1491 1143 458 315 276 264 49 92 53 120 445 760 446 679 1049 1137 947 821 395
152 18 25 171 129 24 0 17 92 4 0 5 0 0 0 29 44 98 192 366 476 471 763 1162 1278 1596 1212 455 259 343 400 78 67 94 242 538 530 636 684 1039 1082 975 695 407
0 0 11 11 16 3 1 0 1 4 0 0 0 3 0 0 58 297 364 396 427 432 556 1271 1349 1531 1358 597 327 430 274 36 24 291 372 605 472 465 443 1008 1033 729 885 678
0 0 0 0 0 1 0 0 0 1 0 0 1 2 6 1 14 108 407 572 601 615 532 1228 1391 1521 1471 750 367 323 133 49 105 439 331 599 429 396 359 601 524 612 146 510
0 0 0 0 0 0 0 0 0 1 0 0 0 0 6 8 0 45 311 701 902 725 751 1141 1689 1673 1466 892 465 225 89 92 289 419 358 299 396 420 141 44 77 99 94 0

GFSCGP_con_mucape_042.txt.gz
CAPE
0 0 0 0 0 0 0 0 0 0 0 0 0 0 0 0 0 0 0 0 0 0 0 0 0 0 0 40 124 96 878 1012 1170 950 1291 1172 1135 1051 960 865 806 660 647 417
0 0 0 0 0 0 0 0 0 0 0 0 0 0 0 0 0 0 0 0 0 0 0 0 0 0 31 173 498 707 1171 1431 1434 1317 1129 1105 1085 1055 999 922 881 916 865 568
0 0 0 0 0 0 0 0 0 0 0 0 0 0 0 0 0 0 0 0 0 0 0 0 0 19 105 367 603 975 1369 1599 1589 1542 1384 1208 1131 1026 1012 999 786 565 535 584
0 0 0 0 0 0 0 0 0 0 0 0 0 0 0 0 0 0 0 0 0 0 0 0 0 6 226 455 749 1486 1509 1686 1641 1513 1438 1379 1260 1116 743 383 347 397 553 595
0 0 0 0 0 0 0 0 0 0 0 0 0 0 0 0 0 0 0 0 0 0 0 0 0 52 272 552 579 1226 1600 1599 1558 1396 1228 1030 655 553 479 395 428 579 569 626
0 0 0 0 0 0 0 0 0 0 0 0 0 0 0 0 0 0 0 0 0 0 0 0 16 230 460 537 877 1249 1332 1258 1275 995 706 559 612 392 291 322 364 415 416 417
0 0 0 0 0 0 0 0 0 0 0 0 0 0 0 0 0 0 0 0 0 0 0 140 263 400 456 755 1042 1178 1117 928 694 559 454 407 328 270 257 277 266 341 336 258
0 0 0 6 0 0 0 0 0 0 0 0 0 0 0 0 0 0 0 0 0 0 16 238 338 439 556 737 847 857 742 747 718 463 373 298 280 207 229 157 209 336 302 170
0 0 0 0 5 0 0 0 0 0 0 0 0 0 0 0 0 0 0 0 0 0 166 319 390 468 623 719 704 678 696 606 540 449 352 306 271 168 210 188 376 378 130 30
0 0 0 0 0 3 0 0 0 0 0 0 0 0 0 0 0 0 0 0 0 161 291 380 416 559 679 712 636 767 638 522 430 341 201 125 145 312 258 292 346 119 276 174
0 0 0 0 0 0 0 0 0 0 0 0 0 0 0 0 0 0 0 0 86 328 360 453 484 629 702 634 767 688 457 493 321 175 95 86 91 134 29 127 197 159 178 124
3 0 0 0 0 0 0 0 0 0 0 0 0 0 0 0 0 0 0 28 281 401 468 520 551 652 627 613 695 563 474 491 244 131 64 93 132 61 69 291 231 0 0 7
2 0 0 0 0 6 0 19 0 0 0 0 0 0 0 0 0 0 0 272 435 481 525 503 591 599 594 626 623 566 516 424 192 74 76 112 151 108 138 144 226 0 4 11
3 0 0 0 0 1 0 0 24 0 0 0 0 0 0 0 0 0 1 323 495 512 457 532 563 539 539 503 632 578 423 273 143 66 88 73 75 41 127 129 122 146 74 107
55 6 0 0 6 6 0 1 0 0 0 0 0 0 0 0 0 0 1 348 526 507 465 521 547 485 532 551 606 535 246 98 133 72 79 56 71 3 4 28 24 130 66 111
4 10 7 45 17 31 4 4 19 25 0 0 0 0 0 0 2 0 123 436 513 504 467 512 514 462 525 529 454 435 133 70 58 52 151 108 29 17 0 0 21 28 33 53
0 1 9 53 32 78 8 10 20 11 0 0 0 0 0 1 322 200 351 529 524 523 502 500 501 473 547 455 318 159 99 55 61 128 188 135 31 59 4 9 24 17 40 39
0 0 2 3 7 0 2 196 320 178 25 20 0 0 0 0 347 499 515 594 571 548 533 515 517 484 523 391 56 47 78 37 96 193 315 238 146 34 47 24 33 32 28 38
0 0 0 8 20 3 67 40 18 17 41 192 167 23 0 68 54 408 491 545 542 584 572 525 529 516 520 231 24 0 18 55 152 211 341 234 145 122 140 73 31 21 11 5
2 0 0 10 11 16 13 13 34 39 46 241 303 47 3 11 38 136 439 383 563 594 607 539 563 548 469 231 3 0 0 69 169 176 204 200 186 157 109 63 11 22 35 63
0 3 0 1 0 0 0 0 31 161 144 233 126 56 35 8 6 8 329 503 624 698 627 568 610 562 419 259 80 0 0 4 159 205 215 258 275 258 221 151 0 25 45 43
0 0 0 0 1 0 0 32 52 69 196 160 151 45 69 88 42 179 332 479 612 686 553 637 614 535 389 288 85 0 0 0 6 257 236 283 272 342 249 204 64 45 22 25
0 0 0 0 0 0 0 1 0 14 50 64 105 25 103 222 254 111 325 525 652 673 597 649 557 477 360 315 138 0 0 0 0 186 275 318 301 405 214 220 67 15 3 1
0 0 0 0 0 0 0 0 0 9 28 27 49 33 14 136 378 420 427 297 654 619 655 612 563 443 358 374 222 0 0 0 2 183 310 243 395 293 224 231 119 6 10 2
0 0 0 0 0 0 0 0 0 0 0 0 3 19 0 21 158 362 495 546 494 492 481 646 583 463 457 457 301 0 0 0 50 233 333 306 343 228 218 254 216 84 9 73
0 0 0 0 0 0 0 0 0 0 0 5 0 2 8 22 73 258 409 482 642 779 836 607 817 698 560 491 425 28 0 0 27 183 268 272 251 239 276 329 338 200 143 230

GFSCGP_con_mucape_045.txt.gz
CAPE
0 0 0 0 0 0 0 0 0 0 0 0 0 0 0 0 0 0 0 0 0 0 0 0 0 0 0 0 0 0 1 91 183 307 492 584 780 913 1026 1027 996 1239 1245 1169
0 0 0 0 0 0 0 0 0 0 0 0 0 0 0 0 0 0 0 0 0 0 0 0 0 0 0 0 0 0 32 353 529 686 694 789 867 1036 1204 1304 1336 1352 1097 1077
0 0 0 0 0 0 0 0 0 0 0 0 0 0 0 0 0 0 0 0 0 0 0 0 0 0 0 0 0 53 344 719 880 963 1128 1180 1174 1124 1085 1079 1044 1002 775 1134
0 0 0 0 0 0 0 0 0 0 0 0 0 0 0 0 0 0 0 0 0 0 0 0 0 0 0 0 91 481 855 1161 1210 1103 1158 1178 1153 1129 1022 985 948 881 563 379
0 0 0 0 0 0 0 0 0 0 0 0 0 0 0 0 0 0 0 0 0 0 0 0 0 0 0 36 326 874 1182 1385 1421 1401 1338 1274 1154 1019 941 864 370 297 406 563
0 0 0 0 0 0 0 0 0 0 0 0 0 0 0 0 0 0 0 0 0 0 0 0 0 0 8 175 894 1147 1441 1464 1475 1407 1284 1163 1066 917 538 376 335 422 450 491
0 0 0 0 0 0 0 0 0 0 0 0 0 0 0 0 0 0 0 0 0 0 0 0 0 7 95 356 893 1260 1412 1397 1321 1181 1057 806 530 443 424 403 382 440 361 293
0 0 0 0 0 0 0 0 0 0 0 0 0 0 0 0 0 0 0 0 0 0 0 0 0 55 221 461 798 1093 1301 1253 1083 742 493 414 517 392 236 215 224 219 189 112
0 0 27 18 7 0 0 0 0 0 0 0 0 0 0 0 0 0 0 0 0 0 0 0 55 132 363 574 814 939 906 715 449 445 279 259 232 196 145 155 169 152 130 33
0 0 0 0 11 9 0 0 0 0 0 0 0 0 0 0 0 0 0 0 0 0 0 17 149 291 444 653 845 816 637 499 314 247 208 181 137 110 136 115 178 165 54 2
0 0 0 0 0 0 0 0 0 0 0 0 0 0 0 0 0 0 0 0 0 0 7 154 279 408 464 562 612 552 499 456 319 244 191 48 156 146 95 50 80 54 46 0
0 1 0 0 0 0 0 0 0 0 0 0 0 0 0 0 0 0 6 0 0 7 124 275 432 489 503 466 497 462 369 274 248 69 8 39 74 62 9 86 73 13 18 10
9 0 0 0 13 1 0 0 0 0 0 0 0 0 0 0 0 0 19 0 102 188 251 415 521 523 511 425 547 417 300 198 48 9 26 38 32 25 59 101 15 0 0 0
37 0 0 0 0 0 0 0 15 0 0 0 0 0 0 0 0 0 0 0 177 269 321 503 537 562 452 501 465 256 302 134 74 35 46 43 56 44 38 20 57 0 0 2
8 27 0 0 0 0 0 0 0 0 0 0 0 0 0 0 0 0 0 0 147 320 385 522 542 517 401 489 407 300 331 182 79 33 35 38 55 37 37 14 4 1 10 24
27 0 0 0 0 1 0 0 0 0 0 0 0 0 0 0 0 0 0 12 16 294 427 527 527 483 477 453 469 372 313 205 87 43 24 25 41 30 6 1 0 0 9 41
0 15 0 0 0 1 0 1 0 0 0 0 0 0 0 0 0 0 24 186 114 335 531 532 542 518 438 483 489 409 215 124 90 74 30 64 53 26 0 1 0 0 6 39
0 0 0 2 0 0 0 78 10 0 0 0 0 0 0 0 0 1 164 303 263 382 544 569 555 477 449 495 484 415 122 66 43 49 79 90 64 54 4 0 0 0 3 20
0 0 0 0 11 0 0 41 34 45 0 69 73 61 0 0 19 50 318 444 396 412 531 561 569 499 484 493 386 352 71 74 34 90 124 123 102 76 36 4 0 24 26 32
11 0 0 0 9 7 0 3 20 6 0 57 69 107 1 42 3 0 31 461 475 444 525 593 571 478 521 433 268 88 52 88 38 111 179 186 147 96 101 5 18 35 32 28
0 2 6 3 3 4 0 0 3 53 0 78 38 56 38 13 1 0 7 419 526 499 597 606 566 497 510 414 48 8 49 34 45 111 195 194 149 103 111 40 33 30 31 34
0 0 0 0 3 0 0 0 2 0 32 35 95 60 134 56 49 33 43 202 305 411 513 592 534 508 506 387 27 0 11 6 53 112 157 148 129 113 105 74 7 16 31 19
0 0 0 0 0 0 0 0 0 6 40 37 102 96 161 40 24 65 199 209 139 99 479 600 523 538 527 337 64 0 0 0 53 113 159 169 200 192 204 106 0 19 22 13
0 10 0 0 0 1 0 0 0 43 48 87 131 77 64 225 90 150 278 273 302 370 476 574 516 549 537 332 136 0 0 0 25 128 207 212 203 263 225 153 34 36 8 0
0 1 0 0 0 0 0 0 0 4 1 25 78 72 85 232 128 181 253 408 389 479 553 592 515 581 553 345 191 0 0 0 0 57 221 262 226 281 141 147 63 12 14 6
10 0 0 0 0 0 0 0 0 0 0 3 38 54 12 165 280 372 359 441 577 599 584 567 590 612 531 401 262 0 0 0 0 69 201 293 182 263 118 127 69 55 17 103

GFSCGP_con_mucape_048.txt.gz
CAPE
0 0 0 0 0 0 0 0 0 0 0 0 0 0 0 0 0 0 0 0 0 0 0 0 0 0 0 0 0 0 0 0 0 108 264 363 480 495 597 675 795 919 787 867
0 0 0 0 0 0 0 0 0 0 0 0 0 0 0 0 0 0 0 0 0 0 0 0 0 0 0 0 0 0 0 0 0 49 190 383 454 598 771 874 982 958 1041 1174
0 0 0 0 0 0 0 0 0 0 0 0 0 0 0 0 0 0 0 0 0 0 0 0 0 0 0 0 0 0 0 0 17 110 292 474 592 753 896 1035 1091 1239 1369 1349
0 0 0 0 0 0 0 0 0 0 0 0 0 0 0 0 0 0 0 0 0 0 0 0 0 0 0 0 0 0 7 60 268 450 508 648 841 967 1064 1188 1190 1231 1065 929
0 0 0 0 0 0 0 0 0 0 0 0 0 0 0 0 0 0 0 0 0 0 0 0 0 0 0 0 0 28 275 513 652 732 845 905 921 970 990 1024 988 951 657 298
0 0 0 0 0 0 0 0 0 0 0 0 0 0 0 0 0 0 0 0 0 0 0 0 0 0 0 0 16 396 750 936 954 966 1029 1025 1077 1059 1022 935 826 284 223 336
0 0 0 0 0 0 0 0 0 0 0 0 0 0 0 0 0 0 0 0 0 0 0 0 0 0 0 3 301 704 1023 1126 1158 1231 1244 1171 1090 978 896 519 189 214 290 367
1 0 0 0 0 0 0 0 0 0 0 0 0 0 0 0 0 0 0 0 0 0 0 0 0 0 0 89 654 961 1134 1201 1268 1202 1052 951 807 367 258 250 256 287 305 231
5 7 9 0 0 0 0 0 0 0 0 0 0 0 0 0 0 0 0 0 0 0 0 0 0 0 32 232 787 1087 1162 1116 1050 863 580 366 325 288 199 180 131 101 99 72
0 3 1 1 19 0 0 0 0 0 0 0 0 0 0 0 0 0 0 0 0 0 0 0 0 11 155 339 745 1004 999 886 701 385 247 242 222 178 113 84 72 55 49 0
4 0 0 0 0 0 1 0 0 0 0 0 0 0 0 0 0 0 0 0 0 0 0 0 49 149 232 457 666 908 814 499 311 192 162 123 73 45 53 44 44 32 0 0
3 0 0 0 0 0 0 0 0 0 0 0 0 0 0 0 0 0 0 0 0 14 35 165 463 246 414 566 665 656 425 186 153 152 110 38 29 38 22 1 1 0 0 0
4 0 0 0 21 0 0 0 0 0 0 0 0 0 0 0 0 0 0 0 0 60 171 520 406 400 495 621 614 444 322 209 155 127 0 6 20 6 0 20 0 0 0 0
57 4 0 0 0 0 0 0 0 0 0 0 0 0 0 0 0 0 0 0 0 1 265 535 541 486 466 460 402 316 242 169 94 0 0 0 5 1 11 29 0 0 0 0
53 28 0 1 0 0 0 0 0 0 0 0 0 0 0 0 0 0 0 0 0 0 248 435 516 534 435 347 324 267 189 60 0 0 0 0 2 16 19 3 0 0 0 0
32 12 0 0 0 0 0 0 0 0 0 0 0 0 0 0 0 0 0 0 0 0 92 417 572 570 394 409 375 260 104 0 0 0 0 0 22 25 20 1 0 0 0 15
32 0 0 0 0 0 0 0 0 0 0 0 0 0 0 0 0 0 0 0 0 1 193 373 543 579 389 405 284 174 130 12 1 0 0 7 23 31 12 2 0 0 0 23
22 0 0 0 0 0 0 7 34 3 0 0 0 0 0 0 0 0 0 0 1 122 277 385 553 564 358 361 240 228 179 98 24 20 4 17 27 18 25 12 0 0 2 27
0 0 0 0 0 0 0 0 22 2 0 0 0 49 35 8 0 0 0 0 90 241 316 373 520 532 394 346 319 234 168 118 50 48 19 37 44 41 25 9 0 0 9 29
0 0 0 2 0 0 0 0 2 11 0 16 39 24 0 4 0 0 0 0 106 240 382 405 552 534 415 380 387 274 132 58 27 33 32 37 49 80 47 21 0 19 28 44
0 0 0 0 1 2 0 0 0 27 7 30 25 7 48 7 0 0 0 0 212 304 410 487 569 516 388 387 395 331 115 38 25 27 42 74 78 93 68 23 19 26 38 45
0 0 0 0 0 0 0 0 0 0 24 3 5 6 6 53 0 1 0 0 137 359 420 551 536 516 366 402 351 229 127 21 32 26 64 138 111 93 90 48 22 14 26 36
0 0 0 0 0 0 0 0 0 0 5 3 10 43 83 58 1 10 20 69 83 317 528 563 539 439 385 397 212 108 13 13 22 14 104 132 107 75 86 70 14 6 22 20
0 0 0 0 0 0 0 0 0 0 2 5 25 73 83 100 18 55 125 201 157 345 507 580 582 432 398 428 232 0 0 13 3 31 94 121 99 104 151 107 16 6 28 29
0 0 0 0 0 0 0 0 0 0 2 3 23 42 83 129 142 152 231 263 230 125 140 373 598 504 460 434 349 21 0 2 4 22 69 134 171 155 229 122 48 55 17 13
0 0 0 0 0 0 0 0 0 0 0 2 25 47 107 254 387 272 287 365 248 203 80 279 554 569 514 486 421 105 0 0 1 15 58 158 195 196 231 92 25 0 7 14

GFSCGP_con_mucape_051.txt.gz
CAPE
0 0 0 0 0 0 0 0 0 0 0 0 0 0 0 0 0 0 0 0 0 0 0 0 0 0 0 0 0 5 0 0 0 187 437 635 771 694 741 821 904 1020 1028 925
0 0 0 0 0 0 0 0 0 0 0 0 0 0 0 0 0 0 0 0 0 0 0 0 0 0 0 0 0 0 0 0 11 285 654 801 817 482 823 953 1057 1059 1019 1052
0 0 0 0 0 0 0 0 0 0 0 0 0 0 0 0 0 0 0 0 0 0 0 0 0 0 0 0 0 0 0 0 43 304 601 675 651 713 872 1069 1138 1138 1102 1133
0 0 0 0 0 0 0 0 0 0 0 0 0 0 0 0 0 0 0 0 0 0 0 0 0 0 0 0 0 0 0 206 266 522 637 956 1071 1209 1192 1161 1253 1292 1245 1263
0 0 0 0 0 1 0 0 0 0 0 0 0 0 0 0 0 0 0 0 0 0 0 0 0 0 0 0 0 0 330 673 630 657 832 1131 1256 1131 1094 1139 1330 1373 1380 1341
0 0 0 2 5 0 1 0 0 0 0 0 0 0 0 0 0 0 0 0 0 0 0 0 0 0 0 0 0 369 878 1011 822 863 956 1179 1184 946 1067 1151 1155 885 858 963
0 0 5 0 5 0 0 0 0 0 0 0 0 0 0 0 0 0 0 0 0 0 0 0 0 0 0 0 153 834 1165 1130 935 859 855 1016 996 1067 1057 957 884 807 878 957
2 2 6 0 0 0 0 0 0 0 0 0 0 0 0 0 0 0 0 0 0 0 0 0 0 0 0 0 485 1023 1302 1143 976 876 878 951 975 895 838 852 813 867 931 1047
61 35 55 11 1 0 0 0 0 0 0 0 0 0 0 0 0 0 0 0 0 0 0 0 0 0 0 86 854 1243 1269 1145 987 993 947 907 815 652 627 750 872 820 783 638
35 11 0 13 28 0 0 0 0 0 0 0 0 0 0 0 0 0 0 0 0 0 0 34 6 0 26 535 1105 1230 1181 1087 990 900 758 485 530 581 589 634 612 638 598 457
43 16 3 4 2 6 0 0 0 0 0 0 0 0 0 0 0 0 0 0 0 0 0 150 38 77 293 780 1127 1127 951 885 722 517 457 449 418 431 520 604 504 518 444 321
38 123 38 0 0 0 4 0 0 0 0 0 0 0 0 0 0 0 0 0 0 0 7 125 466 490 448 933 1035 934 754 571 390 357 384 422 394 410 525 463 472 450 340 233
88 42 41 3 136 36 3 2 0 0 0 0 0 0 0 0 0 0 0 0 0 0 0 195 840 762 638 850 909 738 570 322 258 212 264 366 368 409 415 436 403 310 232 187
151 60 28 23 7 5 5 0 0 0 0 0 0 0 0 0 0 0 0 0 0 0 0 229 324 781 642 807 670 538 349 248 207 184 219 296 286 312 478 427 322 261 280 222
70 60 41 2 4 5 1 0 0 0 0 0 0 0 0 0 0 0 0 0 0 0 0 4 401 832 836 851 643 451 290 176 99 8 78 233 209 276 354 339 135 203 246 304
50 30 30 11 0 0 0 0 0 0 0 0 0 0 0 0 0 0 0 0 0 0 0 0 560 871 879 832 672 445 277 139 36 42 74 111 164 221 349 427 231 294 275 418
46 34 3 0 0 0 0 0 0 0 0 0 0 0 0 0 0 0 0 0 0 0 0 114 554 900 982 808 677 524 313 70 29 96 123 113 208 237 298 323 285 358 489 637
2 1 3 0 0 0 0 40 28 22 29 42 54 2 0 0 0 0 0 0 0 0 0 84 656 941 1036 826 707 596 250 58 14 77 90 119 198 217 274 373 365 318 418 472
4 0 0 0 0 0 0 0 0 0 0 2 20 0 0 0 0 0 0 0 0 0 0 220 772 981 1052 855 736 500 175 29 46 61 115 139 198 208 324 427 386 227 272 188
0 0 0 0 0 0 0 0 0 0 0 24 9 49 13 9 0 0 0 0 0 13 211 526 859 987 966 843 570 496 242 67 128 159 188 197 227 275 379 441 281 180 302 142
0 0 0 0 0 0 0 0 0 0 0 11 7 8 13 9 3 0 0 0 0 0 164 719 884 966 949 772 589 335 174 168 188 214 233 285 334 427 515 421 309 238 151 52
0 0 0 0 0 0 0 0 0 0 0 0 8 4 15 14 4 1 0 0 0 10 414 764 836 902 841 683 628 260 274 233 204 257 285 344 491 356 397 439 328 282 131 50
0 0 0 0 0 0 1 0 0 0 0 1 0 0 5 0 0 0 0 0 10 227 628 762 838 755 510 637 722 435 339 284 200 306 419 507 515 471 484 478 145 32 56 34
0 30 63 0 0 0 0 0 0 0 0 0 0 0 0 0 0 0 0 3 124 391 740 772 706 599 470 565 627 499 427 163 230 404 532 535 579 499 466 292 52 46 18 20
16 11 59 49 0 0 0 0 0 0 3 0 5 3 0 11 17 0 3 43 204 602 777 682 638 626 510 430 389 443 190 179 314 432 521 586 523 555 149 88 23 17 23 32
5 14 0 0 0 0 0 0 0 0 0 0 7 29 7 4 23 15 160 534 603 669 727 619 610 615 453 364 250 61 105 185 384 451 514 564 517 440 129 86 0 4 11 15

GFSCGP_con_mucape_054.txt.gz
CAPE
0 0 0 0 0 0 0 0 0 0 0 3 0 0 0 0 0 0 0 0 0 0 0 0 0 0 0 56 89 256 194 854 401 434 664 962 1148 1293 1280 1365 1500 1651 1696 1640
0 0 0 0 0 0 0 0 0 0 0 0 0 0 0 0 0 0 0 0 0 0 0 0 0 0 0 0 0 168 116 344 625 506 1006 1116 1389 1479 1557 1564 1778 1851 1846 1805
1 0 0 5 0 0 0 0 0 0 5 0 0 0 0 0 0 0 0 0 0 0 0 0 0 0 0 0 0 0 60 201 607 653 1285 1635 1689 1485 1578 1737 1949 1932 1865 1878
0 0 1 13 17 7 0 0 0 0 0 0 3 0 0 0 0 0 0 0 0 0 0 0 0 0 0 0 0 0 3 182 573 1209 1663 1890 1567 1558 1522 1852 1996 2043 1996 1956
7 1 9 29 37 18 1 6 30 44 0 0 0 0 0 0 0 0 0 0 0 0 0 0 0 0 0 0 0 0 0 353 1069 1396 1407 1549 2003 1776 2026 1976 2430 2339 2160 2041
54 82 15 23 20 42 39 26 56 76 79 0 0 0 0 0 0 0 0 0 0 0 0 0 0 0 0 0 0 0 219 1264 1667 1649 1496 1881 2001 2113 2088 2351 2447 2350 2351 2334
65 78 25 3 41 51 80 65 0 0 0 0 0 0 0 0 0 0 0 0 0 0 0 0 0 0 0 0 0 0 849 1795 1887 1830 1945 2205 2414 2491 2717 2582 2164 2001 1704 1624
133 105 62 51 88 92 153 110 67 0 0 0 1 0 0 0 0 0 0 0 0 0 0 0 0 0 0 0 0 95 1128 2034 2013 2090 2243 2427 2475 2243 2211 1918 1730 1460 1100 1192
201 98 5 117 29 110 46 90 89 67 32 42 15 0 0 0 0 0 0 0 0 0 0 1 140 222 0 0 83 846 1787 2119 2090 2118 2116 2108 1956 1875 1722 1830 1591 1196 1316 1551
107 248 126 41 98 158 38 91 112 90 0 0 12 0 0 0 0 0 0 0 0 0 0 59 469 335 75 59 819 1567 2116 2173 2131 2012 1939 1842 1815 1702 1669 1548 1281 1364 1375 1063
110 148 65 62 54 5 36 95 57 81 64 0 0 0 2 0 0 0 0 0 0 0 0 39 541 281 564 800 1470 2060 2102 2089 1996 1914 1665 1512 1280 1321 1348 1391 1296 1296 1234 1038
135 137 226 157 23 0 44 93 155 78 103 50 18 68 0 0 0 0 0 0 0 0 0 25 632 247 950 1317 1827 2048 1932 1822 1661 1306 1169 1187 1184 1174 1240 1089 1048 997 862 653
128 189 208 172 137 107 28 4 156 143 108 119 0 0 0 0 0 0 0 0 0 0 0 0 478 699 898 1522 1731 1753 1586 1381 1141 1019 1071 1101 1077 1019 966 825 793 715 566 384
89 213 215 267 99 49 27 112 86 116 142 38 11 22 22 0 0 0 0 0 0 0 0 0 185 608 1066 1470 1576 1443 1249 986 852 803 748 841 745 477 581 767 714 496 413 358
33 129 200 190 110 33 31 24 78 97 87 0 21 10 21 1 0 0 0 0 0 0 0 0 0 824 995 1287 1443 1262 1021 845 764 665 455 252 403 660 748 678 528 488 318 239
86 192 151 185 106 104 34 5 3 17 33 12 0 0 0 0 0 0 0 0 0 0 0 0 0 1012 1258 1550 1191 1106 901 779 588 149 67 277 494 596 711 593 518 426 371 459
49 69 77 175 54 24 44 40 9 12 3 8 0 8 2 0 0 0 0 0 0 0 0 0 2 943 1624 1343 1166 1073 874 662 164 11 110 317 496 542 602 598 487 408 569 627
21 35 43 33 18 0 130 215 138 104 90 72 63 47 21 5 0 0 0 0 0 0 0 0 3 1048 1406 1382 1283 1119 806 418 26 29 185 373 415 441 462 487 470 641 713 727
0 0 0 0 0 0 0 0 1 1 0 6 8 9 5 6 0 0 0 0 0 0 0 0 2 1131 1454 1382 1263 1050 678 140 2 118 272 330 404 428 468 620 637 727 690 798
0 0 0 0 0 0 319 60 2 0 0 0 0 0 21 22 0 0 0 0 0 0 0 87 505 1090 1401 1580 1361 995 456 0 39 151 223 322 398 479 457 654 802 754 761 776
29 0 0 0 0 0 57 31 0 0 74 0 4 0 12 0 6 31 27 3 0 0 1 179 841 1211 1598 1450 1355 807 208 46 146 241 252 399 455 635 737 743 820 802 684 556
69 0 0 142 0 0 38 12 0 67 2 0 0 0 0 1 29 16 34 4 0 0 68 430 1055 1400 1749 1464 1123 824 134 54 268 239 217 432 628 691 684 869 838 680 439 444
8 92 127 217 0 56 0 0 0 0 0 0 0 0 0 0 6 18 13 9 5 48 432 848 1278 1539 1777 1440 1016 464 67 236 263 248 262 507 698 693 776 790 627 402 311 173
47 62 89 89 53 0 7 0 0 0 0 0 0 0 0 4 15 12 16 9 18 342 646 1072 1398 1661 1677 1345 892 376 92 321 284 294 350 483 668 747 791 727 734 413 321 129
69 52 72 83 23 0 0 0 9 18 0 0 3 0 28 41 12 10 18 18 63 590 825 1349 1584 1760 1543 1350 1106 101 176 322 449 369 464 580 645 708 726 624 337 257 75 97
44 41 102 88 21 16 0 4 0 0 20 7 0 1 2 0 5 12 3 57 201 1037 1052 1438 1657 1577 1345 1173 529 66 215 365 525 458 488 513 650 848 595 517 125 18 21 11

GFSCGP_con_mucape_057.txt.gz
CAPE
0 0 0 0 0 0 0 0 0 0 0 0 2 0 0 0 0 0 0 31 38 48 31 17 18 0 5 343 816 1112 979 2680 1598 700 353 454 986 1365 1454 1406 1906 1824 1997 1940
0 0 0 0 0 0 0 0 0 0 0 0 4 0 0 0 0 0 0 14 3 14 29 35 7 21 113 304 815 1176 1821 2242 2426 1104 1419 1183 1506 1145 1628 1556 2176 1942 2052 2142
0 2 6 1 0 0 0 0 0 0 0 0 0 2 0 0 1 0 0 0 9 0 11 25 8 30 51 197 516 691 1438 1978 2467 2207 1564 1860 1967 2464 1952 2086 2180 2175 2130 2278
22 23 3 12 23 14 0 0 0 0 0 0 0 1 0 0 0 3 0 0 0 0 0 0 0 11 72 6 33 563 1094 1790 1940 2721 1285 2908 2075 2048 1830 2147 2234 2271 2251 2157
60 64 69 83 32 22 33 23 16 4 0 0 0 36 4 0 2 0 0 0 0 0 0 0 0 0 0 0 0 85 551 1400 1960 2561 2292 1924 2777 1708 1840 1902 3334 3151 2708 2347
44 116 119 73 39 1 10 23 38 28 23 0 0 31 23 7 3 5 3 0 0 0 0 0 0 0 0 0 0 6 387 1199 1429 2345 2198 3677 3565 3309 2259 2816 2629 2409 2301 2154
78 151 75 138 62 49 23 112 0 0 0 0 50 69 27 47 39 10 24 3 0 0 0 0 0 0 0 0 0 0 129 769 1636 1968 2146 2358 3689 4279 4410 3483 2708 2746 2503 2332
125 200 186 129 181 57 13 133 133 0 0 0 125 36 58 1 16 0 0 0 0 0 0 0 0 0 0 0 0 0 32 930 2003 2158 2222 2641 3325 2660 2951 3491 2627 2238 2083 2287
142 126 39 198 130 189 188 106 75 135 4 8 30 59 47 12 4 0 3 0 0 0 0 0 1 22 166 7 0 0 173 1216 2147 2484 2686 3079 3341 3857 3067 3750 3525 1852 2370 1937
159 122 177 213 164 153 284 94 134 66 3 10 39 0 71 46 51 5 0 0 0 0 0 4 262 612 683 88 0 333 825 1987 2399 2660 2781 2792 2625 2364 2387 2458 2407 2183 2160 1296
120 231 190 193 170 286 208 219 148 226 76 0 112 79 96 106 30 15 2 0 0 0 0 23 689 754 739 253 579 1322 2012 2345 2483 2495 2472 2463 2269 2194 1928 1846 1444 1469 1351 1063
188 242 187 157 240 241 110 266 177 317 135 41 13 16 129 148 86 57 14 0 0 0 0 0 951 582 1137 973 1463 1999 2262 2286 2339 2306 2250 2035 1743 1504 1541 1380 1248 1198 1035 746
214 213 229 111 65 80 41 120 257 183 148 194 35 28 138 219 89 8 12 2 0 0 0 0 819 836 1442 1490 1781 2073 2105 2139 2097 1816 1607 1534 1431 1409 1302 1119 1026 812 666 575
95 149 158 247 56 0 68 158 93 203 75 131 9 6 81 93 65 19 10 2 1 0 0 0 80 1050 1549 1621 1757 1765 1909 1830 1511 1397 1353 1368 1338 1155 977 760 605 496 479 428
94 269 177 167 118 127 112 101 71 75 137 43 50 0 0 8 12 19 0 0 0 0 0 0 0 1269 1465 1366 1670 1675 1580 1425 1345 1189 1083 1069 893 609 492 549 633 515 478 298
115 109 135 174 163 132 130 113 89 56 40 0 20 5 2 8 1 3 0 0 0 0 0 0 0 1263 1284 1281 1581 1380 1340 1232 1058 919 674 366 389 507 837 984 923 505 303 279
46 79 116 143 124 132 131 41 52 60 53 11 0 12 30 15 11 16 0 0 0 0 0 0 0 579 1658 1739 1654 1318 1271 1092 824 397 199 298 443 692 798 642 680 403 645 1164
0 22 46 48 32 0 8 4 94 178 143 94 119 91 69 86 57 20 25 7 0 0 0 0 0 676 1752 1580 1557 1330 1164 781 295 218 179 322 385 577 548 611 634 612 908 744
0 0 0 0 0 0 0 0 30 106 212 144 113 51 26 23 38 59 19 3 0 0 0 0 11 587 1622 1611 1548 1344 1055 502 165 111 275 297 453 444 431 648 702 1285 868 956
18 0 0 0 77 0 180 69 57 21 20 14 8 17 21 33 37 147 147 39 1 1 0 0 174 807 1899 1748 1663 1398 900 397 113 166 222 342 361 460 570 881 887 885 912 838
67 5 0 0 51 43 34 0 24 62 78 8 23 38 47 22 33 13 4 10 26 2 0 0 49 760 1779 1684 1649 1329 741 240 156 172 222 353 712 702 1083 1177 950 901 802 765
59 101 126 83 0 33 44 18 21 44 22 7 18 21 0 24 12 16 6 6 6 2 0 14 261 1878 1932 1684 1543 1247 614 143 176 181 234 446 744 483 662 1008 1146 943 889 642
118 103 195 317 97 193 131 65 66 69 0 0 0 42 22 9 6 16 10 10 0 3 41 218 674 1914 1696 1729 1643 1081 417 233 215 238 288 630 786 709 779 785 933 550 623 559
78 108 149 80 122 106 90 44 0 0 0 0 5 1 0 0 0 19 19 11 5 7 145 489 1323 1767 1589 1562 1515 1073 266 215 245 319 350 701 754 650 742 718 1022 882 846 380
115 56 123 122 83 66 27 46 26 0 0 0 0 0 0 2 38 21 24 11 13 37 385 1041 1502 1656 1762 1706 1356 767 156 269 379 385 240 312 497 988 989 683 537 738 462 281
105 153 143 45 85 116 85 56 15 0 0 0 0 0 0 0 12 18 22 13 17 40 470 1373 1592 1693 1805 1573 1044 399 165 330 461 361 241 258 259 386 614 454 191 51 0 0

GFSCGP_con_mucape_060.txt.gz
CAPE
0 0 0 0 0 0 0 0 0 0 0 0 0 0 0 0 0 0 0 0 0 21 120 48 157 166 329 1349 1926 2531 2262 2590 2310 2943 1899 1379 1266 1530 2211 2198 2343 2730 2423 2158
0 0 0 0 0 0 0 0 0 0 0 0 0 0 0 0 0 0 0 0 0 9 29 194 229 741 1200 1822 1823 2267 2160 2206 2665 2477 2260 2162 2475 1743 1876 2258 2509 2822 2496 2488
0 0 0 0 0 0 0 0 0 0 0 0 0 0 0 0 0 0 9 0 0 0 77 81 169 553 1110 983 1722 1557 2125 2235 2856 2244 2115 2317 2741 3167 3057 2780 3028 2831 2569 2542
0 0 1 1 0 0 0 0 0 0 0 0 0 0 0 0 0 0 0 11 0 0 0 122 179 459 1262 731 680 897 1505 1544 1956 2476 1376 1867 2008 1910 2477 2942 2617 2632 2622 2463
0 7 9 19 3 28 16 3 4 2 14 0 0 0 0 0 0 0 0 2 28 0 0 0 69 162 195 269 205 246 1162 1663 1550 2109 1949 1362 2464 2268 3596 2911 3359 2727 2649 2477
20 11 43 44 22 38 38 10 1 15 12 0 0 0 0 0 0 0 3 0 12 29 0 0 0 19 0 2 20 57 153 1373 1481 2314 2050 2351 2579 2457 2630 2830 2947 2678 2391 1860
14 16 19 6 26 136 77 58 12 0 0 0 0 0 0 0 0 0 41 53 38 21 0 3 0 0 0 0 0 37 1028 588 1718 1894 2300 2270 3700 2738 4646 3217 2661 2477 1870 2347
39 33 37 1 9 90 118 131 93 0 0 12 69 0 0 0 0 2 3 78 146 85 26 7 5 0 0 0 0 0 88 995 1367 1489 2363 2621 3323 2935 4058 2941 2813 2271 1956 1932
114 42 25 23 47 216 200 90 117 46 54 102 28 44 36 26 5 9 4 16 8 6 4 0 0 0 26 103 829 626 206 446 1192 2486 2897 2875 3017 3563 3299 3293 3947 2701 2446 2580
53 78 29 14 90 117 195 165 158 32 66 9 49 35 1 97 25 11 35 98 124 60 0 5 86 406 872 1177 1349 1224 467 886 2639 2754 2928 3056 3420 3642 3634 3510 3124 2840 2272 2159
64 121 135 105 130 146 242 195 178 110 59 85 0 0 50 79 56 75 7 137 155 9 0 0 208 623 1030 1145 961 1321 489 2477 2723 2983 3253 3251 3390 2939 2686 2823 2424 2383 2348 1766
141 142 144 73 79 118 21 219 121 69 21 100 1 0 0 28 5 3 91 185 78 0 0 0 1138 1187 867 846 727 1245 2141 2487 2900 2974 3046 3028 2671 2456 2378 2134 2204 1969 1875 1328
98 50 77 22 78 66 1 13 29 48 151 1 0 1 0 0 15 60 132 64 6 0 0 0 1004 831 1469 1081 1510 2171 2537 2566 2669 2657 2478 2455 2160 2030 2130 1943 1785 1499 1508 1258
44 63 46 76 66 164 0 66 57 53 149 22 5 0 33 28 13 20 16 4 1 0 0 0 62 979 1948 1820 2041 2365 2331 2373 2447 2156 1904 1864 1902 1858 1767 1586 1514 1397 981 1048
38 64 65 55 102 168 89 90 143 79 2 5 11 0 2 0 1 10 0 7 0 0 0 0 0 1222 1901 1820 1959 2169 2147 2104 1920 1746 1672 1731 1792 1547 1389 1152 1045 923 1139 844
55 12 40 37 40 74 111 110 72 12 7 0 2 4 21 20 0 2 28 1 0 0 0 0 0 1199 1930 1657 1452 2099 2028 1761 1659 1374 1451 1518 1243 940 934 1054 1115 1266 1043 953
43 14 33 0 0 25 28 76 1 0 0 56 111 105 97 20 7 17 82 14 12 0 0 0 0 239 1603 1324 1423 1537 1453 1253 1582 1298 1123 805 699 836 919 951 870 963 1298 925
0 26 4 0 43 0 1 17 18 1 1 13 40 87 117 70 117 16 11 4 55 21 2 0 0 1788 1504 1433 1504 1307 1091 1090 1260 793 472 487 764 775 823 723 828 1043 1094 1094
5 20 20 0 0 1 0 36 88 78 1 41 83 54 40 41 41 15 210 215 257 71 23 0 31 1633 1915 1578 1441 1247 1072 1244 642 420 436 437 836 776 783 632 875 1266 1011 975
9 9 0 0 0 0 128 3 0 0 2 43 16 0 8 19 11 0 66 80 57 99 25 5 20 768 1953 1566 1508 1325 1205 785 556 358 383 400 687 764 446 684 1275 1086 978 981
78 12 0 0 0 5 75 5 0 5 12 4 6 6 0 42 7 1 0 5 37 38 28 2 1 585 1260 1548 1507 1454 964 718 493 432 406 761 851 606 1025 1004 1164 968 926 1014
10 81 156 103 0 13 95 21 0 52 17 9 0 0 0 0 10 3 0 0 8 6 0 0 24 503 1924 1577 1770 1407 1218 743 501 458 667 1025 752 466 861 1090 845 899 929 813
87 132 124 75 176 239 240 187 23 103 66 0 0 0 0 1 9 3 0 0 0 0 0 0 86 1298 1897 1681 1565 1550 1235 651 544 704 938 905 932 778 719 948 1065 798 784 567
83 97 194 161 89 94 214 253 121 76 47 0 0 0 0 0 0 9 9 0 0 0 0 6 313 1412 1535 1614 1615 1490 798 510 505 1187 1018 961 892 746 885 926 880 695 764 554
133 139 27 72 158 74 85 92 100 34 0 0 0 0 0 1 0 4 9 0 0 0 24 242 777 1894 1602 1363 1496 1386 618 613 928 1234 1073 980 725 662 905 406 418 670 167 137
173 128 38 87 88 172 65 99 42 0 0 0 0 0 0 4 0 15 1 8 5 0 38 151 704 1469 1439 1821 1587 1057 487 899 1068 986 1063 863 576 1034 623 250 199 133 63 58

GFSCGP_con_mucape_063.txt.gz
CAPE
0 0 0 0 0 0 0 0 0 0 0 0 0 0 0 0 0 0 0 0 0 0 0 0 5 0 3 353 183 150 614 1077 1255 1184 1309 1515 1273 1000 970 1101 1392 1428 2000 1849
0 0 0 0 0 0 0 0 0 0 0 0 0 0 0 0 0 0 0 0 0 0 0 0 2 7 19 337 139 63 65 510 324 462 555 442 397 465 362 848 1215 1313 1805 2125
0 0 0 0 0 0 0 0 0 0 0 0 0 0 0 0 0 0 0 0 0 0 0 0 0 9 13 489 356 278 243 472 275 528 918 852 754 932 1544 1244 1242 1766 1894 1774
0 0 0 0 0 0 0 0 0 0 0 0 0 0 0 0 0 0 0 0 0 0 0 0 0 2 475 421 264 168 268 194 414 310 842 909 720 540 794 1503 1754 2049 1754 1719
0 0 0 0 0 0 0 0 0 0 0 0 0 0 0 0 0 0 0 0 0 0 0 0 0 0 301 258 122 69 198 165 373 895 801 697 736 990 772 1643 1821 1874 1810 1836
0 0 0 14 0 0 0 12 5 3 0 0 0 0 0 0 0 0 0 0 0 0 0 0 0 0 64 308 84 53 51 33 36 262 957 539 368 1000 1301 1902 1832 1768 1844 1906
0 0 0 6 0 0 7 1 0 0 0 0 0 11 0 0 0 0 0 0 0 0 0 0 2 0 0 121 4 0 0 8 243 312 733 890 481 562 1282 1781 2111 1999 1884 1920
0 0 0 5 0 0 0 52 13 0 0 0 0 0 0 0 0 0 0 0 0 0 0 0 0 0 0 0 0 0 0 0 166 312 836 867 1117 1606 1341 2321 2168 1994 1810 1756
0 0 0 0 1 2 0 17 58 42 0 0 0 0 0 3 13 18 0 0 5 40 5 0 1 0 0 0 0 0 0 55 147 687 631 1714 1180 1964 2015 2300 2121 1991 1773 1394
0 0 0 23 68 43 22 14 24 10 0 0 0 0 0 62 15 4 0 1 2 15 14 133 55 144 303 535 493 420 64 318 474 839 1277 1716 1877 2301 2679 2312 2354 1907 1698 1519
0 0 0 20 46 37 40 29 23 4 11 0 0 0 148 4 0 23 21 0 4 9 42 74 144 859 715 768 622 652 205 222 1129 1924 2120 2078 2098 2648 2898 2580 2459 1992 1920 1958
1 6 0 0 0 23 3 0 15 32 0 1 13 0 2 0 0 12 12 4 13 1 17 562 1464 1257 1038 891 901 592 276 1693 2126 2195 2189 2318 2578 2774 2433 2182 2255 2179 2192 1773
2 0 0 0 0 45 1 2 0 0 0 2 12 0 6 1 0 0 2 18 3 1 20 8 1350 1079 1026 1048 911 556 1666 2217 2362 2406 2459 2606 2459 2359 2150 2018 1594 1225 1102 897
39 0 0 0 0 0 0 0 11 4 6 13 26 8 63 0 0 0 40 6 0 18 0 0 206 1205 1208 1563 1025 1948 2126 2241 2218 2164 2191 2471 2240 2124 1915 1304 1113 979 744 519
4 0 0 0 2 1 0 0 20 12 29 9 1 5 4 0 0 1 8 3 0 1 0 0 39 1206 1299 1516 2121 2068 2127 1978 1990 1901 2000 2136 1877 2015 1136 986 793 546 265 369
0 0 0 0 0 0 0 0 1 34 11 2 52 96 21 2 1 0 0 0 0 0 0 0 3 0 1075 1211 1527 1720 1703 1687 1767 1730 1580 1465 1310 919 790 535 429 245 296 162
1 3 0 0 0 0 0 0 2 28 29 12 20 15 28 13 16 12 0 0 28 146 78 1 0 394 487 1007 972 1311 1339 1455 1662 1451 1211 1081 867 688 526 394 420 412 229 283
1 7 0 0 0 0 0 0 21 24 17 0 17 28 34 20 32 34 9 65 37 86 37 0 0 66 704 802 830 1200 1269 1231 1267 1093 1062 849 692 511 465 390 310 400 148 164
4 1 0 0 0 0 0 0 1 0 0 47 34 6 0 0 0 0 90 152 106 91 5 1 0 41 880 750 575 865 896 1143 1014 817 848 443 487 456 355 180 160 492 96 54
18 15 1 0 0 0 1 0 0 0 0 4 0 0 0 0 0 0 0 6 29 43 11 0 0 0 715 376 231 572 818 919 812 581 267 541 429 412 173 100 313 125 82 102
22 12 0 0 0 0 3 0 0 0 0 17 1 0 0 0 0 0 0 0 0 8 0 0 0 0 253 315 0 751 802 723 545 207 304 594 459 415 342 380 319 217 244 251
2 10 1 0 0 0 42 0 0 0 0 0 23 0 0 0 0 0 0 0 0 0 0 0 0 35 167 258 534 753 916 353 172 212 529 654 484 482 460 324 226 279 342 213
0 20 22 19 4 27 36 18 6 3 0 0 1 0 0 0 0 0 0 0 0 0 0 0 0 51 212 229 794 970 1073 303 358 454 460 494 407 359 259 241 294 399 246 179
19 20 2 7 9 35 9 1 24 20 34 3 0 0 0 0 0 0 0 0 0 0 0 0 0 101 123 462 994 1295 1195 489 478 336 387 421 377 358 327 401 410 281 187 135
0 0 0 2 4 4 2 23 24 40 23 1 0 0 0 0 0 0 0 0 0 0 0 0 0 116 64 945 1143 1346 1095 541 377 412 450 390 442 407 421 336 185 169 111 163
8 34 34 22 20 6 0 21 36 29 2 0 0 0 0 0 0 0 0 0 0 0 0 0 3 107 253 1042 737 1051 935 579 490 448 406 388 439 295 231 71 42 108 69 100

GFSCGP_con_mucape_066.txt.gz
CAPE
0 0 0 0 0 0 0 0 0 0 0 0 0 0 0 0 0 0 0 0 0 0 0 0 0 0 4 31 17 228 1391 1354 1259 1395 1331 1203 1012 1039 1304 1583 1580 1518 1311 1336
0 0 0 0 0 0 0 0 0 0 0 0 0 0 0 0 0 0 0 0 0 0 0 0 0 0 0 0 21 72 1238 1618 1639 1269 1267 1176 890 1003 1102 876 802 752 1339 1465
0 0 0 0 0 0 0 0 0 0 0 0 0 0 0 0 0 0 0 0 0 0 0 0 0 0 0 0 55 78 788 1353 1504 1289 1139 913 614 425 557 473 433 555 1134 1653
0 0 0 0 0 0 0 0 0 0 0 0 0 0 0 0 0 0 0 0 0 0 0 0 0 0 0 0 40 100 130 856 1277 1239 848 323 70 109 235 342 642 940 1318 1620
0 0 0 0 0 0 0 0 0 0 0 0 0 0 0 0 0 0 0 0 0 0 0 0 0 0 0 0 53 160 104 138 389 297 109 60 68 82 54 504 826 1278 1575 1685
0 0 0 0 0 0 0 0 0 0 0 0 0 0 0 0 0 0 0 0 0 0 0 0 0 0 0 0 93 293 225 117 146 100 58 13 20 148 350 624 1075 1634 1772 1743
0 0 0 0 0 0 0 0 0 0 0 0 0 0 0 0 0 0 0 0 0 0 0 0 0 0 0 0 91 176 192 131 78 57 103 93 25 67 293 623 1222 1719 1769 1660
0 0 0 0 0 0 0 0 0 0 0 0 0 0 0 0 0 0 0 0 0 0 0 0 0 0 0 0 15 84 106 84 11 35 44 232 144 18 191 620 1405 1711 1660 1666
0 0 0 0 0 0 0 0 7 11 1 0 0 0 0 31 0 0 0 0 0 0 0 0 0 0 0 0 0 42 22 0 0 0 1 138 272 115 319 962 1594 1872 1802 1719
0 0 0 0 0 0 3 8 16 25 0 0 0 0 0 4 2 2 0 0 0 0 0 0 0 0 0 0 0 121 44 0 0 0 65 308 428 690 711 1296 1745 1867 1876 1777
0 0 0 0 0 0 0 17 57 27 32 27 0 0 58 46 0 0 0 0 0 0 0 1 38 32 0 0 27 0 0 0 0 96 255 809 842 1023 1487 1629 1725 1916 1903 1770
0 0 0 0 0 0 0 18 18 5 2 7 0 0 4 2 0 0 0 0 0 0 16 51 90 648 781 788 701 631 334 83 157 702 1018 1142 1500 1794 2115 2013 1812 1932 1935 1597
1 0 0 0 0 0 0 0 3 14 14 4 3 0 0 0 0 0 0 0 31 19 1 61 55 194 699 930 803 752 592 812 1260 1452 1522 1660 1795 2073 2278 2500 2351 2074 1801 1506
24 0 0 0 0 0 0 0 6 21 22 2 0 0 0 1 0 0 0 0 2 0 0 7 42 108 929 1472 1325 816 1242 1755 1880 1867 1902 1948 2015 2193 2197 2521 2341 2240 1831 1494
0 0 0 0 0 0 0 0 0 5 18 23 1 0 0 0 0 13 10 1 0 0 0 32 36 82 708 1403 1510 1355 1933 2042 2006 2014 2072 2192 2320 2530 2470 1980 1887 1884 1461 1129
0 0 0 0 0 0 0 0 0 0 16 22 2 0 6 3 8 16 42 0 0 0 0 14 2 257 682 329 684 1339 1992 2151 2107 2062 1859 1703 1974 1842 1483 1459 951 894 571 468
0 0 0 0 0 0 0 0 0 2 9 2 0 0 0 0 0 14 9 6 0 0 2 6 22 41 198 179 351 534 1461 1772 1763 1578 1476 1602 1911 1463 1711 840 702 475 241 166
0 0 0 0 0 0 0 16 8 13 6 0 0 5 9 0 0 0 0 11 1 0 0 11 60 26 102 350 167 384 945 1260 1257 1315 1406 1538 1185 1074 777 513 118 105 79 77
1 5 9 0 0 0 0 11 9 0 0 0 1 0 0 0 0 0 0 1 14 0 0 8 34 0 196 305 38 178 540 918 1135 1109 1132 1012 782 621 443 152 149 106 90 50
16 13 18 0 0 0 0 0 0 0 0 8 0 0 0 0 0 0 0 0 0 0 0 0 23 0 51 48 29 0 266 306 755 973 915 690 558 340 255 195 230 184 7 5
34 9 2 7 0 0 0 3 2 0 0 22 0 0 0 0 0 0 0 0 0 0 0 0 12 0 0 1 27 1 25 257 642 676 713 388 256 249 170 38 49 64 31 12
0 0 0 0 0 0 6 6 0 0 0 0 4 1 0 0 0 0 0 0 0 0 0 0 0 0 0 5 6 0 44 309 436 407 317 300 299 167 59 76 60 53 38 26
0 7 24 0 0 0 12 13 1 1 0 0 7 8 0 0 0 0 0 0 0 0 0 0 0 0 34 20 199 365 208 230 291 379 392 378 197 142 93 135 159 133 76 43
1 16 0 0 0 0 0 0 3 0 16 12 20 21 15 0 0 0 0 0 0 0 0 0 0 0 69 84 23 143 276 189 373 443 483 377 221 143 132 135 153 171 91 54
0 0 0 0 0 0 0 4 4 3 14 5 5 9 0 0 0 0 0 0 0 0 0 0 0 0 10 57 0 82 373 300 403 428 442 496 111 152 130 114 168 191 101 31
0 0 0 0 0 5 0 0 4 29 28 27 7 0 0 0 0 0 0 0 0 0 0 0 0 0 0 2 0 190 268 319 426 345 290 170 166 149 185 137 72 52 33 24

GFSCGP_con_mucape_069.txt.gz
CAPE
0 0 0 0 0 0 0 0 0 0 0 0 0 0 0 0 0 0 0 0 0 0 0 0 0 0 0 0 0 6 136 318 812 752 723 723 731 777 859 979 954 1119 1222 1102
0 0 0 0 0 0 0 0 0 0 0 0 0 0 0 0 0 0 0 0 0 0 0 0 0 0 0 0 0 0 31 258 436 809 827 642 837 967 1159 1202 1285 1201 856 970
0 0 0 0 0 0 0 0 0 0 0 0 0 0 0 0 0 0 0 0 0 0 0 0 0 0 0 0 0 0 0 129 705 721 676 743 762 722 807 896 735 988 1203 1163
0 0 0 0 0 0 0 0 0 0 0 0 0 0 0 0 0 0 0 0 0 0 0 0 0 0 0 0 0 0 0 41 769 1069 884 755 530 700 710 484 440 658 371 994
0 0 0 0 0 0 0 0 0 0 0 0 0 0 0 0 0 0 0 0 0 0 0 0 0 0 0 0 0 0 0 0 193 1006 1026 849 637 642 494 447 340 445 702 1087
0 0 0 0 0 0 0 0 0 0 0 0 0 0 0 0 0 0 0 0 0 0 0 0 0 0 0 0 0 0 0 0 4 705 841 712 599 740 427 187 216 548 923 1225
0 0 0 0 0 0 0 0 0 0 0 0 0 0 0 0 0 0 0 0 0 0 0 0 0 0 0 0 0 0 0 0 0 103 312 578 670 562 431 105 306 661 1083 1376
0 0 0 0 0 0 0 0 0 0 0 0 0 0 0 0 0 0 0 0 0 0 0 0 0 0 0 0 0 0 0 0 0 6 80 233 546 478 167 117 425 602 998 1398
0 0 0 0 0 0 0 0 0 0 0 0 0 0 0 0 0 0 0 0 0 0 0 0 0 0 0 0 0 0 0 0 0 0 41 75 361 336 0 112 510 815 1116 1366
0 0 0 0 0 0 0 0 0 0 0 0 0 0 0 0 0 0 0 0 0 0 0 0 0 0 0 0 0 0 0 0 0 0 3 99 239 61 0 257 679 948 1126 1328
0 0 0 0 0 0 0 0 0 1 9 0 0 0 0 0 17 0 0 0 0 0 0 0 0 0 0 0 3 0 0 0 0 0 0 115 66 157 155 436 760 1056 1194 1349
0 0 0 0 0 0 0 0 0 0 0 14 3 0 0 0 3 0 0 0 0 0 0 0 0 0 0 91 116 89 0 0 0 0 10 187 309 497 524 647 827 1055 1298 1484
2 0 0 0 0 0 0 0 3 1 2 0 0 0 0 0 0 0 0 0 0 1 1 33 42 31 11 425 509 572 209 0 0 5 110 459 672 828 953 1070 1078 1236 1350 1506
13 15 0 0 0 0 0 0 2 4 0 0 0 0 0 0 0 0 0 0 5 5 65 61 115 178 78 184 393 1004 685 321 497 641 680 866 1144 1309 1368 1339 1262 1164 1308 1667
0 0 1 0 0 0 0 0 0 0 0 0 0 0 0 0 0 0 1 20 85 19 35 51 28 135 278 294 370 898 973 1263 1411 1359 1284 1280 1492 1475 1540 1707 1779 1894 1885 1912
2 0 2 0 0 0 0 0 0 0 0 0 0 0 0 0 0 16 13 5 60 0 0 0 0 79 333 362 299 577 1286 1838 1843 1671 1516 1560 1768 1883 1929 1898 2213 2321 1979 1640
0 0 0 0 0 0 0 0 0 0 0 0 0 0 0 0 0 0 0 0 30 13 0 0 0 56 32 472 198 296 452 2333 1904 1750 1818 1986 1928 1991 2085 2196 1881 2389 1713 1411
0 0 0 0 0 0 0 0 1 0 0 0 0 0 0 0 0 0 0 0 0 0 0 1 19 29 31 160 106 281 504 1535 1925 1978 2003 2100 2020 2178 2192 1645 1414 1280 945 664
4 6 1 0 0 0 0 4 19 0 0 0 0 0 0 0 0 0 0 0 0 0 0 0 0 35 14 61 94 232 209 647 1145 1332 1504 1586 1461 1605 1312 1227 719 609 387 205
7 19 4 0 0 0 0 27 7 0 0 0 0 1 0 0 0 0 0 0 0 0 0 0 0 0 0 18 83 5 94 125 508 918 1129 1092 1329 1149 921 674 391 123 80 75
9 9 0 0 0 0 0 3 7 6 0 0 0 0 0 0 0 0 0 0 0 0 0 0 0 0 12 0 128 50 16 41 368 617 666 779 743 669 544 235 127 70 29 6
0 0 0 0 0 0 15 21 22 0 0 14 2 0 0 0 0 0 0 0 0 0 0 0 0 0 5 4 128 68 25 24 43 341 351 626 521 389 148 115 113 45 0 0
0 0 0 0 0 0 2 1 0 1 0 2 1 0 0 0 0 0 0 0 0 0 0 0 0 0 0 13 137 88 17 5 57 20 509 244 122 175 135 37 0 24 3 0
0 0 0 0 0 0 0 0 10 0 17 21 0 0 0 0 0 0 0 0 0 0 0 0 0 0 3 4 122 77 61 0 32 236 233 145 206 174 18 12 9 6 3 1
0 0 0 0 0 0 0 0 4 4 15 10 0 1 2 12 12 0 0 0 0 0 0 0 0 0 2 38 95 39 38 105 182 247 263 234 154 12 14 21 43 56 63 33
0 0 0 0 0 4 0 3 19 22 24 15 20 0 0 0 0 0 0 0 0 0 0 0 0 0 0 4 4 52 71 173 183 222 296 166 51 29 33 61 75 57 28 31

GFSCGP_con_mucape_072.txt.gz
CAPE
0 0 0 0 0 0 0 0 0 0 0 0 0 0 0 0 0 0 0 0 0 0 0 0 0 0 0 0 0 0 32 163 761 749 735 604 385 214 144 244 329 418 467 493
0 0 0 0 0 0 0 0 0 0 0 0 0 0 0 0 0 0 0 0 0 0 0 0 0 0 0 0 0 0 0 5 129 577 581 579 652 507 335 382 370 470 572 596
0 0 0 0 0 0 0 0 0 0 0 0 0 0 0 0 0 0 0 0 0 0 0 0 0 0 0 0 0 0 0 0 0 325 565 596 607 624 580 586 738 728 838 899
0 0 0 0 0 0 0 0 0 0 0 0 0 0 0 0 0 0 0 0 0 0 0 0 0 0 0 0 0 0 0 0 0 6 361 529 516 624 693 619 652 936 1114 1187
0 0 0 0 0 0 0 0 0 0 0 0 0 0 0 0 0 0 0 0 0 0 0 0 0 0 0 0 0 0 0 0 0 0 150 287 341 388 534 616 617 627 636 727
0 0 0 0 0 0 0 0 0 0 0 0 0 0 0 0 0 0 0 0 0 0 0 0 0 0 0 0 0 0 0 0 0 0 38 237 359 429 498 549 612 543 418 394
0 0 0 0 0 0 0 0 0 0 0 0 0 0 0 0 0 0 0 0 0 0 0 0 0 0 0 0 0 0 0 0 0 0 0 230 463 558 572 494 602 438 340 592
0 0 0 0 0 0 0 0 0 0 0 0 0 0 0 0 0 0 0 0 0 0 0 0 0 0 0 0 0 0 0 0 0 0 0 5 274 393 541 592 453 415 364 546
0 0 0 0 0 0 0 0 0 0 0 0 0 0 0 0 0 0 0 0 0 0 0 0 0 0 0 0 0 0 0 0 0 0 0 0 9 209 296 521 436 470 380 540
0 0 0 0 0 0 0 0 0 0 0 0 0 0 0 0 0 0 0 0 0 0 0 0 0 0 0 0 0 0 0 0 0 0 0 0 0 58 169 361 320 494 450 681
0 0 0 0 0 0 0 0 0 0 0 0 0 0 0 0 0 0 0 0 0 0 0 0 0 0 0 0 0 0 0 0 0 0 0 0 0 0 77 181 281 442 464 743
0 0 0 0 0 0 0 0 0 0 0 0 0 0 0 0 0 0 0 0 0 0 0 0 1 1 0 0 0 0 0 37 4 0 0 0 0 0 54 125 377 398 533 756
1 0 0 0 0 0 0 0 0 0 0 0 0 0 0 0 0 0 0 2 7 0 0 0 2 7 10 0 0 8 16 303 339 17 0 0 0 7 110 227 376 491 635 872
16 0 0 0 0 0 0 0 0 0 0 0 0 0 0 0 0 0 0 0 0 0 6 4 0 14 23 17 2 40 181 622 665 123 0 34 108 261 335 425 510 638 801 998
0 0 0 0 0 0 0 0 0 0 0 0 0 0 0 0 0 0 4 14 1 0 30 72 0 8 20 12 45 74 225 883 511 0 17 195 434 606 748 716 749 823 935 1075
0 0 0 0 0 0 0 0 0 0 0 0 0 0 0 0 0 1 0 0 0 2 0 0 0 3 1 38 8 119 335 1333 1102 571 395 754 949 1056 1081 1029 1073 1080 1119 1111
0 0 0 0 0 0 0 0 0 0 0 0 0 0 0 0 0 0 0 0 0 0 0 0 0 1 57 0 60 154 204 1237 1711 1261 1105 1128 1189 1232 1405 1277 1079 1020 1080 1328
0 0 0 0 0 0 0 0 0 0 0 0 0 0 0 0 0 0 0 0 0 0 0 0 0 0 0 0 0 99 231 1442 1913 1520 1307 1282 1277 1253 1392 1455 1529 1804 2182 2047
8 20 0 0 0 0 0 0 2 0 0 0 0 0 0 0 0 0 0 0 0 0 0 0 0 0 0 17 59 67 124 512 1820 1493 1504 1606 1765 1862 1790 1687 1947 1817 1994 1676
5 21 4 0 0 0 0 0 0 5 0 0 0 0 1 5 0 0 0 0 0 0 0 0 0 0 0 2 75 91 65 257 706 1789 1492 1711 1805 1850 1724 1869 1663 1945 1627 1232
0 0 0 0 0 0 0 0 6 0 0 0 1 6 0 0 0 0 0 0 0 0 0 0 0 0 0 0 0 57 72 35 304 908 1006 1041 1082 1346 1185 1280 1280 1071 638 304
0 0 0 0 0 0 15 12 22 0 0 0 0 0 11 2 0 0 0 0 0 0 0 0 0 0 0 0 0 30 17 79 193 548 611 685 807 1019 861 794 559 328 183 111
0 12 0 0 0 0 1 1 0 0 0 23 0 0 0 0 0 0 0 0 0 0 0 0 0 0 0 0 0 43 14 42 87 309 292 603 722 514 647 325 117 94 63 1
0 0 0 0 0 0 0 0 0 0 8 11 0 0 0 0 0 0 0 0 0 0 0 0 0 0 0 0 50 79 77 35 38 471 73 247 558 429 151 107 73 58 18 0
0 0 0 0 0 0 9 0 7 7 5 12 7 5 3 0 0 0 0 0 0 0 0 0 0 0 0 0 31 59 54 32 28 88 85 148 282 135 113 97 67 7 0 0
0 0 0 0 0 0 0 3 4 13 39 3 0 0 0 0 0 0 0 0 0 0 0 0 0 0 0 0 7 19 31 10 110 125 85 117 252 153 47 25 13 14 11 35

GFSCGP_con_mucape_075.txt.gz
CAPE
0 0 0 0 0 0 0 0 0 0 0 0 0 0 0 0 0 0 0 0 0 0 0 0 0 0 0 0 0 0 0 5 364 817 869 562 444 353 150 256 152 108 67 73
0 0 0 0 0 0 0 0 0 0 0 0 0 0 0 0 0 0 0 0 0 0 0 0 0 0 0 0 0 0 0 0 0 533 1101 978 957 769 583 495 635 490 319 145
0 0 0 0 0 0 0 0 0 0 0 0 0 0 0 0 0 0 0 0 0 0 0 0 0 0 0 0 0 0 0 0 0 23 380 1304 1101 1023 1044 1047 990 851 726 355
0 0 0 0 0 0 0 0 0 0 0 0 0 0 0 0 0 0 0 0 0 0 0 0 0 0 0 0 0 0 0 0 0 0 0 618 419 751 1147 1497 1465 1367 1054 876
0 0 0 0 0 0 0 0 0 0 0 0 0 0 0 0 0 0 0 0 0 0 0 0 0 0 0 0 0 0 0 0 0 0 0 0 355 499 1088 1186 2249 2367 1752 1523
0 0 0 0 0 0 0 0 0 0 0 0 0 0 0 0 0 0 0 0 0 0 0 0 0 0 0 0 0 0 0 0 0 0 0 0 238 713 604 1314 1229 1218 1348 1751
0 0 0 0 0 0 0 0 0 0 0 0 0 0 0 0 0 0 0 0 0 0 0 0 0 0 0 0 0 0 0 0 0 0 0 0 14 620 1380 1670 1185 1484 1272 1537
0 0 0 0 0 0 0 0 0 0 0 0 0 0 0 0 0 0 0 0 0 0 0 0 0 0 0 0 0 0 0 0 0 0 0 0 0 0 274 1305 1207 1218 1429 1949
0 0 0 0 0 0 0 0 0 0 0 0 0 0 0 0 0 0 0 16 0 0 0 0 0 0 0 0 0 0 0 0 0 0 0 0 0 0 68 947 939 775 1636 1841
0 0 0 0 0 0 0 0 0 0 0 0 0 0 0 0 0 0 0 0 0 0 0 0 0 0 0 0 0 0 0 0 0 0 0 0 0 0 3 463 918 797 1492 1861
0 0 0 0 0 0 0 0 0 0 0 0 0 0 0 0 0 0 0 2 0 0 12 3 0 0 0 0 0 0 0 0 0 0 0 0 0 0 40 380 849 1103 1727 1880
0 0 0 0 0 0 0 0 0 0 0 0 0 0 0 0 0 0 0 0 0 44 27 7 4 0 0 0 0 0 0 0 0 0 2 0 0 0 108 476 821 1386 1697 1495
15 0 0 0 0 0 0 0 0 0 0 0 0 0 0 0 0 0 0 0 22 23 14 8 24 6 1 2 0 0 0 0 0 0 0 77 1 0 284 630 1054 1324 1299 1465
14 0 0 0 0 0 0 0 0 0 0 0 0 0 0 0 0 0 0 0 52 5 0 0 0 0 0 8 0 9 2 0 0 0 37 222 196 92 507 879 1179 1354 1456 1545
4 0 0 0 0 0 9 0 0 0 8 0 0 2 0 0 0 19 0 16 0 0 0 0 0 0 0 0 2 1 1 0 0 0 260 349 292 409 548 833 1199 1609 1714 1660
14 0 0 0 0 16 0 1 3 0 0 0 0 1 8 0 0 0 11 3 1 1 0 0 0 1 0 0 0 0 0 0 11 1 427 465 314 250 886 1248 1567 1725 1641 1796
0 1 0 0 0 0 0 0 0 0 0 0 8 0 5 0 0 0 22 0 3 4 0 0 14 10 0 0 0 0 0 0 25 1 610 385 217 580 1116 1374 1524 1699 1885 1986
0 0 0 0 0 0 0 0 0 3 0 0 8 3 0 0 0 2 0 0 8 0 0 2 5 0 0 0 0 0 6 0 0 213 793 316 490 1031 1499 1672 1599 1598 1447 1941
0 0 0 0 0 0 0 0 44 38 16 0 16 0 0 0 2 5 4 2 18 7 2 1 0 0 0 0 0 0 6 0 46 769 1074 742 1160 1461 1282 1331 1400 1749 1577 1510
29 38 11 0 0 0 12 6 10 1 0 0 0 0 0 4 15 0 9 4 5 4 3 0 0 0 0 0 0 5 1 4 464 1038 1482 1296 1337 1342 1485 1560 1735 1608 1552 1614
0 0 0 0 0 0 2 0 31 10 18 9 0 1 17 39 32 21 25 9 3 4 3 0 0 0 0 0 0 4 9 59 586 1074 1435 1719 1880 1727 1639 1682 1380 1887 1983 1915
0 0 0 0 0 0 50 50 13 59 16 0 0 0 40 39 27 30 18 5 1 2 3 0 0 0 0 0 0 0 26 18 443 819 1073 1258 1623 1616 1316 1572 1841 1749 1721 1528
0 0 0 0 11 79 28 9 2 0 0 0 0 0 0 0 0 28 0 0 0 0 0 9 0 0 0 0 6 26 27 16 412 594 908 823 972 1324 1537 1601 1368 1348 1191 1183
0 0 0 0 0 0 0 0 0 0 49 46 61 45 31 36 24 0 0 0 0 0 0 0 0 0 0 0 0 87 88 173 251 282 632 581 619 872 994 797 801 825 758 232
0 0 0 0 0 0 0 0 36 42 40 78 64 21 0 0 0 0 0 0 0 0 0 0 0 0 0 0 4 43 97 46 119 268 337 612 568 572 452 425 449 257 182 107
0 0 0 0 3 0 0 1 84 107 28 14 0 0 0 0 0 0 0 0 0 0 0 0 0 0 0 0 0 60 80 41 135 311 391 356 263 268 182 135 102 87 22 8

GFSCGP_con_mucape_078.txt.gz
CAPE
0 0 0 0 0 0 0 0 0 0 0 0 0 0 0 0 0 0 0 0 0 0 0 0 0 0 0 0 0 0 0 0 0 0 23 308 999 874 687 829 940 305 373 470
0 0 0 0 0 0 0 0 0 0 0 0 0 0 0 0 0 0 0 0 0 0 0 0 0 0 0 0 0 0 0 0 0 0 285 0 353 311 1194 1082 1155 740 516 510
0 0 0 0 0 0 0 0 0 0 0 0 0 0 0 0 0 0 0 0 0 0 0 0 0 0 0 0 0 0 0 0 0 0 0 39 447 806 880 1068 1416 1599 1255 1062
0 0 0 0 0 0 0 0 0 0 0 0 0 0 0 0 0 0 0 0 0 0 0 0 0 0 0 0 0 0 0 0 0 0 0 0 0 110 41 833 1604 2077 2158 1628
0 0 0 0 0 0 0 0 0 0 0 0 0 0 0 0 0 0 0 0 0 0 0 0 0 0 0 0 0 0 0 0 0 0 0 0 0 0 29 82 1357 3556 3386 2266
0 0 0 0 0 0 0 0 0 0 0 0 0 0 0 0 0 0 0 0 0 0 0 0 0 0 0 0 0 0 0 0 0 0 0 0 7 124 68 449 982 1737 2059 2529
3 0 0 0 0 0 0 5 0 0 0 0 0 0 0 0 0 0 0 0 0 0 0 0 0 0 0 0 0 0 0 0 0 0 0 0 0 41 501 861 68 1086 1297 1607
1 3 3 0 0 23 45 35 0 0 0 0 0 0 1 0 0 0 0 0 0 0 0 2 0 0 0 0 0 0 0 0 0 0 0 0 0 0 3 222 129 141 709 1517
0 8 5 0 1 0 33 0 31 0 0 0 0 0 1 0 0 0 0 0 0 0 0 0 0 0 0 0 0 0 0 0 0 0 0 0 0 0 2 218 992 357 1474 1230
5 0 16 17 1 3 10 38 0 0 0 0 0 0 8 3 0 0 1 11 0 0 0 0 0 0 0 0 0 0 0 0 0 0 0 0 0 0 0 46 372 785 1624 1825
16 19 0 12 14 19 48 1 30 57 90 0 0 30 9 0 1 4 2 2 11 11 1 0 0 0 0 0 0 0 0 0 0 0 0 0 0 0 0 0 8 392 1353 1377
31 42 0 2 39 39 17 26 86 2 65 44 28 4 0 1 0 1 4 8 6 0 0 7 1 0 1 10 0 0 0 0 0 0 0 3 6 2 10 0 222 575 936 1158
43 29 0 0 35 3 20 38 46 107 129 82 49 7 3 12 57 31 34 20 3 7 31 27 3 11 23 1 0 0 0 1 10 6 10 3 1 2 40 349 517 581 1224 1087
28 84 0 0 10 45 28 52 57 89 130 100 33 9 46 41 52 65 61 64 51 46 96 72 73 67 39 19 13 7 1 6 27 22 13 16 5 1 11 511 427 759 484 812
88 0 76 55 29 46 0 40 64 86 122 137 8 2 30 47 66 64 65 67 87 150 133 135 144 128 90 64 49 7 5 13 29 25 17 9 11 0 3 540 465 728 989 961
41 0 0 0 0 0 0 22 28 67 50 30 23 28 6 58 62 82 84 121 136 170 160 153 141 64 55 61 73 9 0 0 0 0 24 15 11 3 8 988 595 974 977 1548
0 43 66 36 11 0 0 2 26 44 44 66 102 65 52 72 79 109 127 140 135 116 111 123 102 78 54 69 51 19 0 0 0 0 7 20 16 6 19 794 719 1458 2338 3174
18 0 29 85 38 0 8 45 85 120 127 120 124 107 85 110 99 90 72 92 97 104 89 98 120 56 47 71 128 106 0 0 0 0 0 0 15 15 178 954 1264 2372 3353 3622
0 4 0 0 0 13 20 88 89 185 86 114 108 97 126 85 86 88 111 79 83 75 82 81 63 42 62 19 56 0 0 0 1 3 0 14 0 8 807 901 2198 3257 3614 3615
8 0 0 0 69 7 59 45 97 73 66 98 106 96 109 77 51 24 103 66 12 22 47 53 35 25 23 24 4 21 0 0 6 14 30 6 0 94 1141 2124 2882 3150 3339 3233
5 0 0 0 19 65 116 87 97 37 70 58 46 39 49 66 65 58 47 26 33 40 41 33 24 21 30 16 0 10 0 0 0 0 0 2 551 1293 1777 2166 2127 2196 2256 2425
36 53 68 144 104 0 78 42 81 111 55 82 73 40 29 30 37 36 37 32 24 48 30 20 9 9 8 4 0 3 1 26 0 182 575 894 1172 1345 1547 1872 1947 2050 2033 2056
83 60 72 60 101 115 39 42 27 32 0 0 50 56 36 46 37 44 41 3 7 19 27 15 0 4 6 0 21 2 15 15 42 431 755 1122 1424 1729 1768 1827 1876 2008 2223 1361
0 0 0 0 27 2 23 29 92 76 89 91 85 72 72 0 29 0 0 0 0 0 0 0 0 0 0 0 4 64 50 25 125 312 612 1029 1543 1733 1930 2010 1953 2037 1642 1419
0 0 0 0 0 0 0 25 23 71 72 91 36 0 0 0 0 0 0 0 0 0 0 0 0 0 0 1 1 19 97 47 131 311 519 1037 1237 1298 1552 1431 1741 1760 1552 1308
0 0 0 0 0 0 0 0 0 97 80 0 0 0 0 0 0 0 0 0 0 0 0 0 0 0 0 9 0 1 73 91 193 286 424 627 1014 1175 1155 951 903 1042 808 721

GFSCGP_con_mucape_084.txt.gz
CAPE
0 0 0 0 0 0 0 0 0 0 0 0 0 0 0 0 0 0 0 0 0 0 0 0 17 1 29 49 92 452 519 161 500 198 210 524 930 1852 1558 2010 1863 1592 1266 886
0 0 0 0 0 0 0 0 0 0 0 0 0 0 0 0 0 0 0 0 0 0 0 14 0 0 47 140 89 114 192 291 285 58 167 599 209 288 501 1456 1821 1844 1760 1251
0 0 0 0 0 0 0 0 0 0 0 0 0 0 0 0 0 0 0 0 0 0 0 9 0 0 30 44 32 25 12 13 67 146 15 28 17 12 41 24 64 1833 2417 1113
0 0 0 0 0 0 0 0 0 0 2 0 3 0 0 0 1 8 0 0 0 0 0 9 2 1 13 1 12 7 11 1 0 168 58 58 48 18 5 0 40 302 2337 2185
0 0 0 0 0 0 0 0 0 0 2 7 0 22 0 0 0 0 6 4 0 0 0 0 0 0 0 0 0 59 14 6 7 54 27 108 147 135 29 23 15 58 827 1417
0 0 0 0 0 0 0 0 2 1 7 31 0 37 0 2 28 18 44 0 0 0 0 0 0 0 0 0 0 44 25 259 280 199 74 15 216 117 87 29 87 77 70 131
3 3 1 0 0 1 1 6 16 16 93 89 30 73 104 41 0 0 12 0 0 0 0 1 16 23 22 12 30 32 34 241 519 314 351 179 158 225 177 98 70 1 0 208
0 0 4 9 7 4 12 34 77 0 114 144 111 17 4 5 9 1 0 2 0 0 0 1 18 55 41 57 72 36 24 359 306 302 244 373 304 182 108 82 59 30 2 0
0 0 7 15 9 28 45 94 45 141 89 71 92 17 46 115 76 14 0 0 0 0 0 0 9 5 26 47 202 327 185 211 262 101 112 332 271 321 57 103 146 122 150 51
0 0 0 0 8 17 31 31 63 180 88 148 23 64 104 118 110 4 0 0 0 0 0 0 34 50 62 22 120 449 312 173 76 176 202 0 44 168 128 163 86 43 48 89
6 5 0 8 21 52 82 137 81 73 208 220 151 23 147 119 108 8 70 0 6 4 1 2 21 57 56 38 28 190 208 120 102 146 149 173 27 0 29 16 48 99 132 118
24 36 0 32 41 29 68 84 128 265 107 115 166 42 154 34 60 125 75 2 12 10 0 8 29 43 33 22 43 87 396 140 131 83 36 45 154 82 81 47 51 155 161 191
20 19 4 28 46 80 18 0 24 19 73 170 337 76 133 306 37 0 15 0 32 114 28 8 15 39 34 36 73 61 112 109 80 51 47 102 57 48 89 108 49 58 56 109
4 10 28 52 22 100 21 40 10 3 2 211 178 96 66 237 124 26 3 1 1 289 179 100 88 43 85 98 93 80 98 123 114 81 70 88 49 4 0 97 162 85 54 2
3 14 86 91 86 88 77 74 81 40 45 186 135 45 61 152 240 284 27 14 176 102 174 181 111 202 234 270 327 229 170 139 125 179 89 145 71 11 0 1 1 17 25 20
16 39 64 40 69 83 65 44 36 28 74 195 76 31 39 104 175 98 127 159 227 183 133 270 171 138 176 326 337 315 292 347 285 173 133 82 8 0 0 16 1 0 0 30
1 1 32 0 36 49 8 73 79 68 129 137 151 143 225 90 110 150 91 124 127 165 208 103 68 126 381 351 346 336 455 356 310 300 151 76 50 10 0 0 0 0 0 1
0 0 22 68 50 0 4 57 87 122 145 163 58 180 54 49 103 112 124 193 186 58 64 35 110 257 297 342 301 238 171 369 300 264 171 78 39 24 4 2 15 2 0 0
6 25 62 44 66 5 1 74 78 46 0 90 177 45 15 44 50 97 63 72 15 14 6 16 42 87 97 59 14 45 54 53 106 99 63 76 88 23 23 32 24 21 0 0
31 1 64 65 1 1 198 53 52 56 239 45 70 41 54 15 21 6 39 2 1 25 21 0 0 1 1 49 105 60 27 17 102 63 59 66 66 47 40 43 11 0 0 0
71 8 0 29 45 14 137 169 138 70 117 99 4 31 57 44 46 43 26 33 23 16 10 6 6 23 18 38 23 0 0 0 10 73 68 63 79 76 64 11 0 0 0 0
70 76 97 76 84 65 21 48 65 73 59 21 26 27 10 37 26 34 60 50 37 34 15 9 3 4 14 12 0 0 0 0 24 13 7 7 12 0 0 0 0 0 0 0
83 72 211 93 131 306 119 19 32 7 10 0 0 0 0 0 0 51 63 53 24 7 0 0 1 0 0 0 0 0 0 0 43 0 3 16 0 0 0 0 0 0 0 31
30 28 35 34 45 8 0 0 0 0 0 0 0 0 0 0 0 0 0 0 0 0 0 0 0 0 0 0 0 0 0 0 0 19 68 29 2 0 0 0 0 0 49 15
38 41 0 0 0 0 0 0 0 0 0 0 0 0 0 0 0 0 0 0 0 0 0 0 0 0 0 0 0 0 2 0 12 67 103 18 0 0 0 0 3 19 118 450
0 0 0 0 0 0 0 0 0 0 0 0 0 0 0 0 0 0 0 0 0 0 0 0 0 1 0 0 0 5 0 0 4 104 233 105 4 7 1 34 0 0 393 945

GFSCGP_con_mucape_087.txt.gz
CAPE
0 0 0 0 0 0 0 0 0 0 0 0 0 0 0 0 0 0 0 0 0 0 0 0 0 0 0 23 35 26 79 1116 1237 1604 1209 438 1151 1261 1123 1230 1070 740 862 1013
0 0 0 0 0 0 0 0 0 0 0 0 0 0 0 0 0 0 0 0 0 0 0 0 0 0 0 0 0 60 243 525 1062 752 640 346 272 840 1139 1153 1353 1243 917 802
0 0 0 0 0 0 0 0 0 0 0 0 0 0 0 0 0 0 0 0 0 0 0 0 0 0 0 0 0 0 14 52 77 396 324 158 162 66 228 712 444 1189 1383 1007
0 0 0 0 0 0 0 0 0 0 0 0 0 0 0 0 0 0 0 0 0 0 0 0 0 0 0 0 0 0 0 0 0 11 31 51 44 34 0 1 6 11 13 970
0 0 0 0 0 0 0 0 0 0 0 0 0 0 0 0 0 0 0 0 0 0 0 0 0 8 0 0 0 0 0 0 0 0 2 42 69 93 125 8 0 0 9 339
0 0 0 0 0 0 0 0 0 0 0 0 0 0 0 0 0 0 0 0 0 0 0 6 3 0 0 0 0 0 0 0 0 0 0 0 12 135 86 17 12 41 86 85
0 0 0 0 0 0 0 0 0 0 0 0 0 0 0 0 12 3 1 0 0 0 0 0 0 0 0 0 0 0 0 0 10 0 1 0 0 11 76 142 77 40 12 1
0 0 0 0 0 0 0 0 0 0 0 0 0 0 0 9 32 2 1 0 0 0 0 0 0 0 0 0 0 0 0 0 1 52 0 20 51 15 14 41 141 94 36 1
0 0 0 0 0 1 0 0 3 11 13 1 0 0 0 24 37 8 1 1 0 0 0 0 0 0 0 0 0 0 0 0 0 135 104 10 2 0 0 0 0 36 102 101
0 0 0 0 0 0 25 15 1 20 15 5 3 0 0 36 53 138 18 1 0 0 0 0 0 1 0 0 3 8 11 0 0 21 0 0 23 31 46 8 3 0 0 21
0 0 0 0 0 0 0 11 15 18 7 25 0 0 61 89 14 17 32 11 0 0 0 0 0 0 0 0 0 0 27 4 8 21 14 5 0 0 0 0 4 11 2 32
0 0 0 0 0 2 0 20 17 20 0 0 1 0 31 56 41 0 1 1 0 0 0 0 2 0 0 1 0 0 22 43 41 26 23 24 13 0 0 0 0 0 0 43
0 0 0 0 0 0 13 30 32 26 3 0 5 0 37 22 76 0 3 0 0 0 0 0 7 0 14 5 1 0 0 77 41 46 33 6 0 0 0 0 0 15 4 0
49 0 0 0 0 3 11 1 5 67 24 0 14 0 0 0 65 70 27 10 3 0 0 0 1 5 9 10 0 0 0 0 0 17 18 4 0 0 0 0 0 0 3 20
0 0 0 8 10 41 19 7 2 8 15 54 0 39 0 18 27 6 33 7 7 0 0 0 0 0 24 81 47 57 47 8 28 16 14 17 8 0 0 0 0 0 0 0
0 0 11 0 0 0 0 0 0 8 44 47 25 1 42 72 34 8 60 97 72 51 50 46 35 18 42 54 48 83 87 142 61 50 46 21 25 2 0 0 0 0 0 0
0 0 0 0 0 0 0 0 0 1 0 52 37 14 114 85 5 35 76 53 107 100 66 58 23 1 21 32 52 53 50 34 35 42 102 70 61 24 0 0 0 0 0 0
0 0 0 0 0 0 0 16 21 4 16 43 108 109 65 8 9 13 2 4 3 0 0 5 4 12 2 5 17 30 42 29 23 14 19 14 64 76 33 1 0 0 0 0
9 0 0 0 0 0 0 6 2 23 33 47 4 9 0 0 0 0 0 0 0 0 0 0 0 0 0 0 0 0 0 0 0 0 0 0 0 4 14 4 0 0 0 0
11 0 4 0 0 0 24 112 53 57 7 30 27 1 0 0 0 0 0 0 0 0 0 0 0 0 0 0 0 0 0 0 0 2 3 7 7 8 15 14 5 2 0 0
14 4 0 0 0 0 13 2 1 0 8 0 0 0 0 0 0 0 0 0 0 0 0 0 0 0 0 0 0 0 0 0 0 0 0 0 0 8 30 34 35 15 3 0
16 9 11 0 0 0 4 0 0 0 0 0 0 0 0 0 0 0 0 0 0 0 0 0 0 0 0 0 0 0 0 0 0 0 0 0 0 23 39 55 58 44 23 7
31 17 0 11 3 18 14 6 2 0 0 0 0 0 0 0 0 0 0 0 0 0 0 0 0 0 0 0 0 0 0 0 0 0 0 0 0 0 0 6 54 5 3 0
0 10 0 0 10 0 0 0 0 0 0 0 0 0 0 0 0 0 0 0 0 0 0 0 0 0 0 0 0 0 0 2 0 0 3 62 64 33 13 2 0 0 0 0
6 3 0 0 0 0 0 0 0 0 0 0 0 0 0 0 0 0 0 0 0 0 0 0 0 0 0 0 0 0 0 0 0 0 59 108 68 20 0 0 2 0 0 0
0 0 0 0 0 0 0 0 0 0 0 0 0 0 0 0 0 0 0 0 0 0 0 0 0 0 0 0 1 0 4 2 7 39 84 108 25 0 32 0 0 0 0 0

GFSCGP_con_mucape_090.txt.gz
CAPE
0 0 0 0 0 0 0 0 0 0 0 0 0 0 0 0 0 0 0 0 0 0 0 0 0 0 0 71 112 40 426 1124 1219 1439 1412 1277 1016 915 767 538 473 535 376 1376
0 0 0 0 0 0 0 0 0 0 0 0 0 0 0 0 0 0 0 0 0 0 0 0 0 0 3 37 193 150 62 718 1331 1204 1027 456 216 664 618 985 924 1067 1077 911
0 0 0 0 0 0 0 0 0 0 0 0 0 0 0 0 0 0 0 0 0 0 0 0 0 8 10 0 51 106 101 143 1234 1099 887 698 405 358 327 417 567 1087 1202 1115
0 0 0 0 0 0 0 0 0 0 0 0 0 0 0 0 0 0 0 0 0 0 0 0 0 2 1 30 46 67 44 4 630 1037 855 598 426 213 179 112 129 342 418 432
0 0 0 0 0 0 0 0 0 0 0 0 0 0 0 0 0 0 0 0 0 0 0 0 0 0 16 12 0 0 0 0 0 1 55 481 525 272 162 68 6 49 58 26
0 0 0 0 0 0 0 0 0 0 0 0 0 0 0 0 0 0 0 0 0 0 0 0 0 21 0 0 0 0 0 0 0 0 0 0 0 1 57 66 52 27 52 38
0 0 0 0 0 0 0 0 0 0 0 0 0 0 0 0 0 0 0 0 0 0 1 0 57 127 10 0 0 0 0 0 0 0 0 0 0 0 3 24 8 13 9 12
0 0 0 0 0 0 0 0 0 0 0 0 0 0 0 0 0 0 0 0 1 8 84 71 89 133 39 9 0 0 0 0 0 0 0 0 0 0 0 0 11 58 72 59
0 0 0 0 0 0 0 0 0 0 0 0 0 0 0 0 0 0 0 20 1 30 0 2 14 22 47 24 0 0 0 0 0 0 0 0 0 0 0 0 0 0 0 2
0 0 0 0 0 0 0 0 0 0 0 0 1 3 0 0 0 0 1 13 21 7 3 0 0 1 4 5 0 0 0 0 0 0 1 0 0 13 0 0 0 0 0 0
0 0 0 0 0 0 0 0 0 0 0 0 0 0 9 1 0 1 5 3 33 4 22 6 0 21 38 42 24 2 0 0 0 0 11 105 89 0 12 2 0 0 0 0
0 0 0 0 0 0 0 0 0 0 0 5 3 0 0 1 1 0 14 5 1 0 0 0 0 0 0 3 1 4 4 3 0 0 0 71 38 0 0 0 0 0 0 0
0 0 0 0 0 0 0 0 2 15 15 2 0 0 46 3 0 0 0 2 0 6 1 0 0 0 0 0 0 0 0 0 5 0 0 0 0 0 0 0 0 0 0 0
0 0 0 0 0 0 0 0 11 10 9 11 1 0 1 9 13 0 0 0 1 1 7 2 0 0 1 0 2 0 0 0 5 15 3 0 0 0 0 0 0 0 1 5
0 0 0 0 0 1 0 0 34 24 12 3 0 0 0 26 98 40 26 81 64 19 5 0 0 0 0 0 0 1 2 7 2 2 34 20 1 2 0 0 0 0 0 0
0 0 0 0 0 0 0 0 0 0 0 0 0 0 60 154 85 12 15 11 13 119 41 22 7 15 4 0 0 0 0 0 31 48 6 7 3 41 0 0 0 0 0 0
0 0 0 0 0 0 0 0 0 1 9 1 2 4 24 36 2 25 20 23 4 0 2 14 7 2 23 16 4 14 39 48 35 25 40 36 31 27 23 11 0 0 0 0
0 0 0 0 0 0 0 6 14 2 7 1 0 1 1 3 0 0 0 0 0 0 0 0 0 0 1 11 18 26 34 34 33 23 9 21 20 20 20 10 1 0 0 0
0 0 0 0 0 0 0 37 4 11 51 6 2 0 0 0 0 0 0 0 0 0 0 0 0 0 0 0 1 6 5 2 9 9 0 0 1 3 0 0 0 4 0 0
0 1 0 0 0 0 19 12 2 17 0 10 0 0 0 0 0 0 0 0 0 0 0 0 0 0 0 0 0 0 0 0 0 0 0 0 0 0 0 0 0 0 0 0
4 0 0 0 0 0 0 0 0 5 0 0 0 0 0 0 0 0 0 0 0 0 0 0 0 0 0 0 0 0 0 0 0 0 0 0 0 0 0 0 0 11 4 0
12 10 0 9 0 0 2 0 0 0 0 0 0 0 0 0 0 0 0 0 0 0 0 0 0 0 0 0 0 0 0 0 0 0 0 0 0 0 0 0 0 0 5 20
1 0 0 0 0 15 1 0 0 0 0 0 0 0 0 0 0 0 0 0 0 0 0 0 0 0 0 0 0 0 0 0 0 0 0 0 0 0 0 0 0 0 0 1
0 0 0 0 0 0 0 0 0 0 0 0 0 0 0 0 0 0 0 0 0 0 0 0 0 0 0 0 0 0 0 0 0 0 0 0 0 0 0 0 0 0 0 0
0 0 0 0 0 0 0 0 0 0 0 0 0 0 0 0 0 0 0 0 0 0 0 0 0 0 0 0 0 0 0 5 0 2 1 14 34 26 10 11 0 0 0 0
0 0 0 0 0 0 0 0 0 0 0 0 0 0 0 0 0 0 0 0 0 0 0 0 0 0 0 0 0 5 0 0 2 12 51 116 110 23 25 14 0 0 0 2

GFSCGP_con_mucape_093.txt.gz
CAPE
0 0 0 0 0 0 0 0 0 0 0 0 0 0 0 0 0 0 0 0 0 0 0 0 0 0 0 0 250 1662 1584 1551 1814 1981 2104 1941 1761 1467 1135 1089 992 874 795 1113
0 0 0 0 0 0 0 0 0 0 0 0 0 0 0 0 0 0 0 0 0 0 0 0 0 0 0 1 90 430 1730 1806 1650 1338 1361 1292 1435 1502 1334 1130 981 877 588 520
0 0 0 0 0 0 0 0 0 0 0 0 0 0 0 0 0 0 0 0 0 0 0 0 0 0 0 0 65 135 786 1373 1422 1542 1446 900 674 662 1022 981 1155 1049 696 455
0 0 0 0 0 0 0 0 0 0 0 0 0 0 0 0 0 0 0 0 0 0 0 0 0 0 0 0 33 170 261 993 1530 1710 1623 1280 698 438 308 252 230 520 1207 1024
0 0 0 0 0 0 0 0 0 0 0 0 0 0 0 0 0 0 0 0 0 0 0 0 0 0 0 0 57 305 320 485 967 1500 1485 1180 761 620 431 265 171 125 130 216
0 0 0 0 0 0 0 0 0 0 0 0 0 0 0 0 0 0 0 0 0 0 0 0 0 0 0 0 128 360 342 258 317 727 1096 1129 849 656 591 482 232 149 88 65
0 0 0 0 0 0 0 0 0 0 0 0 0 0 0 0 0 0 0 0 0 0 0 0 0 0 0 10 267 334 298 141 45 29 6 1 0 0 0 12 37 118 112 117
0 0 0 0 0 0 0 0 0 0 0 0 0 0 0 0 0 0 0 0 0 0 0 0 0 18 16 119 313 386 252 83 24 10 6 1 0 0 0 0 0 0 0 0
0 0 0 0 0 0 0 0 0 0 0 0 0 0 0 0 0 0 0 0 0 0 0 8 36 69 153 232 208 111 76 19 12 29 5 0 0 0 0 0 0 0 0 0
0 0 0 0 0 0 0 0 0 0 0 0 0 0 0 0 0 0 0 0 0 0 0 0 1 191 275 176 89 60 0 0 0 0 1 2 0 0 0 0 0 0 0 0
0 0 0 0 0 0 0 0 0 0 0 0 0 0 0 0 0 0 0 4 2 0 0 1 0 2 10 36 57 14 6 6 0 0 1 3 0 0 0 14 0 0 0 0
0 0 0 0 0 0 0 0 0 0 0 0 0 0 0 0 5 0 0 0 13 13 0 0 0 0 0 0 1 0 24 8 2 0 0 0 1 1 29 47 0 0 0 0
0 0 0 0 0 0 0 0 0 0 0 0 0 0 0 0 0 0 0 0 0 3 0 0 0 6 1 0 2 19 55 61 19 3 0 0 4 17 53 135 38 0 0 0
0 0 0 0 0 0 0 0 2 2 0 0 0 0 0 0 0 0 50 102 46 8 7 1 6 0 0 0 0 0 0 7 13 0 0 0 0 3 29 95 26 0 0 0
0 0 0 0 0 0 0 0 0 0 0 0 0 0 0 0 5 31 29 16 37 42 5 19 4 2 0 0 0 0 2 3 6 2 0 0 0 0 0 3 4 0 0 0
0 0 0 0 0 0 0 0 0 0 0 0 0 0 0 0 3 7 6 4 3 11 20 16 43 25 10 8 8 1 3 3 0 5 1 6 0 14 0 0 0 0 0 0
0 0 0 0 0 0 0 0 0 0 2 2 0 1 2 1 0 8 8 2 0 0 0 2 1 23 22 18 13 1 5 3 0 0 0 2 0 4 4 8 15 11 9 8
0 0 0 0 0 0 0 1 5 7 9 8 1 0 0 0 0 0 1 0 0 0 0 0 0 0 0 3 12 0 2 2 0 0 0 1 0 1 22 39 19 19 15 2
0 0 0 0 0 0 0 42 1 0 1 3 1 0 0 0 0 0 0 0 0 0 0 0 0 0 0 0 0 0 0 0 0 0 0 3 7 6 16 19 17 12 16 1
0 4 0 0 0 0 1 0 0 2 0 0 0 0 0 0 0 0 0 0 0 0 0 0 0 0 0 0 0 0 0 0 0 0 0 2 7 3 1 1 0 0 0 0
0 0 0 0 0 0 0 0 0 0 0 0 0 0 0 0 0 0 0 0 0 0 0 0 0 0 0 0 0 0 0 0 0 0 0 0 0 0 0 0 0 0 0 0
0 0 2 0 0 0 1 0 0 0 0 0 0 0 0 0 0 0 0 0 0 0 0 0 0 0 0 0 0 0 0 0 0 0 0 0 0 0 0 0 0 0 0 0
1 0 0 0 0 4 7 0 0 0 0 0 0 0 0 0 0 0 0 0 0 0 0 0 0 0 0 0 0 0 0 0 0 0 0 0 0 0 0 0 0 0 0 0
0 0 2 0 0 0 0 0 0 0 0 0 0 0 0 0 0 0 0 0 0 0 0 0 0 0 0 0 0 0 0 0 0 0 0 0 0 0 0 0 0 0 0 0
0 0 0 0 0 0 0 0 0 0 0 0 0 0 0 0 0 0 0 0 0 0 0 0 0 0 0 0 0 0 1 5 12 5 6 0 0 0 0 0 1 0 1 0
0 0 0 0 0 0 0 0 0 0 0 0 0 0 0 0 0 0 0 0 0 0 0 0 0 0 0 0 0 0 6 7 6 0 0 0 20 38 27 31 21 8 0 0

GFSCGP_con_mucape_096.txt.gz
CAPE
0 0 0 0 0 0 0 0 0 0 0 0 0 0 0 0 0 0 0 0 0 0 0 0 0 0 0 0 0 707 1237 1534 1836 1595 1400 1546 1456 1255 1069 1028 1017 1016 916 991
0 0 0 0 0 0 0 0 0 0 0 0 0 0 0 0 0 0 0 0 0 0 0 0 0 0 0 0 0 0 1202 1573 1854 1701 1544 1698 1691 1796 1839 1733 1392 1020 1142 1322
0 0 0 0 0 0 0 0 0 0 0 0 0 0 0 0 0 0 0 0 0 0 0 0 0 0 0 0 0 0 211 1677 1810 1818 2059 2225 2161 1979 1947 1718 1633 1479 1291 1246
0 0 0 0 0 0 0 0 0 0 0 0 0 0 0 0 0 0 0 0 0 0 0 0 0 0 0 0 0 0 6 809 1908 1995 2350 2464 2245 1698 1684 1964 1773 1554 1342 1064
0 0 0 0 0 0 0 0 0 0 0 0 0 0 0 0 0 0 0 0 0 0 0 0 0 0 0 0 0 0 0 56 1375 2245 2231 1942 1615 1118 1105 1552 1484 1549 1476 1396
0 0 0 0 0 0 0 0 0 0 0 0 0 0 0 0 0 0 0 0 0 0 0 0 0 0 0 0 0 0 0 1 656 1858 1997 1669 1302 1055 998 789 545 415 309 258
0 0 0 0 0 0 0 0 0 0 0 0 0 0 0 0 0 0 0 0 0 0 0 0 0 0 0 0 0 0 0 3 370 1528 1980 2038 1946 1619 1390 941 625 530 425 310
0 0 0 0 0 0 0 0 0 0 0 0 0 0 0 0 0 0 0 0 0 0 0 0 0 0 0 0 0 0 0 160 463 1023 1357 1625 1374 763 317 66 2 0 0 0
0 0 0 0 0 0 0 0 0 0 0 0 0 0 0 0 0 0 0 0 0 0 0 0 0 0 0 0 0 7 108 379 488 478 386 234 109 48 21 0 0 0 0 0
0 0 0 0 0 0 0 0 0 0 0 0 0 0 0 0 0 0 0 0 0 0 0 0 0 0 0 14 85 254 395 405 324 162 162 38 4 0 0 0 0 0 0 0
0 0 0 0 0 0 0 0 0 0 0 0 0 0 0 0 0 0 0 0 0 0 0 1 0 0 0 50 189 237 175 128 86 19 1 0 0 0 0 0 0 0 0 0
0 0 0 0 0 0 0 0 0 0 0 0 0 0 0 0 0 0 0 0 0 0 0 0 34 7 1 0 16 116 175 102 25 14 31 25 1 5 2 25 30 23 21 6
0 0 0 0 0 0 0 0 0 0 0 0 0 0 0 0 0 0 0 0 0 0 1 15 42 21 17 0 0 0 0 1 25 9 0 5 5 0 3 38 102 99 110 33
0 0 0 0 0 0 0 0 0 0 0 0 0 0 0 0 0 0 0 0 0 0 7 34 44 10 19 0 5 0 0 0 0 0 6 2 8 9 5 0 27 68 79 93
0 0 0 0 0 0 0 0 0 0 0 0 0 0 0 0 0 0 0 0 0 4 13 12 32 3 2 1 0 0 0 0 0 0 0 0 13 12 0 0 0 0 17 39
0 0 0 0 0 0 0 0 0 0 0 0 0 0 0 0 0 0 0 0 0 0 0 0 16 0 0 0 1 0 8 4 0 0 0 0 0 0 0 0 0 0 0 0
0 0 0 0 0 0 0 0 0 0 0 0 0 0 0 0 0 0 0 0 0 0 0 0 0 0 0 0 0 4 14 2 0 0 0 0 0 0 0 0 7 0 0 11
0 0 0 0 0 0 0 0 0 0 0 1 0 0 0 0 0 0 0 0 0 0 0 0 0 0 0 0 0 0 0 0 0 0 0 0 0 0 0 0 4 2 3 7
0 0 0 0 0 0 0 2 1 0 0 0 0 0 0 0 0 0 0 0 0 0 0 0 0 0 0 0 0 0 0 0 0 0 0 0 0 0 0 0 0 0 0 3
1 0 0 0 0 0 0 0 0 0 0 0 0 0 0 0 0 0 0 0 0 0 0 0 0 0 0 0 0 0 0 0 0 0 0 0 0 0 0 0 0 0 0 0
0 0 0 0 0 0 0 0 0 0 0 0 0 0 0 0 0 0 0 0 0 0 0 0 0 0 0 0 0 0 0 0 0 0 0 0 0 0 0 0 0 0 0 0
0 0 0 0 0 0 0 1 0 0 0 0 0 0 0 0 0 0 0 0 0 0 0 0 0 0 0 0 0 0 0 0 0 0 0 0 0 0 0 0 0 0 0 0
0 0 0 0 0 0 0 0 0 0 0 0 0 0 0 0 0 0 0 0 0 0 0 0 0 0 0 0 0 0 0 0 0 0 0 0 0 0 0 0 0 0 0 0
1 0 14 0 0 0 0 0 0 0 0 0 0 0 0 0 0 0 0 0 0 0 0 0 0 0 0 0 0 0 0 0 0 0 0 0 0 0 0 0 0 0 0 0
0 0 0 0 0 0 0 0 0 0 0 0 0 0 0 0 0 0 0 0 0 0 0 0 0 0 0 0 0 0 0 0 0 0 0 0 0 0 0 2 0 0 0 0
0 0 0 0 0 0 0 0 0 0 0 0 0 0 0 0 0 0 0 0 1 0 0 0 0 0 0 0 0 0 0 0 0 0 0 0 0 0 0 0 0 2 0 0

GFSCGP_con_mucape_102.txt.gz
CAPE
0 0 0 0 0 0 0 0 0 0 0 0 0 0 0 0 0 0 0 0 0 0 0 0 0 0 0 0 0 71 188 2074 3165 3134 3144 3029 2750 2647 2476 2361 2203 1950 1555 1677
0 0 0 0 0 0 0 0 0 0 0 0 0 0 0 0 0 0 0 0 0 0 0 0 0 0 0 0 0 0 284 709 2422 2797 2887 2630 2456 2480 2724 2685 2671 2383 2158 2078
0 0 0 0 0 0 0 0 0 0 0 0 0 0 0 0 0 0 0 0 0 0 0 0 0 0 0 0 0 0 113 575 972 2424 2332 2811 2822 3138 3103 3148 3041 2902 2617 2453
0 0 0 0 0 0 0 0 0 0 0 0 0 0 0 0 0 0 0 0 0 0 0 0 0 0 0 0 0 0 2 236 591 1306 2277 3746 3071 2613 2687 3296 3221 3241 2800 2581
0 0 0 0 0 0 0 0 0 0 0 0 0 0 0 0 0 0 0 0 0 0 0 0 0 0 0 0 0 0 0 96 487 783 1993 2330 3191 2103 2276 2546 3829 4245 4056 2998
0 0 0 0 0 0 0 0 0 0 0 0 0 0 0 0 0 0 0 0 0 0 0 0 0 0 0 0 0 0 0 37 159 539 1018 2387 3284 3342 2323 2666 3001 3395 3907 3990
0 0 0 0 0 0 0 0 0 0 0 0 0 0 0 0 0 0 0 0 0 0 0 0 0 0 0 0 0 0 0 94 182 232 373 770 2111 3636 4423 4221 3157 3813 3498 3390
0 0 0 0 0 0 0 0 0 0 0 0 0 0 0 0 0 0 0 0 0 0 0 0 0 0 0 0 0 0 0 50 150 199 285 399 562 1233 2370 3420 2971 3065 2975 3101
0 0 0 0 0 0 0 0 1 0 0 0 0 0 9 3 5 0 0 0 0 0 0 0 0 0 0 0 0 0 0 37 168 265 401 464 594 958 1851 3367 3434 3272 3502 2610
0 0 0 0 0 0 0 0 0 0 0 0 0 0 0 0 3 24 0 0 0 0 0 0 0 0 0 0 0 0 0 2 59 123 197 459 803 1231 2057 2691 2799 2565 2262 1958
0 0 0 0 0 0 0 0 0 0 0 0 0 0 0 3 6 2 0 0 0 0 0 0 3 1 0 0 0 0 0 0 0 22 165 229 529 735 1280 1662 1891 1348 1050 759
0 0 0 0 0 6 0 0 0 0 0 0 0 0 12 40 15 6 19 3 0 0 0 0 0 16 18 10 0 0 0 0 0 19 77 247 331 322 349 471 636 847 1047 888
0 0 0 0 0 0 0 0 0 0 0 0 0 0 0 2 0 0 0 0 0 4 3 0 3 14 37 37 21 3 0 0 0 2 16 143 319 640 709 748 871 696 879 1116
0 0 0 0 0 0 0 0 0 0 0 0 0 0 66 17 0 0 0 6 6 13 10 8 6 2 13 1 0 0 0 0 0 0 3 24 84 162 630 930 895 983 811 736
0 0 0 0 0 0 0 0 0 0 0 0 0 0 0 0 0 18 10 6 15 15 13 13 6 1 1 0 0 0 0 0 0 0 0 0 1 19 21 279 704 728 547 545
0 0 0 0 0 0 0 0 0 0 0 0 0 0 8 36 13 37 57 32 10 5 5 5 2 0 0 0 0 0 0 0 0 0 0 2 0 0 8 120 445 615 381 522
0 0 0 0 0 0 0 0 0 0 0 0 0 32 63 90 67 66 24 9 10 15 10 5 1 0 8 8 10 8 0 0 0 0 0 0 0 0 0 0 129 361 602 780
1 0 0 0 0 0 0 15 1 9 8 17 38 83 70 34 34 17 12 12 23 22 17 14 13 0 0 10 3 0 0 0 0 0 0 0 0 0 0 0 0 108 391 651
0 0 0 0 0 0 0 8 57 54 56 56 78 70 31 26 17 2 6 11 23 30 32 33 6 0 0 0 0 0 0 0 0 0 0 0 0 0 0 0 0 0 43 307
0 0 0 0 0 0 58 24 3 7 27 22 4 14 13 17 0 0 16 16 0 0 0 0 0 0 0 0 0 0 0 0 0 0 0 0 0 0 0 0 0 0 0 0
0 0 0 0 0 21 28 15 2 17 72 23 16 18 0 0 0 0 0 0 0 0 0 0 0 0 0 0 0 0 0 0 0 0 0 0 0 0 0 0 0 0 0 1
0 0 0 0 0 0 29 35 43 104 28 5 13 12 0 0 0 0 0 0 0 0 0 0 0 0 0 0 0 0 0 0 0 0 0 0 0 0 0 0 0 28 28 21
0 0 138 130 77 84 78 51 44 33 0 27 1 0 0 0 0 0 0 0 0 0 0 0 0 0 0 0 0 0 0 0 0 0 0 0 0 0 0 0 0 0 41 7
0 35 11 49 56 56 43 32 29 0 0 3 0 0 0 0 0 0 0 0 0 0 0 0 0 0 0 2 0 0 0 1 0 0 0 0 0 0 0 0 0 0 0 0
0 0 14 38 46 30 21 9 21 0 25 0 0 0 0 0 0 0 0 0 0 0 0 0 0 0 0 6 2 0 0 5 6 3 0 0 0 0 0 0 0 0 0 0
56 40 101 59 15 23 0 21 23 14 0 0 0 0 0 0 0 0 0 0 0 0 0 0 0 0 0 0 1 1 0 0 0 0 0 0 0 0 0 0 1 0 0 0

GFSCGP_con_mucape_105.txt.gz
CAPE
0 0 0 0 0 0 0 0 0 0 0 0 0 0 0 0 0 0 0 0 0 0 0 0 0 0 0 0 0 0 166 1996 3138 3149 3057 3279 3065 3051 2840 2948 3677 3718 3145 2928
0 0 0 0 0 0 0 0 0 0 0 0 0 0 0 0 0 0 0 0 0 0 0 0 0 0 0 0 0 0 91 650 1636 1866 3512 3230 3306 2575 2665 2782 3704 3590 3567 3982
0 0 0 0 0 0 0 0 0 0 0 0 0 0 0 0 0 0 0 0 0 0 0 0 0 0 0 0 0 17 97 741 1266 1861 2192 3921 3502 3389 2393 2357 2773 3640 3895 3737
0 0 0 0 0 0 0 0 0 0 0 0 0 0 0 0 0 0 0 0 0 0 0 0 0 0 0 0 0 0 0 253 600 1839 1335 2293 2299 2338 2077 2078 2182 3494 4364 4121
0 0 0 0 0 0 0 0 0 0 0 0 0 0 0 0 0 0 0 0 0 0 0 0 0 0 0 0 0 0 0 0 200 800 1939 1260 1854 1251 1728 2313 3013 3750 4300 4565
0 0 0 0 0 0 0 0 0 0 0 0 0 0 0 2 2 6 2 1 1 0 0 0 0 0 0 0 0 0 0 12 161 310 1005 2111 2704 2794 1984 1918 2270 2694 3433 4052
0 0 0 0 0 0 0 0 0 0 0 0 1 0 11 16 0 0 0 1 4 0 0 0 0 0 0 0 0 0 0 0 50 167 337 615 1725 2514 3385 3167 2143 2056 2655 3010
0 0 0 0 1 0 5 0 0 0 0 0 8 0 45 24 1 0 0 0 0 0 0 0 0 0 0 1 0 0 0 0 0 58 256 504 718 624 774 1815 2105 2462 1840 1938
0 0 1 0 0 0 0 0 7 0 0 0 0 0 24 23 25 0 3 10 0 0 0 0 0 0 7 10 1 0 0 0 0 14 139 410 798 1212 1155 2002 2419 2282 3084 2434
0 0 0 4 8 13 5 1 0 0 0 0 0 0 25 18 14 5 6 15 18 0 0 0 0 0 11 13 8 7 6 0 6 0 36 165 300 761 1159 2104 2423 2734 3412 3305
0 0 3 0 0 0 0 0 0 0 0 0 0 0 5 10 10 47 31 3 5 5 31 18 0 0 0 2 4 8 16 15 3 21 19 77 218 400 701 1395 1743 2558 3093 2855
14 45 57 26 26 17 26 0 0 0 0 0 0 0 51 33 25 34 24 3 1 22 22 20 3 0 1 5 32 43 45 42 46 32 1 2 180 404 420 852 1075 1589 2002 1991
44 58 0 28 50 26 32 34 38 41 95 0 0 0 8 39 29 11 18 18 11 17 33 45 32 25 16 27 58 40 25 22 36 49 41 1 30 204 814 754 589 873 1362 1138
15 34 11 0 58 7 0 49 7 9 4 0 0 0 40 32 66 33 47 28 43 52 52 60 61 45 28 20 22 24 12 4 1 6 11 12 12 41 155 291 336 374 687 1023
40 15 27 30 20 10 14 0 0 0 0 12 23 0 0 57 51 9 26 43 46 56 74 56 54 40 23 21 11 6 5 3 1 1 0 3 3 19 39 170 104 123 330 683
73 9 63 35 30 0 20 0 0 0 0 0 0 0 35 61 40 35 36 34 50 49 63 58 60 44 31 29 14 14 11 9 8 7 8 2 0 0 9 100 421 174 82 101
0 59 111 90 36 49 2 0 14 3 0 9 0 29 22 39 44 61 50 51 54 49 45 51 55 46 48 49 46 41 31 24 19 22 21 12 4 0 0 27 170 319 90 72
0 0 41 0 0 64 16 63 20 26 37 49 50 62 72 74 44 33 16 13 23 31 27 31 31 34 43 36 20 34 21 25 0 0 3 16 14 6 4 3 71 501 954 709
29 0 0 0 39 65 39 48 82 82 67 86 96 82 38 5 3 0 13 22 13 21 22 26 24 28 5 5 0 7 9 0 0 0 0 0 0 17 22 22 129 314 409 869
56 6 0 0 0 0 160 1 30 18 62 53 2 29 16 33 23 2 0 0 4 8 8 0 0 0 0 0 0 0 0 0 0 0 0 0 0 0 43 66 88 80 101 133
110 37 0 0 0 59 82 58 9 30 77 5 8 33 44 24 16 7 6 2 0 0 0 0 0 0 0 0 0 0 0 0 0 0 0 0 0 0 0 19 94 121 69 33
58 0 0 25 15 0 90 65 77 31 22 14 14 25 16 9 7 8 0 0 0 0 0 0 0 0 0 0 0 0 0 0 0 0 0 0 0 0 0 0 0 38 103 114
4 67 167 71 127 78 59 146 17 9 17 16 25 13 11 8 0 0 0 0 0 0 0 0 0 0 0 0 0 0 0 0 0 0 0 0 0 0 0 0 0 0 29 52
36 54 71 31 68 13 95 24 14 3 8 26 14 8 12 0 0 0 0 0 0 0 0 0 0 0 0 0 0 0 0 0 0 0 0 0 0 0 0 0 0 0 0 0
14 22 0 19 38 72 67 30 19 12 22 11 2 5 0 0 0 0 0 0 0 0 0 0 0 0 0 0 0 0 0 0 0 0 0 0 3 6 5 0 0 0 0 0
32 47 100 129 71 56 20 22 31 29 6 7 1 0 0 0 0 0 0 0 0 0 0 0 0 0 0 0 0 0 0 0 4 2 0 0 0 0 3 2 0 0 0 0

GFSCGP_con_mucape_108.txt.gz
CAPE
0 0 0 0 0 0 0 0 0 0 0 0 0 0 0 0 0 0 0 0 0 0 0 0 0 0 6 0 0 176 669 1235 1960 3717 3638 4039 3707 3709 3413 3281 3304 3075 3164 3130
0 0 0 0 0 0 0 0 0 0 0 0 0 0 0 0 0 0 0 0 0 0 0 0 0 16 47 121 374 368 510 1655 1504 1262 3573 3726 3803 3176 3608 3349 3280 3920 3351 3244
0 0 0 0 0 0 0 0 0 0 0 0 0 0 0 0 0 0 0 0 0 0 0 1 7 66 100 134 152 37 741 1261 2082 1636 1167 1772 3299 3067 2928 2977 3317 3466 3681 3474
0 0 0 0 0 0 0 0 0 0 0 0 0 0 0 0 0 0 0 0 0 0 0 0 0 67 48 21 31 132 899 956 769 1702 1705 1769 1680 2503 2437 2752 2890 3161 3382 3264
0 0 0 0 0 0 0 0 0 0 0 0 0 0 0 0 0 0 0 0 0 0 0 3 0 8 0 0 0 147 1031 999 877 1153 1835 1342 1475 1110 1209 1796 2580 2612 3496 3464
0 0 0 0 0 0 0 0 0 0 0 0 0 0 0 0 4 20 37 21 4 0 0 0 0 0 0 0 1 85 243 995 1243 1381 1554 1653 1987 1863 1664 1927 2413 2524 1896 3673
0 0 0 0 0 0 0 0 0 0 0 0 0 0 1 45 37 3 2 0 0 0 0 0 0 0 0 0 11 12 94 116 350 615 1064 1339 1770 2092 2012 1561 1663 1902 1621 1719
1 2 0 1 2 2 3 7 0 0 0 0 9 0 1 18 6 7 2 3 0 0 0 0 0 0 0 0 2 20 21 27 155 115 365 1162 1454 878 843 1110 1170 1083 1115 1030
0 0 1 0 6 3 0 0 0 0 0 0 0 0 1 29 1 0 1 0 3 3 0 0 0 0 0 6 41 70 41 71 83 53 97 511 1184 1199 1116 1493 1161 795 965 1265
0 0 0 0 0 0 1 3 0 0 0 0 0 0 26 0 0 12 0 0 0 2 0 0 0 0 4 18 92 131 126 83 51 46 126 83 135 154 896 1223 1454 1432 1639 1510
20 22 0 1 0 1 4 24 16 56 0 0 0 0 68 24 5 11 14 0 1 0 0 0 0 0 0 0 0 9 136 95 103 119 111 90 87 98 203 496 767 1278 1492 1735
22 19 7 4 0 0 18 41 87 92 0 0 0 0 67 22 4 17 12 0 0 0 0 0 0 0 0 0 0 10 154 101 75 94 104 192 110 87 179 232 443 879 1088 1258
31 34 0 0 0 24 4 9 8 21 57 13 56 0 14 21 5 2 11 7 0 0 0 2 6 6 8 20 33 2 22 41 32 13 4 35 224 168 148 199 202 442 352 198
1 5 0 0 0 3 1 0 2 3 6 0 26 17 0 41 31 12 40 3 2 2 12 16 30 34 35 54 35 31 11 12 1 8 9 17 18 146 167 143 88 235 290 224
12 0 13 20 10 9 4 0 1 8 3 71 0 13 0 23 65 45 29 1 0 14 33 39 65 60 78 54 87 49 32 5 3 0 2 16 19 19 25 37 96 84 199 121
16 7 21 20 21 28 25 11 11 8 13 40 9 25 44 28 12 8 26 62 38 4 28 45 66 85 96 64 36 62 54 36 38 27 29 25 35 37 13 4 8 21 319 251
37 47 0 0 26 38 25 46 59 55 67 68 6 42 15 22 10 10 24 16 0 6 2 7 16 13 16 16 27 19 18 7 3 22 16 14 13 2 9 32 19 10 82 515
17 28 6 0 25 4 7 93 135 94 18 69 80 33 30 7 0 0 2 0 0 0 0 0 0 0 0 0 0 0 0 2 9 0 0 4 8 7 3 6 16 36 48 436
13 54 87 0 53 12 4 75 28 6 15 38 64 44 33 10 0 0 0 0 0 0 0 0 0 0 1 0 0 0 0 0 0 0 0 0 0 0 0 0 13 0 34 54
77 109 0 0 33 0 143 108 4 0 0 11 5 11 7 0 0 0 0 0 0 1 2 2 0 0 0 0 0 0 0 0 0 0 0 0 0 0 0 0 0 0 9 36
68 60 24 0 0 0 68 57 16 5 45 3 1 3 2 8 15 6 1 5 1 2 0 0 0 0 0 0 0 0 0 0 0 0 0 0 0 0 0 0 0 0 0 14
103 130 8 43 0 0 42 46 84 19 36 2 3 4 9 4 2 3 4 0 0 0 0 0 0 0 0 0 0 0 0 0 0 0 0 0 0 0 0 0 0 0 0 0
23 98 72 107 91 35 26 96 77 11 12 3 11 9 3 0 3 0 0 0 0 0 0 0 0 0 0 0 0 0 0 0 0 0 0 0 0 0 0 0 0 0 0 0
38 50 85 28 48 54 45 41 26 40 6 9 12 0 1 0 0 0 0 0 0 0 0 0 0 0 0 0 0 0 0 0 0 0 0 0 0 0 0 0 0 0 0 0
31 3 11 0 41 75 52 20 7 0 4 6 0 1 1 0 0 0 0 0 0 0 0 0 0 0 0 0 0 0 0 0 0 0 0 0 0 2 0 0 3 1 0 0
21 41 59 5 45 47 59 7 6 5 8 0 1 0 0 0 0 0 0 0 0 0 0 0 0 0 0 0 0 0 0 0 0 0 0 0 0 0 1 0 0 0 5 0

GFSCGP_con_mucape_111.txt.gz
CAPE
0 0 0 0 0 0 0 0 0 0 0 0 0 0 0 0 0 0 0 0 0 0 0 0 0 0 0 0 0 0 0 0 80 769 2403 2799 2960 2828 2631 2697 2341 1999 1474 1252
0 0 0 0 0 0 0 0 0 0 0 0 0 0 0 0 0 0 0 0 0 0 0 0 0 0 0 0 0 0 0 34 1 175 283 1864 2386 2492 2817 2662 2645 2354 1857 1736
0 0 0 0 0 0 0 0 0 0 0 0 0 0 0 0 0 0 0 0 0 0 0 0 0 0 0 1 13 0 0 0 507 109 0 158 860 1806 2163 2349 2334 2479 2110 1735
0 0 0 0 0 0 0 0 0 0 0 0 0 0 0 0 0 0 0 0 0 0 0 0 0 0 0 0 0 0 2 187 16 95 545 455 438 515 1030 843 1309 1804 2032 1050
0 0 0 0 0 0 0 0 0 0 0 0 0 0 0 0 0 0 0 0 0 0 0 0 0 0 0 0 0 0 0 0 5 19 11 32 61 89 316 278 423 751 1317 1124
0 0 0 0 0 0 0 0 0 0 0 0 0 0 0 0 0 0 9 0 0 0 0 0 0 0 0 0 0 0 0 0 0 0 11 184 258 93 60 0 157 148 770 831
0 0 0 0 0 0 0 0 0 0 0 0 0 0 0 0 0 8 0 0 0 0 0 0 0 0 0 0 0 0 0 0 0 0 0 0 0 204 320 159 25 23 0 46
0 0 0 1 3 0 0 0 0 0 0 0 0 0 0 0 8 0 1 0 0 0 0 0 0 0 0 0 0 0 0 0 0 0 0 0 0 68 4 46 40 11 62 15
0 0 4 0 0 11 0 0 0 0 0 0 0 0 0 0 9 3 14 1 0 0 0 0 0 0 0 0 0 0 0 0 0 0 0 0 0 0 0 5 79 302 358 292
0 0 0 0 0 0 0 0 0 0 0 0 0 0 0 1 8 2 12 0 0 0 0 0 0 0 0 0 0 0 0 0 0 0 0 0 0 0 0 0 2 0 28 161
0 0 0 0 0 0 0 2 10 3 0 0 0 0 4 2 1 4 11 3 0 0 0 0 0 0 0 0 0 0 0 0 0 0 0 4 0 0 0 0 17 28 15 5
0 0 0 0 0 0 0 2 17 11 0 0 7 0 0 14 0 0 4 6 4 0 2 0 0 0 0 0 0 0 0 0 0 0 0 0 1 13 0 0 0 1 12 11
0 0 0 0 0 0 0 3 6 2 0 5 3 5 24 10 0 3 0 0 0 0 0 0 0 0 0 0 0 0 0 0 0 0 0 0 0 0 0 0 0 0 0 0
0 0 0 0 0 0 0 0 3 8 0 0 0 0 0 0 11 2 0 0 0 2 0 0 0 0 0 0 1 4 1 0 0 0 0 0 0 0 0 0 0 0 0 0
0 0 0 0 0 0 0 0 0 0 1 9 0 9 0 0 13 18 1 0 7 0 0 0 0 0 0 0 0 0 0 0 0 0 0 0 0 0 0 0 0 0 0 0
7 0 0 0 0 0 0 0 0 0 1 6 1 4 16 14 8 0 0 0 0 0 0 0 0 0 0 0 0 0 0 0 0 0 3 1 0 0 0 0 0 0 0 0
0 2 0 0 0 0 0 0 0 33 84 21 16 7 1 1 0 0 1 2 0 0 0 0 0 0 0 0 0 0 0 0 1 3 2 1 3 0 0 0 0 0 0 0
2 6 1 0 0 0 0 9 50 58 12 39 41 8 17 0 0 11 7 0 0 0 0 0 0 0 0 0 0 0 0 0 0 0 0 0 0 0 0 0 0 0 0 0
1 0 0 0 0 0 0 28 52 25 1 1 1 4 0 0 0 0 0 0 0 0 0 0 0 0 0 0 0 0 0 0 0 0 0 0 0 0 0 0 0 0 0 0
25 9 0 1 0 0 14 94 23 0 0 0 0 0 5 0 0 0 0 0 0 0 0 0 0 0 0 0 0 0 0 0 0 0 0 0 0 0 0 0 0 0 0 0
21 20 0 6 0 0 20 38 35 37 0 0 0 0 0 0 0 0 0 0 0 0 0 0 0 0 0 0 0 0 0 0 0 0 0 0 0 0 0 0 0 0 0 0
12 22 1 10 0 0 5 29 27 6 0 0 0 0 0 0 0 0 0 0 0 0 0 0 0 0 0 0 0 0 0 0 0 0 0 0 0 0 0 0 0 0 0 0
10 7 7 18 0 30 54 35 22 5 0 0 0 2 0 0 0 0 0 0 0 0 0 0 0 0 0 0 0 0 0 0 0 0 0 0 0 0 0 0 0 0 0 0
8 38 16 0 7 18 36 3 0 4 4 0 0 0 0 0 0 0 0 0 0 0 0 0 0 0 0 0 0 0 3 0 0 0 0 0 0 0 0 0 0 0 0 0
0 0 0 0 10 17 21 18 13 3 0 4 0 0 0 0 0 0 0 0 0 0 0 0 0 0 0 0 0 0 0 1 0 0 0 0 0 0 0 0 0 1 0 0
0 0 0 0 0 3 4 31 10 12 4 0 0 0 0 0 0 0 0 0 0 0 0 0 0 0 0 0 0 0 1 0 1 1 0 0 0 0 0 0 0 0 0 0

GFSCGP_con_mucape_114.txt.gz
CAPE
0 0 0 0 0 0 0 0 0 0 0 0 0 0 0 0 0 0 0 0 0 0 0 0 0 0 0 221 561 713 564 178 995 1119 1880 2011 2368 2287 2240 2320 2264 2098 1698 1355
0 0 0 0 0 0 0 0 0 0 0 0 0 0 0 0 0 0 0 0 0 0 0 0 0 0 0 301 477 430 54 15 0 0 971 2182 2065 1954 1759 1818 2045 1986 1804 1802
0 0 0 0 0 0 0 0 0 0 0 0 0 0 0 0 0 0 0 0 0 0 0 0 0 0 0 0 0 0 0 0 0 0 0 8 37 131 488 1034 1352 1335 1342 1576
0 0 0 0 0 0 0 0 0 0 0 0 0 0 0 0 0 0 0 0 0 0 0 0 0 0 0 0 0 0 4 0 224 270 218 159 20 9 2 0 136 679 1061 1040
0 0 0 0 0 0 0 0 0 0 0 0 0 0 0 0 0 0 0 0 0 0 0 0 0 0 0 0 0 7 27 26 31 1 0 0 0 0 0 0 1 19 206 864
0 0 0 0 0 0 0 0 0 0 0 0 0 0 0 0 0 0 0 0 0 0 0 0 0 0 0 0 0 0 0 0 0 0 0 0 0 0 0 21 27 0 0 17
0 0 0 0 0 0 0 0 0 0 0 0 0 0 0 0 0 0 0 0 0 0 0 0 0 0 0 0 0 0 0 0 0 0 0 0 0 0 11 0 0 0 0 0
0 0 0 0 0 0 0 0 0 0 0 0 0 0 0 0 0 0 0 0 0 0 0 0 0 0 0 0 0 0 0 0 0 0 0 0 0 0 0 0 0 0 0 1
0 0 0 0 0 0 0 0 0 0 0 0 0 0 0 11 10 0 0 0 1 0 0 0 0 0 0 0 0 0 0 0 0 0 0 0 0 0 0 0 0 0 0 0
0 0 0 0 0 0 0 0 0 0 0 0 0 0 0 0 23 29 20 10 2 0 0 1 0 0 0 0 0 0 0 0 0 0 0 0 0 0 0 0 0 0 0 0
0 0 0 0 0 0 0 0 0 0 0 0 0 0 6 10 22 12 3 6 8 4 0 0 0 0 0 0 0 0 0 0 0 0 0 0 0 0 0 0 0 0 0 0
0 0 0 0 0 0 0 0 0 0 0 12 7 0 4 17 6 0 0 7 0 0 37 11 0 0 0 0 0 0 0 0 0 0 0 0 0 0 0 0 0 0 0 0
0 0 0 0 0 0 0 0 0 5 0 0 0 0 36 37 31 5 10 9 13 1 3 4 3 2 0 0 0 0 0 0 0 0 0 0 0 0 0 0 0 0 0 0
0 0 0 0 0 0 0 0 0 0 0 0 0 0 0 20 3 3 0 0 0 0 0 0 0 0 0 0 0 0 0 0 0 0 0 0 0 0 0 0 0 0 0 0
0 0 0 0 0 0 0 0 0 0 0 0 0 0 0 0 0 0 0 0 0 2 0 0 0 0 0 0 0 0 0 0 0 0 0 0 0 0 0 0 0 0 0 0
0 0 0 0 0 0 0 0 0 0 0 0 0 0 4 9 2 0 0 0 0 0 0 0 0 0 0 0 0 0 0 0 0 0 0 0 0 0 0 0 0 0 0 0
0 0 0 0 0 0 0 0 0 0 0 2 1 7 22 5 1 0 1 3 0 0 0 0 0 0 0 0 0 0 0 0 0 0 0 0 0 0 0 0 0 0 0 1
0 0 0 0 0 0 0 0 14 35 33 29 18 2 0 3 7 7 0 0 0 0 0 0 0 0 0 0 0 0 0 0 0 0 0 0 0 0 0 0 0 0 0 0
1 2 0 0 0 0 0 7 5 4 2 5 3 1 0 0 0 0 0 0 0 0 0 0 0 0 0 0 0 0 0 0 0 0 0 0 0 0 0 0 0 0 0 0
3 5 4 1 0 0 0 38 23 15 0 13 7 0 0 0 0 0 0 0 0 0 0 0 0 0 0 0 0 0 0 0 0 0 0 0 0 0 0 0 0 0 0 0
12 9 6 2 0 0 0 1 26 2 1 8 0 0 0 0 0 0 0 0 0 0 0 0 0 0 0 0 0 0 0 0 0 0 0 0 0 0 0 0 0 0 0 0
0 0 0 0 19 0 0 4 0 5 0 0 0 0 0 0 0 0 0 0 0 0 0 0 0 0 0 0 0 0 0 0 0 0 9 3 0 0 0 0 0 0 0 0
0 0 9 7 0 0 1 2 18 12 0 0 0 0 0 0 0 0 0 0 0 0 0 0 0 0 0 0 0 0 0 0 0 2 5 3 1 0 0 0 0 0 0 0
1 40 34 0 0 10 0 26 18 14 12 3 0 0 0 0 0 0 0 0 0 0 0 0 0 0 0 0 0 0 0 0 0 0 5 6 0 0 0 0 0 0 0 0
0 0 0 0 0 0 6 4 2 0 2 0 0 0 0 0 0 0 0 0 0 0 0 0 0 0 0 0 0 4 1 1 0 0 0 0 0 5 2 0 0 0 0 0
0 0 0 0 0 0 0 0 0 2 3 5 0 0 0 0 0 0 0 0 0 0 0 0 0 0 0 0 3 0 0 0 0 0 0 1 6 3 3 0 1 0 0 0

GFSCGP_con_mucape_117.txt.gz
CAPE
0 0 0 0 0 0 0 0 0 0 0 0 0 0 0 0 0 0 0 0 0 0 0 0 0 0 0 47 581 1031 1184 1154 1069 1032 1149 772 1168 1924 2045 2351 2071 1757 1584 1515
0 0 0 0 0 0 0 0 0 0 0 0 0 0 0 0 0 0 0 0 0 0 0 0 0 0 0 55 381 738 984 1028 1243 1103 1265 1308 1353 1606 2029 1817 1534 1464 1451 1455
0 0 0 0 0 0 0 0 0 0 0 0 0 0 0 0 0 0 0 0 0 0 0 0 0 0 0 1 268 618 976 1399 1159 552 864 1865 1898 1554 1175 713 418 336 444 652
0 0 0 0 0 0 0 0 0 0 0 0 0 0 0 0 0 0 0 0 0 0 0 0 0 0 0 0 92 517 901 816 0 0 2 72 5 0 48 26 49 42 247 342
0 0 0 0 0 0 0 0 0 0 0 0 0 0 0 0 0 0 0 0 0 0 0 0 0 0 0 0 66 400 179 0 10 77 54 0 0 10 39 38 31 19 29 242
0 0 0 0 0 0 0 0 0 0 0 0 0 0 0 0 0 0 0 0 0 0 0 0 0 0 0 0 0 3 7 31 25 10 0 0 0 0 7 80 27 0 0 0
0 0 0 0 0 0 0 0 0 0 0 0 0 0 0 0 0 0 0 0 0 0 0 0 0 0 0 1 8 17 13 4 2 0 0 0 0 0 2 3 0 0 0 0
0 0 0 0 0 0 0 0 0 0 0 0 0 0 0 0 0 0 0 0 0 0 0 0 0 0 0 0 0 0 0 0 0 0 0 0 0 0 0 0 0 0 0 0
0 0 0 0 0 0 0 0 0 0 0 0 0 0 0 0 0 0 0 0 0 0 0 0 0 0 0 0 0 0 0 0 0 0 0 0 0 0 0 0 0 0 0 0
0 0 0 0 0 0 0 0 0 0 0 0 0 0 0 0 9 16 4 0 0 0 1 1 0 0 0 0 0 0 0 0 0 0 0 0 0 0 0 0 0 0 0 0
0 0 0 0 0 0 0 0 0 0 0 0 0 0 0 0 0 0 1 13 9 0 2 14 1 0 0 0 0 0 0 4 1 0 0 0 0 0 0 0 0 0 0 0
6 0 0 0 0 0 0 0 0 0 0 0 0 0 8 12 12 3 1 6 0 0 1 2 2 1 11 1 0 0 0 0 0 0 0 0 0 0 0 0 0 0 0 0
0 0 0 0 0 0 0 0 0 0 0 0 0 0 12 4 5 5 0 0 4 0 0 3 2 6 0 2 0 0 0 0 0 0 0 0 0 0 0 0 0 0 0 0
0 0 0 0 0 0 0 0 0 0 0 0 0 0 0 0 0 0 0 0 0 0 3 0 0 0 0 1 0 0 0 0 0 0 0 0 0 0 0 0 0 0 0 0
0 0 0 0 0 0 0 0 0 0 0 0 0 0 0 0 0 0 0 0 0 0 4 1 8 10 4 8 0 0 0 0 0 0 0 0 0 0 0 0 0 0 0 0
0 0 0 0 0 0 0 0 0 0 0 0 0 0 0 0 0 0 0 0 0 0 0 1 0 0 0 0 0 0 0 0 0 0 0 0 0 0 0 0 0 0 0 0
0 0 0 0 0 0 0 0 0 0 0 0 0 0 0 5 2 2 0 1 0 0 0 0 0 0 0 0 0 0 0 0 0 0 0 0 0 0 0 0 0 0 0 0
0 0 0 0 0 0 0 0 0 0 0 0 0 0 0 1 2 1 6 2 0 0 0 0 0 0 0 0 0 0 0 0 0 0 0 0 0 0 0 0 0 0 0 0
0 0 0 0 0 0 0 0 0 0 0 0 0 0 1 0 0 0 0 0 0 0 0 0 0 0 0 0 0 0 0 0 0 0 0 0 0 0 0 0 0 0 0 0
0 4 0 0 0 0 0 0 0 1 0 0 0 0 0 0 0 0 0 0 0 0 0 0 0 0 0 0 0 0 0 0 0 0 0 0 0 0 0 3 4 0 0 0
0 9 0 0 0 0 0 0 11 0 0 1 0 0 0 0 0 0 0 0 0 0 0 0 0 0 0 0 0 0 0 0 0 0 0 0 0 0 4 0 1 0 0 0
0 0 0 0 0 0 1 0 3 0 4 3 0 0 0 0 0 0 0 0 0 0 0 0 0 0 0 0 0 0 0 0 0 2 0 0 0 5 6 1 1 0 0 0
0 0 0 0 0 0 8 9 0 9 10 0 4 1 0 0 0 0 0 0 0 0 0 0 0 0 0 0 0 0 0 0 1 0 0 0 0 0 1 1 1 0 0 0
0 4 0 0 0 0 0 0 2 17 13 12 0 0 0 0 0 0 0 0 0 0 0 0 0 0 0 0 0 0 0 6 7 1 2 0 0 0 0 0 0 1 0 0
0 0 0 0 0 1 0 9 2 1 4 0 0 0 0 0 0 0 0 0 0 0 0 0 0 0 0 0 0 0 4 8 9 3 0 0 1 2 4 1 0 4 0 0
0 0 0 0 0 0 0 1 1 1 0 0 0 0 0 0 0 0 0 0 0 0 0 0 0 0 0 0 0 0 2 1 0 0 8 1 5 2 0 0 0 4 0 0

GFSCGP_con_mucape_120.txt.gz
CAPE
0 0 0 0 0 0 0 0 0 0 0 0 0 0 0 0 0 0 0 0 0 0 0 0 0 0 0 0 50 402 669 782 952 1194 921 1032 1306 1451 1552 1747 1710 1448 1708 1537
0 0 0 0 0 0 0 0 0 0 0 0 0 0 0 0 0 0 0 0 0 0 0 0 0 0 0 0 0 376 618 807 1056 1254 1089 1132 1131 1297 1860 1786 1961 1547 1318 1272
0 0 0 0 0 0 0 0 0 0 0 0 0 0 0 0 0 0 0 0 0 0 0 0 0 0 0 0 0 210 557 857 1229 1300 1260 1290 1193 1038 1142 1360 1368 963 627 788
0 0 0 0 0 0 0 0 0 0 0 0 0 0 0 0 0 0 0 0 0 0 0 0 0 0 0 0 0 113 508 839 1055 1139 1267 1286 1312 1217 1210 1163 564 82 97 139
0 0 0 0 0 0 0 0 0 0 0 0 0 0 0 0 0 0 0 0 0 0 0 0 0 0 0 0 0 9 320 666 1036 1382 1202 326 829 453 104 28 25 17 35 49
0 0 0 0 0 0 0 0 0 0 0 0 0 0 0 0 0 0 0 0 0 0 0 0 0 0 0 0 0 2 281 782 1116 752 238 16 2 2 0 7 6 1 2 7
0 0 0 0 0 0 0 0 0 0 0 0 0 0 0 0 0 0 0 0 0 0 0 0 0 0 0 0 0 13 293 609 400 80 7 0 0 0 0 5 0 0 0 0
0 0 0 0 0 0 0 0 0 0 0 0 0 0 0 0 0 0 0 0 0 0 0 0 0 0 0 0 0 0 0 0 0 0 0 0 0 0 0 0 0 0 0 0
0 0 0 0 0 0 0 0 0 0 0 0 0 0 0 0 0 0 0 0 0 0 0 0 0 0 0 0 0 0 0 0 0 0 0 0 0 0 0 0 0 0 0 0
0 0 0 0 0 0 0 0 0 0 0 0 0 0 0 0 0 0 0 0 0 0 0 0 0 0 0 0 0 0 0 0 0 0 0 0 0 0 0 0 0 0 0 0
0 0 0 0 0 0 0 0 0 0 0 0 0 0 0 0 0 0 0 0 0 1 5 1 0 0 0 0 0 0 0 0 0 0 0 0 0 0 0 0 0 0 0 0
2 0 0 0 0 0 0 0 0 0 0 0 0 0 0 0 0 0 2 8 6 0 0 0 0 0 0 0 0 0 0 2 0 0 0 0 0 0 0 0 0 0 0 0
2 2 0 0 0 0 0 0 0 0 0 0 0 0 0 0 0 0 0 0 0 0 0 0 0 0 0 0 0 0 0 0 0 0 0 0 0 0 0 0 0 0 0 0
0 0 0 0 0 0 0 0 0 0 0 0 0 0 0 0 0 0 0 0 0 0 4 1 0 0 1 0 2 0 0 0 0 0 0 0 0 0 0 0 0 0 0 0
0 0 0 0 0 0 0 0 0 0 0 0 0 0 0 0 0 0 0 0 0 0 0 0 1 3 4 5 1 0 0 0 0 0 0 0 0 0 0 0 0 0 0 0
0 0 0 0 0 0 0 0 0 0 0 0 0 0 0 0 0 0 0 0 0 0 0 0 0 0 0 0 0 0 0 0 0 0 0 0 0 0 0 0 0 0 0 0
0 0 0 0 0 0 0 0 0 0 0 0 0 0 0 0 0 0 0 0 2 3 0 0 0 0 0 0 0 0 0 0 0 0 0 0 0 0 0 0 0 0 0 0
0 0 0 0 0 0 0 0 0 0 0 0 0 0 0 0 0 0 0 6 2 0 1 0 0 0 0 0 0 0 0 0 0 0 0 0 0 0 0 0 0 0 0 0
0 0 0 0 0 0 0 0 0 0 0 0 0 0 0 0 0 0 13 5 0 0 0 0 0 0 0 0 0 0 0 0 0 0 0 0 0 0 0 0 0 0 0 0
0 0 0 0 0 0 0 0 0 0 0 0 0 0 0 0 0 0 0 0 0 0 0 0 0 0 0 0 0 0 0 0 0 0 0 0 0 0 0 0 0 1 1 6
0 0 0 0 0 0 0 0 1 0 0 1 1 0 0 0 0 0 0 0 0 0 0 0 0 0 0 0 0 0 0 0 0 0 0 0 1 1 5 1 2 1 2 1
0 0 0 0 0 0 0 1 0 0 0 0 1 1 0 0 0 0 0 0 0 0 0 0 0 0 0 0 0 0 0 0 0 0 0 8 5 3 0 0 0 0 0 0
0 0 0 0 0 0 0 6 13 12 0 2 11 0 0 0 0 0 0 0 0 0 0 0 0 0 0 0 0 0 0 0 0 0 0 0 3 0 0 0 0 2 2 0
0 0 0 0 0 0 0 1 0 0 4 9 0 1 0 0 0 0 0 0 0 0 0 0 0 0 0 0 0 0 0 0 0 1 0 0 0 0 1 0 0 0 0 0
0 0 0 0 0 0 0 5 1 5 12 3 0 0 0 0 0 0 0 0 0 0 0 0 0 0 0 0 0 0 0 0 1 0 6 0 6 0 5 1 1 0 0 4
0 0 0 0 0 0 0 0 9 6 1 0 0 0 0 0 0 0 0 0 0 0 0 0 0 0 0 0 0 0 0 0 1 0 0 1 0 1 12 0 0 0 0 0

GFSCGP_con_mucape_123.txt.gz
CAPE
0 0 0 0 0 0 0 0 0 0 0 0 0 0 0 0 0 0 0 0 0 0 0 0 0 0 0 0 0 406 1105 1567 1467 1351 1283 1340 1425 1389 1398 1452 1526 1520 1544 1506
0 0 0 0 0 0 0 0 0 0 0 0 0 0 0 0 0 0 0 0 0 0 0 0 0 0 0 0 0 16 949 1445 1437 1451 1531 1444 1480 1628 1739 2045 1870 1608 1512 1524
0 0 0 0 0 0 0 0 0 0 0 0 0 0 0 0 0 0 0 0 0 0 0 0 0 0 0 0 14 65 466 1242 1288 1331 1225 1269 1044 1160 1760 2242 2268 1827 1608 1554
0 0 0 0 0 0 0 0 0 0 0 0 0 0 0 0 0 0 0 0 0 0 0 0 0 0 0 0 0 3 412 808 720 808 1191 1251 1303 1158 1119 1168 1011 863 645 569
0 0 0 0 0 0 0 0 0 0 0 0 0 0 0 0 0 0 0 0 0 0 0 0 0 0 0 0 0 0 185 396 426 700 1081 1289 1218 1097 903 754 596 450 560 555
0 0 0 0 0 0 0 0 0 0 0 0 0 0 0 0 0 0 0 0 0 0 0 0 0 0 0 0 0 12 229 242 489 766 880 627 637 410 339 327 330 229 248 351
0 0 0 0 0 0 0 0 0 0 0 0 0 0 0 0 0 0 0 0 0 0 0 0 0 0 0 0 0 57 193 276 426 490 475 301 507 564 582 524 295 255 177 178
0 0 0 0 0 0 0 0 0 0 0 0 0 0 0 0 0 0 0 0 0 0 0 0 0 0 0 0 0 0 1 43 80 130 165 109 68 50 83 312 189 129 79 68
0 0 0 0 0 0 0 0 0 0 0 0 0 0 0 0 0 0 0 0 0 0 0 0 0 0 0 0 0 0 0 0 13 32 47 29 0 0 9 79 102 46 77 12
0 1 0 0 0 0 0 0 0 0 0 0 0 0 0 0 0 0 0 0 0 0 0 0 0 0 0 0 0 0 0 0 0 0 0 0 0 0 0 0 1 17 38 20
0 0 0 1 0 0 0 0 0 0 0 0 0 0 0 0 0 0 0 0 0 0 0 0 0 0 0 0 0 0 0 0 0 0 0 0 0 0 0 0 0 0 0 0
0 0 0 0 0 0 0 0 0 0 0 0 0 0 0 0 0 0 0 0 0 0 2 6 7 8 5 0 0 0 0 0 0 0 0 0 0 0 0 0 0 0 0 0
4 0 0 0 0 0 0 0 0 0 0 0 0 0 0 0 0 0 1 0 2 5 5 7 7 0 0 0 0 0 0 0 0 0 0 0 0 0 0 0 0 0 0 0
3 3 0 0 0 0 0 0 0 0 0 0 0 0 0 0 0 0 0 0 0 0 0 0 0 0 0 0 0 0 0 0 0 0 0 0 0 0 0 0 0 0 0 0
6 3 0 0 0 0 0 0 0 0 0 0 0 0 0 0 0 0 0 0 0 0 0 0 0 0 0 0 0 0 0 0 0 0 0 0 0 0 0 0 0 0 0 0
0 0 0 0 0 0 0 0 0 0 0 0 0 0 0 0 0 0 0 0 0 0 0 0 0 0 0 0 0 0 0 0 0 0 0 0 0 0 0 0 0 0 0 0
0 0 0 0 0 0 0 0 0 0 0 0 0 0 0 0 0 0 0 0 0 0 0 1 0 0 0 0 0 0 0 0 0 0 0 0 0 0 0 0 0 0 0 0
0 0 0 0 0 0 0 0 0 0 0 0 0 0 0 0 0 0 0 3 4 2 2 0 0 0 0 0 0 0 0 0 0 0 0 0 0 0 0 0 0 0 0 0
0 0 0 0 0 0 0 0 0 0 0 0 14 20 12 0 2 0 0 0 0 0 0 0 0 0 0 0 0 0 0 0 0 0 0 0 0 0 0 0 0 0 0 0
0 0 0 0 0 0 0 0 0 0 0 0 0 9 14 3 35 37 0 0 0 0 0 0 0 0 0 0 0 0 0 0 0 0 0 0 0 0 0 0 4 4 0 8
0 0 0 0 0 0 0 0 0 0 0 1 1 13 19 28 26 0 0 0 0 0 0 0 0 0 0 0 0 0 0 0 0 0 0 0 0 0 0 0 0 3 0 0
0 0 0 0 0 0 0 0 4 12 4 12 39 48 5 0 0 0 0 0 0 0 0 0 0 0 0 0 0 0 0 0 0 0 0 0 0 0 0 0 0 0 0 0
0 0 0 0 0 0 0 22 34 54 19 27 45 45 7 0 0 0 0 0 0 0 0 0 0 0 0 0 0 0 0 0 0 0 0 0 0 0 6 0 0 0 4 1
0 0 0 0 0 0 9 20 48 45 47 69 47 13 0 0 0 0 0 0 0 0 0 0 0 0 0 0 0 0 0 0 0 0 0 0 0 0 0 0 0 2 0 0
0 0 0 0 0 0 0 0 0 6 31 9 5 1 0 0 0 0 0 0 0 0 0 0 0 0 0 0 0 0 0 0 0 0 0 0 1 7 9 10 0 1 0 0
0 0 0 0 0 0 0 0 0 9 2 2 0 0 0 0 0 0 0 0 0 0 0 0 0 0 0 0 0 0 0 0 0 3 1 0 1 6 8 0 4 0 0 7

GFSCGP_con_mucape_129.txt.gz
CAPE
0 0 0 0 0 0 0 0 0 0 0 0 0 2 0 0 0 0 0 0 3 1 0 0 0 0 0 0 0 30 389 2707 2134 1257 1499 2043 1817 2196 2267 2529 3097 2593 2227 2135
0 0 0 0 2 0 13 24 0 0 0 0 0 0 0 0 0 0 0 0 0 0 0 0 0 0 0 0 0 28 247 1800 2706 1579 2492 1660 1707 1509 1976 2434 3122 2462 2324 2613
0 0 0 0 0 22 16 5 1 0 0 0 0 0 0 0 0 0 0 8 1 8 7 14 12 11 0 0 0 27 60 1180 2557 2842 2300 2243 2287 2600 2364 2494 2446 2456 2557 2819
0 0 0 0 0 3 16 0 1 0 0 0 0 0 0 0 0 0 0 4 4 16 11 12 24 47 31 5 0 0 98 325 884 2270 2386 3869 2398 1894 1733 2272 2033 2821 3114 2857
0 0 0 0 0 0 9 2 0 0 0 0 0 0 0 0 0 0 0 1 7 10 9 5 30 84 131 210 187 201 261 761 1363 1533 2240 2214 2661 1675 1673 1865 3869 3464 3306 2725
3 0 0 0 0 3 12 5 0 0 2 0 0 0 0 0 0 0 0 0 0 0 0 0 5 28 135 291 675 823 969 1050 973 1180 1494 2079 2322 2571 2386 2544 2433 2587 1786 1552
30 9 0 3 23 7 4 5 12 0 0 0 9 0 0 1 0 55 0 0 0 0 0 0 0 0 17 74 154 319 488 588 679 826 1013 1199 1907 1985 2275 1738 1833 1924 922 669
24 14 0 0 3 3 0 3 39 0 0 0 7 2 100 16 28 1 0 0 0 0 0 0 0 0 0 0 0 0 0 6 8 25 51 142 227 309 389 559 430 260 205 262
32 58 0 1 2 21 2 0 24 41 31 23 15 136 54 6 11 3 0 0 0 0 0 0 4 0 0 0 0 0 0 0 0 0 0 0 83 152 233 391 502 85 735 140
48 48 8 0 2 0 22 24 24 9 52 5 32 66 58 13 4 15 0 0 0 0 0 2 2 20 0 0 0 0 0 0 0 0 0 0 0 0 1 77 130 194 236 304
51 80 21 8 5 18 5 88 33 60 45 42 65 124 159 75 91 25 33 38 7 0 6 14 9 4 0 0 0 0 0 0 0 0 0 0 0 0 0 0 0 0 10 67
79 82 203 53 44 32 76 11 38 121 66 115 109 79 42 78 105 61 67 46 18 0 4 3 2 0 0 0 0 0 0 0 0 0 0 0 0 0 0 0 0 0 0 0
76 131 246 67 46 20 25 67 64 70 93 130 111 138 25 55 106 56 44 39 21 4 1 1 0 0 0 0 0 0 0 0 0 0 0 0 0 0 0 0 0 0 0 0
58 60 113 136 42 22 0 2 62 58 185 99 64 64 69 26 20 24 22 18 18 0 2 0 3 4 6 3 2 0 0 0 0 0 0 0 0 0 0 0 0 0 0 0
39 78 125 6 0 3 35 38 55 64 79 132 65 29 34 3 1 0 0 0 0 0 3 11 8 13 11 13 13 6 2 0 0 0 0 0 0 0 0 0 0 0 0 0
138 85 94 15 0 6 1 0 0 1 0 0 2 0 0 0 0 0 4 3 0 2 6 8 19 19 24 27 23 18 5 1 0 0 0 0 0 0 0 0 0 0 0 0
124 100 100 87 14 0 0 0 0 0 0 0 0 0 7 2 3 9 14 18 21 28 33 37 43 45 48 32 32 19 6 1 0 0 0 0 0 0 0 0 0 1 17 31
136 64 40 47 1 0 0 0 0 0 0 0 0 0 0 2 12 18 20 29 36 35 35 45 52 49 42 32 11 9 4 2 1 0 0 0 0 0 0 0 0 25 31 29
38 60 46 20 8 2 0 0 0 0 2 1 9 7 13 28 24 26 29 26 20 12 8 30 36 41 36 19 11 11 9 5 1 0 0 0 0 0 0 0 0 0 0 0
3 41 25 5 9 1 85 0 0 0 26 15 2 8 13 8 15 56 26 50 27 30 33 33 45 38 23 20 18 12 4 0 0 0 0 0 0 0 0 0 0 0 0 0
13 27 24 17 34 44 39 0 0 0 19 8 14 11 14 29 28 33 14 8 4 25 35 41 42 30 20 17 10 0 0 0 0 0 0 0 0 0 0 0 0 0 1 1
20 48 59 82 16 0 12 0 4 31 7 11 6 10 21 33 34 16 19 9 8 5 23 31 28 24 16 6 1 0 0 0 0 0 0 0 0 0 0 0 0 0 0 2
63 66 58 36 57 69 7 35 12 2 4 6 20 31 14 10 16 7 26 25 36 36 36 30 25 13 6 0 0 0 0 0 0 0 0 0 0 2 0 0 0 0 0 6
50 72 65 31 56 31 26 14 10 8 15 19 6 6 25 32 32 30 30 33 33 21 10 5 1 0 0 0 0 0 0 0 0 0 0 0 0 0 0 0 0 0 0 0
42 5 13 38 41 21 5 14 19 20 23 10 17 23 24 23 13 15 6 3 1 0 0 1 0 0 0 0 0 0 0 0 0 1 0 0 0 4 3 4 0 1 4 1
0 5 13 91 4 20 25 12 19 11 10 14 8 2 2 0 0 0 0 0 2 1 0 0 0 0 0 0 0 0 0 0 2 0 0 0 0 7 7 0 0 0 0 0